     2              OBSERVATION DATA    GPS                 RINEX VERSION / TYPE
TRRINEXO V2.8.4 LH                                          PGM / RUN BY / DATE
                                                            COMMENT
BIT 2 OF LLI (+4) FLAGS DATA COLLECTED UNDER "AS" CONDITION COMMENT
Original Marker Name: 0110                                  COMMENT
Campaign Name: coachelle valley 1990                        COMMENT
4-Character Station Name: 0110                              COMMENT
6-Character Antenna Code: TRMSST                            COMMENT
Vertical Measurement Point: TGP                             COMMENT
Vertical Offset to Rinex Ref. Point: 0.0629                 COMMENT
Radial Measurement Point: NGP                               COMMENT
Radial Offset to Rinex Ref. Point: 0.2334                   COMMENT
Antenna Height from Field Measurement: 1.3110 m             COMMENT
Original XYZ: -2306305.4466 -4787932.4170 3515745.8348      COMMENT
New XYZ position is based on association with SCEC monument COMMENT
E1D0M3T8+0011. Position of that monument is believed to be  COMMENT
valid to within 1 m horizontally; vertical accuracy         COMMENT
should be no worse than 3-times this value.                 COMMENT
                                                            COMMENT
Revised Rinex header created by UCSD GPS archive for        COMMENT
GSAC on 12-Apr-1999 (1999:102) 13:40:24 GMT                 COMMENT
For assistance contact dagnew@ucsd.edu or hjohnson@ucsd.edu COMMENT
                                                            COMMENT
BLACK BUTTE NCMN 1982                                       MARKER NAME
UNKNOWN OBSERVER RIVERSIDE COUNTY FCWCD                     OBSERVER / AGENCY
428 TRIMBLE 4000 SST 4.11 / 4.10                            REC # / TYPE / VERS
28 TR 4000SST L1/L2 GEO                                     ANT # / TYPE
 -2306307.0000 -4787914.0000  3515736.0000                  APPROX POSITION XYZ
        1.2272        0.0000        0.0000                  ANTENNA: DELTA H/E/N
     1     2     0                                          WAVELENGTH FACT L1/2
     3    C1    L1    L2                                    # / TYPES OF OBSERV
     0                                                      INTERVAL
  1990    10    15    11    10   45.000000                  TIME OF FIRST OBS
  1990    10    15    18     9   60.000000                  TIME OF LAST OBS
     0                                                      # OF SATELLITES
                                                            END OF HEADER
 90 10 15 11 10 45.0000000  0  5 02 18 06 11 15
  20680598.930          -0.45617
  21570183.336          -0.66217
  22103929.109          -0.32616
  23552140.734          -0.50816
  24493005.953          -0.77815
 90 10 15 11 10 59.9990000  0  5 02 18 06 11 15
  20677226.081      -17724.693 7        -0.04013
  21574746.769       23977.809 7        -0.11312
  22094806.784      -47934.745 6
  23556430.894       22548.532 6
  24483813.120      -48304.052 5
 90 10 15 11 11 14.9990000  0  5 02 18 06 11 15
  20673865.995      -35384.050 7    -13760.574 3
  21579328.987       48055.558 7     18761.758 2
  22085687.026      -95854.770 6        -0.43011
  23560743.065       45204.127 6        -0.39411
  24474629.659      -96555.107 5        -0.45211
 90 10 15 11 11 29.9990000  0  5 02 18 06 11 15
  20670517.714      -52980.732 7    -27472.276 3
  21583930.284       72227.606 7     37597.110 2
  22076571.675     -143760.426 6    -37329.509 1
  23565073.315       67961.227 6     17732.397 1
  24465461.729     -144753.683 5    -37557.755 1
 90 10 15 11 11 44.9990000  0  5 02 18 06 11 15
  20667179.933      -70514.711 7    -41135.109 3
  21588546.222       96493.949 7     56505.938 2
  22067458.175     -191651.403 6    -74647.160 1
  23569421.292       90819.504 6     35544.020 1
  24456296.269     -192899.419 5    -75073.879 1
 90 10 15 11 11 59.9990000  0  5 02 18 06 11 15
  20663855.245      -87988.910 7    -54751.368 3
  21593182.065      120851.363 7     75485.734 2
  22058346.511     -239530.428 6   -111955.494 1
  23573789.597      113775.771 6     53432.022 1
  24447139.964     -240994.622 5   -112550.648 1
 90 10 15 11 12 14.9990000  0  5 02 18 06 11 15
  20660542.589     -105398.379 7    -68317.184 3
  21597836.604      145304.318 7     94539.973 2
  22049239.745     -287392.233 6   -149250.408 1
  23578176.558      136834.864 6     71400.128 1
  24438001.386     -289033.547 5   -149983.550 1
 90 10 15 11 12 29.9990000  0  5 02 18 06 11 15
  20657241.683     -122744.123 7    -81833.356 3
  21602507.878      169851.798 7    113667.865 2
  22040133.956     -335237.678 6   -186532.587 1
  23582583.167      159995.448 6     89447.328 1
  24428871.737     -337017.104 5   -187373.312 1
 90 10 15 11 12 44.9990000  0  5 02 18 06 11 15
  20653952.011     -140025.588 7    -95299.431 3
  21607196.354      194494.502 7    132869.967 2
  22031033.237     -383065.713 6
  23587011.128      183258.097 6    107574.042 1
  24419752.526     -384944.205 5
 90 10 15 11 12 59.9990000  0  5 02 18 06 11 15
  20650675.987     -157247.552 7   -108719.142 3
  21611902.534      219226.861 7    152141.931 2
  22021933.690     -430881.151 6
  23591456.269      206617.547 6    125776.215 1
  24410640.237     -432819.198 5
 90 10 15 11 13 14.9990000  0  5 02 18 06 11 15
  20647411.214     -174407.049 7   -122090.180 3
  21616625.237      244051.812 7    171486.043 2
  22012837.487     -478680.563 6
  23595922.495      230076.531 6    144055.931 1
  24401541.823     -480638.631 5
 90 10 15 11 13 29.9990000  0  5 02 18 06 11 15
  20644157.151     -191501.868 7   -135410.813 3
  21621368.222      268971.235 7    190903.752 2
  22003745.612     -526461.761 6
  23600406.573      253636.879 6    162414.635 1
  24392452.667     -528399.781 5
 90 10 15 11 13 44.9990000  0  5 02 18 06 11 15
  20640917.729     -208529.915 7   -148679.427 3
  21626128.769      293986.850 7    210396.428 2
  21994656.159     -574222.288 6
  23604909.675      277300.559 6    180853.865 1
  24383372.940     -576099.992 5
 90 10 15 11 13 59.9990000  0  5 02 18 06 11 15
  20637687.901     -225501.048 7   -161903.675 3
  21630905.948      319089.021 7    229956.551 2
  21985571.237     -621971.636 6   -409961.626 1
  23609429.526      301057.519 6    199365.761 1
  24374307.878     -623748.784 5   -280256.404 1
 90 10 15 11 14 14.9990000  0  5 02 18 06 11 15
  20634470.558     -242411.316 7   -175080.507 3
  21635700.972      344281.180 7    249586.792 2
  21976487.229     -669705.696 6   -447157.012 1
  23613967.417      324911.373 6    217953.154 1
  24365250.894     -671341.806 5   -317341.842 1
 90 10 15 11 14 29.9990000  0  5 02 18 06 11 15
  20631265.331     -259254.269 7   -188204.881 3
  21640513.026      369569.536 7    269291.997 2
  21967408.245     -717417.696 6   -484335.192 1
  23618524.284      348868.303 6    236620.877 1
  24356201.667     -718871.769 5   -354378.155 1
 90 10 15 11 14 44.9990000  0  5 02 18 06 11 15
  20628071.909     -276034.908 7   -201280.701 3
  21645342.487      394948.943 7    289068.158 2
  21958332.558     -765112.494 6   -521499.960 1
  23623102.659      372923.074 6    255364.835 1
  24347169.433     -766343.716 5   -391369.255 1
 90 10 15 11 14 59.9990000  0  5 02 18 06 11 15
  20624888.917     -292758.270 7   -214311.892 3
  21650187.964      420414.198 7    308911.217 2
  21949258.472     -812794.936 6   -558655.087 1
  23627698.269      397070.379 6    274180.910 1
  24338148.425     -813762.174 5   -428318.679 1
 90 10 15 11 15 14.9990000  0  5 02 18 06 11 15
  20621718.659     -309418.352 7   -227293.776 3
  21655049.456      445970.829 7    328825.463 2
  21940187.495     -860458.697 6   -595795.660 1
  23632313.284      421315.992 6    293073.583 1
  24329132.831     -861120.923 5
 90 10 15 11 15 29.9990000  0  5 02 18 06 11 15
  20618561.120     -326014.612 7   -240225.928 3
  21659930.636      471619.146 7    348811.155 2
  21931121.339     -908103.053 6   -632921.114 1
  23636946.831      445660.070 6    312042.992 1
  24320135.120     -908418.535 5
 90 10 15 11 15 44.9990000  0  5 02 18 06 11 15
  20615414.503     -342548.257 7   -253109.289 3
  21664829.206      497358.016 7    368867.412 2
  21922057.370     -955728.937 6   -670032.181 1
  23641596.409      470101.162 6    331087.975 1
  24311149.589     -955655.605 5        -0.41611
 90 10 15 11 15 59.9990000  0  5 02 18 06 11 15
  20612280.167     -359018.267 7   -265943.062 3
  21669745.425      523188.231 7    388994.854 2
  21912999.745    -1003335.043 6   -707127.844 1
  23646265.464      494640.195 6    350209.295 1
  24302171.003    -1002830.726 5    -36760.221 1
 90 10 15 11 16 14.9990000  0  5 02 18 06 11 15
  20609157.628     -375427.154 7   -278729.205 3
  21674676.886      549107.112 7    409191.384 2
  21903943.511    -1050923.496 6   -744209.758 1
  23650951.581      519274.493 6    369404.837 1
  24293204.479    -1049945.702 5    -73473.178 1
 90 10 15 11 16 29.9990000  0  5 02 18 06 11 15
  20606046.698     -391774.976 7   -291467.769 3
  21679625.167      575114.061 7    429456.533 2
  21894889.745    -1098494.141 6   -781277.798 1
  23655658.190      544003.671 6    388674.323 1
  24284251.925    -1097000.579 5   -110139.291 1
 90 10 15 11 16 44.9990000  0  5 02 18 06 11 15
  20602947.581     -408064.020 7   -304160.529 3
  21684590.433      601206.655 7    449788.420 2
  21885841.683    -1146049.144 6   -818333.642 1
  23660384.308      568825.029 6    408015.623 1
  24275309.901    -1143997.119 5   -146759.940 1
 90 10 15 11 16 59.9990000  0  5 02 18 06 11 15
  20599859.581     -424290.106 7   -316804.235 3
  21689573.401      627388.793 7    470190.078 2
  21876796.878    -1193583.925 6   -855373.724 1
  23665126.081      593742.592 6    427431.903 1
  24266375.495    -1190930.627 5   -183331.490 1
 90 10 15 11 17 14.9990000  0  5 02 18 06 11 15
  20596783.831     -440453.550 7   -329399.127 3
  21694572.675      653660.071 7    490661.200 2
  21867754.456    -1241098.559 6   -892398.117 1
  23669884.128      618755.755 6    446922.656 1
  24257457.620    -1237801.002 5   -219853.835 1
 90 10 15 11 17 29.9990000  0  5 02 18 06 11 15
  20593719.940     -456554.187 7   -341945.076 3
  21699589.261      680020.355 7    511201.668 2
  21858717.136    -1288592.650 6   -929406.496 1
  23674661.323      643864.487 6    466487.895 1
  24248546.425    -1284607.571 5   -256326.464 1
 90 10 15 11 17 44.9990000  0  6 02 18 06 11 15 13
  20590667.136     -472596.260 7   -354445.389 3
  21704619.495      706465.203 7    531808.034 2
  21849682.089    -1336070.332 6   -966402.093 1
  23679457.261      669064.199 6    486124.020 1
  24239652.925    -1331354.072 5   -292752.287 1
  24433718.839          -0.30415
 90 10 15 11 17 59.9990000  0  6 02 18 06 11 15 13
  20587625.972     -488578.622 7   -366899.177 3
  21709669.019      732995.520 7    552481.001 2
  21840651.573    -1383529.974 6  -1003383.629 1
  23684270.878      694355.889 6    505831.801 1
  24230771.386    -1378038.843 5   -329130.003 1
  24419067.292      -76997.204 5
 90 10 15 11 18 14.9990000  0  6 02 18 06 11 15 13
  20584596.175     -504498.136 7   -379303.991 3
  21714733.440      759614.189 7    573222.812 2
  21831622.933    -1430968.222 6  -1040348.502 1
  23689102.495      719742.280 6    525613.395 1
  24221901.050    -1424658.167 5   -365456.739 1
  24404416.792     -153979.599 5
 90 10 15 11 18 29.9990000  0  6 02 18 06 11 15 13
  20581579.112     -520356.590 7   -391661.231 3
  21719815.933      786319.256 7    594031.947 2
  21822599.917    -1478386.678 6  -1077297.942 1
  23693951.980      745221.539 6    545467.346 1
  24213037.331    -1471213.562 5   -401733.640 1
  24389768.675     -230948.358 5
 90 10 15 11 18 44.9990000  0  6 02 18 06 11 15 13
  20578572.581     -536152.836 7   -403969.990 3
  21724916.706      813111.477 7    614908.997 2
  21813582.229    -1525783.950 6  -1114230.874 2
  23698815.839      770794.286 6    565394.161 1
  24204195.972    -1517703.361 5   -437959.430 1
  24375126.761     -307902.444 5
 90 10 15 11 18 59.9990000  0  6 02 18 06 11 15 13
  20575578.573     -551890.930 7   -416233.435 3
  21730029.253      839986.435 7    635850.524 2
  21804564.620    -1573163.913 6  -1151150.319 1
  23703699.229      796456.247 6    585390.483 1
  24195363.878    -1564131.023 5   -474136.827 1
  24360483.120     -384844.982 4
 90 10 15 11 19 14.9990000  0  6 02 18 06 11 15 13
  20572594.737     -567569.097 7   -428450.187 3
  21735159.175      866945.762 7    656857.783 2
  21795551.120    -1620524.377 6  -1188054.566 1
  23708602.487      822209.079 6    605457.618 1
  24186534.487    -1610494.637 5   -510264.284 1
  24345844.651     -461773.702 4
 90 10 15 11 19 29.9990000  0  6 02 18 06 11 15 13
  20569621.401     -583187.729 7   -440620.543 3
  21740306.151      893989.113 7    677930.514 2
  21786542.940    -1667865.382 6  -1224943.652 2
  23713519.706      848052.125 6    625595.045 1
  24177727.011    -1656793.867 5   -546341.578 1
  24331204.347     -538688.677 3        -0.21111
 90 10 15 11 19 44.9990000  0  6 02 18 06 11 15 13
  20566661.222     -598748.008 7   -452745.437 3
  21745467.894      921115.379 7    699067.856 2
  21777537.847    -1715187.735 6  -1261818.211 2
  23718452.612      873984.219 6    645801.848 1
  24168929.784    -1703029.474 5   -582369.304 1
  24316571.151     -615590.510 4    -59923.664 1
 90 10 15 11 19 59.9990000  0  6 02 18 06 11 15 13
  20563712.433     -614247.284 7   -464822.797 3
  21750646.198      948326.377 7    720271.226 2
  21768538.323    -1762488.701 6  -1298676.105 2
  23723404.050      900007.504 6    666079.721 1
  24160143.401    -1749198.241 5   -618344.937 1
  24301941.206     -692476.125 3   -119834.536 1
 90 10 15 11 20 14.9990000  0  6 02 18 06 11 15 13
  20560774.003     -629686.541 7   -476853.383 3
  21755839.808      975620.811 7    741539.613 2
  21759540.448    -1809768.980 6  -1335517.882 2
  23728374.269      926120.649 6    686427.622 1
  24151363.722    -1795301.042 5   -654269.187 1
  24287313.190     -769345.976 3   -179733.077 1
 90 10 15 11 20 29.9990000  0  6 02 18 06 11 15 13
  20557847.526     -645066.538 7   -488837.792 3
  21761049.019     1002997.620 7    762872.180 2
  21750547.253    -1857029.319 6  -1372344.127 2
  23733361.425      952322.489 6    706844.622 1
  24142606.128    -1841337.951 5   -690142.064 1
  24272686.331     -846200.796 3   -239619.916 1
 90 10 15 11 20 44.9990000  0  6 02 18 06 11 15 13
  20554931.776     -660384.400 7   -500773.792 3
  21766276.058     1030459.806 7    784271.279 2
  21741556.644    -1904266.211 6  -1409152.093 2
  23738365.331      978615.903 6    727332.983 1
  24133860.597    -1887305.423 5   -725960.861 1
  24258070.870     -923036.906 3   -299492.230 1
 90 10 15 11 20 59.9990000  0  6 02 18 06 11 15 13
  20552029.237     -675639.886 7   -512661.187 3
  21771518.323     1058007.135 7    805736.720 2
  21732573.862    -1951479.347 6  -1445941.548 2
  23743384.144     1005000.861 6    747892.692 1
  24125126.245    -1933203.118 5   -761725.269 1
  24243455.050     -999853.608 3   -359349.351 1
 90 10 15 11 21 14.9990000  0  6 02 18 06 11 15 13
  20549136.940     -690837.386 7   -524503.396 3
  21776773.495     1085634.918 7    827264.851 2
  21723592.378    -1998672.820 6  -1482715.690 2
  23748421.995     1031472.640 6    768520.049 1
  24116406.909    -1979034.820 5   -797438.269 1
  24228834.862    -1076654.849 3   -419194.470 1
 90 10 15 11 21 29.9990000  0  6 02 18 06 11 15 13
  20546256.690     -705977.822 7   -536301.141 3
  21782047.769     1113342.124 7    848854.869 2
  21714616.151    -2045847.466 6  -1519475.148 2
  23753476.362     1058029.916 6    789214.011 1
  24107695.581    -2024801.191 5   -833100.360 1
  24214223.175    -1153441.409 4   -479028.092 1
 90 10 15 11 21 44.9990000  0  6 02 18 06 11 15 13
  20543385.972     -721059.800 7   -548053.329 3
  21787335.659     1141129.798 7    870507.593 2
  21705643.784    -2093001.406 6  -1556218.462 2
  23758546.214     1084673.834 6    809975.498 1
  24098996.636    -2070500.423 5   -868710.116 1
  24199615.073    -1230211.214 3   -538848.742 1
 90 10 15 11 21 59.9990000  0  6 02 18 06 11 15 13
  20540527.237     -736079.752 7   -559757.188 3
  21792638.792     1169001.486 7    892225.777 2
  21696674.378    -2140130.686 6  -1592942.555 2
  23763632.901     1111407.819 5    830807.172 1
  24090316.714    -2116128.097 5   -904264.165 1
  24185007.089    -1306960.007 3   -598652.941 1
 90 10 15 11 22 14.9990000  0  6 02 18 06 11 15 13
  20537680.386     -751043.785 7   -571417.468 3
  21797958.214     1196950.722 7    914004.392 2
  21687710.456    -2187241.299 6  -1629652.094 2
  23768736.323     1138225.566 5    851704.101 1
  24081648.870    -2161689.889 5   -939766.825 1
  24170405.448    -1383693.546 4   -658445.281 1
 90 10 15 11 22 29.9990000  0  6 02 18 06 11 15 13
  20534844.706     -765946.526 7   -583029.993 3
  21803291.550     1224982.955 7    935847.683 2
  21678748.175    -2234327.578 6  -1666342.706 2
  23773855.878     1165132.153 5    872670.231 1
  24072990.839    -2207180.037 5   -975213.675 1
  24155812.433    -1460405.986 4   -718221.201 1
 90 10 15 11 22 44.9990000  0  6 02 18 06 11 15 13
  20532020.269     -780791.067 7   -594597.164 3
  21808642.597     1253094.696 7    957752.924 2
  21669793.253    -2281392.293 6  -1703016.510 2
  23778993.558     1192124.275 6    893703.040 1
  24064351.440    -2252601.057 5  -1010606.675 1
  24141219.511    -1537099.892 5   -777982.635 1
 90 10 15 11 22 59.9990000  0  6 02 18 06 11 15 13
  20529206.925     -795574.777 7   -606116.941 3
  21814007.354     1281288.054 7    979721.771 2
  21660841.190    -2328432.667 6  -1739671.346 2
  23784145.167     1219204.192 5    914804.259 1
  24055715.526    -2297950.008 5  -1045943.480 1
  24126628.573    -1613772.310 5   -837727.384 1
 90 10 15 11 23 14.9990000  0  6 02 18 06 11 15 13
  20526404.964     -810297.786 7   -617589.419 3
  21819386.714     1309562.623 7   1001753.889 2
  21651894.331    -2375448.559 6  -1776307.109 2
  23789316.019     1246371.493 5    935973.583 1
  24047099.878    -2343226.699 5  -1081224.007 1
  24112038.565    -1690422.883 5   -897455.104 1
 90 10 15 11 23 29.9990000  0  6 02 18 06 11 15 13
  20523614.511     -824961.416 7   -629015.624 3
  21824782.862     1337916.971 7   1023848.179 2
  21642951.019    -2422440.882 6  -1812924.498 2
  23794503.136     1273624.606 5    957209.755 1
  24038502.589    -2388431.684 5  -1116448.648 1
  24097458.987    -1767052.486 5   -957166.445 1
 90 10 15 11 23 44.9990000  0  6 02 18 06 11 15 13
  20520834.972     -839566.760 7   -640396.411 3
  21830194.026     1366349.680 7   1046003.528 2
  21634013.831    -2469410.636 6  -1849524.297 2
  23799703.729     1300962.035 5    978511.627 1
  24029906.480    -2433566.103 5  -1151618.307 1
  24082878.886    -1843661.790 5  -1016861.995 1
 90 10 15 11 23 59.9990000  0  6 02 18 06 11 15 13
  20518065.448     -854117.893 7   -651734.961 3
  21835615.925     1394856.380 7   1068216.535 2
  21625079.651    -2516361.569 6  -1886109.433 2
  23804922.542     1328379.411 6    999875.807 1
  24021335.394    -2478633.373 5  -1186735.639 1
  24068305.800    -1920254.289 5  -1076544.446 1
 90 10 15 11 24 14.9990000  0  6 02 18 06 11 15 13
  20515309.190     -868607.950 7   -663025.910 3
  21841058.058     1423443.898 7   1090492.516 2
  21616149.714    -2563286.312 6  -1922674.173 2
  23810155.573     1355883.581 5   1021307.603 1
  24012771.440    -2523626.049 5  -1221794.850 1
  24053733.964    -1996822.550 5  -1136208.018 1
 90 10 15 11 24 29.9990000  0  6 02 18 06 11 15 13
  20512562.761     -883038.153 7   -674270.231 3
  21846514.347     1452111.012 7   1112830.530 2
  21607227.159    -2610185.679 6  -1959219.125 2
  23815405.706     1383473.244 6   1042806.035 1
  24004223.995    -2568544.458 5  -1256796.207 1
  24039167.628    -2073367.231 5  -1195853.215 1
 90 10 15 11 24 44.9990000  0  6 02 18 06 11 15 13
  20509827.620     -897407.796 7   -685467.361 3
  21851984.261     1480857.638 7   1135230.497 2
  21598306.097    -2657059.145 6  -1995743.901 2
  23820670.956     1411148.539 5   1064371.196 1
  23995692.339    -2613388.270 5  -1291739.398 1
  24024608.050    -2149887.520 5  -1255479.408 1
 90 10 15 11 24 59.9990000  0  6 02 18 06 11 15 13
  20507105.362     -911717.936 7   -696618.110 3
  21857466.565     1509682.649 7   1157691.529 2
  21589391.089    -2703907.269 6  -2032248.915 2
  23825954.862     1438908.219 5   1086002.096 1
  23987170.409    -2658157.723 5  -1326624.674 1
  24010051.495    -2226383.747 5  -1315086.837 1
 90 10 15 11 25 14.9990000  0  6 02 18 06 11 15 13
  20504393.222     -925968.356 7   -707722.333 3
  21862969.948     1538586.295 7   1180213.842 2
  21580481.519    -2750729.498 6  -2068733.755 2
  23831253.065     1466752.280 5   1107698.754 1
  23978666.034    -2702852.147 5  -1361451.495 1
  23995498.698    -2302855.315 5  -1374675.022 1
 90 10 15 11 25 29.9990000  0  6 02 18 06 11 15 13
  20501692.714     -940163.277 7   -718783.306 3
  21868484.370     1567564.007 7   1202793.867 2
  21571575.097    -2797529.756 6  -2105201.479 2
  23836565.097     1494676.140 5   1129457.587 1
  23970174.683    -2747475.225 5  -1396222.703 1
  23980950.417    -2379305.959 5  -1434246.969 1
 90 10 15 11 25 44.9990000  0  6 02 18 06 11 15 13
  20499002.737     -954299.069 7   -729798.214 3
  21874010.847     1596618.854 7   1225433.996 2
  21562673.479    -2844304.311 6  -2141649.174 2
  23841897.175     1522683.051 6   1151281.157 1
  23961698.456    -2792022.947 5  -1430935.201 1
  23966403.034    -2455731.751 5  -1493799.521 1
 90 10 15 11 25 59.9990000  0  6 02 18 06 11 15 13
  20496323.206     -968374.918 7   -740766.410 3
  21879556.425     1625751.656 7   1248134.878 1
  21553779.214    -2891051.997 6  -2178075.935 2
  23847243.042     1550773.750 5   1173170.004 1
  23953233.823    -2836493.999 5  -1465587.934 1
  23951869.503    -2532131.118 5  -1553331.509 1
 90 10 15 11 26 14.9990000  0  6 02 18 06 11 15 13
  20493656.073     -982392.110 7   -751688.898 3
  21885113.183     1654960.959 7   1270895.365 1
  21544888.394    -2937773.855 6  -2214482.569 2
  23852600.940     1578946.557 5   1195122.839 1
  23944787.792    -2880889.162 5  -1500181.570 1
  23937335.230    -2608505.158 5  -1612843.683 1
 90 10 15 11 26 29.9990000  0  6 02 18 06 11 15 13
  20491000.175     -996353.134 7   -762567.615 3
  21890686.026     1684243.546 7   1293712.956 2
  21536001.190    -2984472.193 6  -2250870.874 2
  23857978.925     1607198.613 6   1217137.401 1
  23936350.315    -2925210.886 5  -1534717.949 1
  23922807.565    -2684855.892 5  -1672337.786 1
 90 10 15 11 26 44.9990000  0  6 02 18 06 11 15 13
  20488353.480    -1010257.237 7   -773401.976 3
  21896274.034     1713600.140 7   1316588.217 1
  21527120.112    -3031145.829 6  -2287239.940 2
  23863371.565     1635530.506 5   1239214.189 1
  23927935.370    -2969457.668 5  -1569195.939 1
  23908283.511    -2761182.258 5  -1731812.844 1
 90 10 15 11 26 59.9990000  0  6 02 18 06 11 15 13
  20485718.925    -1024103.828 7   -784191.528 3
  21901873.112     1743031.152 7   1339521.468 2
  21518243.901    -3077794.088 6  -2323589.223 2
  23868776.347     1663942.533 6   1261353.442 1
  23919526.870    -3013628.506 5  -1603614.753 1
  23893760.558    -2837482.955 5  -1791267.933 1
 90 10 15 11 27 14.9990000  0  6 02 18 06 11 15 13
  20483094.831    -1037890.587 7   -794934.459 3
  21907487.089     1772538.549 7   1362514.232 2
  21509372.401    -3124414.209 6  -2359916.585 2
  23874200.386     1692436.736 5   1283556.700 1
  23911134.573    -3057720.670 5  -1637972.270 1
  23879248.386    -2913755.111 5  -1850700.774 1
 90 10 15 11 27 29.9990000  0  6 02 18 06 11 15 13
  20480482.995    -1051619.419 7   -805632.248 3
  21913118.464     1802120.359 7   1385564.992 2
  21500504.667    -3171007.764 6  -2396223.247 2
  23879637.722     1721011.150 5   1305822.459 1
  23902759.933    -3101735.362 5  -1672269.406 1
  23864739.300    -2990000.170 5  -1910112.501 1
 90 10 15 11 27 44.9990000  0  6 02 18 06 11 15 13
  20477881.464    -1065288.367 7   -816283.374 3
  21918762.854     1831778.182 7   1408674.979 1
  21491644.370    -3217572.578 6  -2432507.520 2
  23885089.394     1749667.343 5   1328151.947 1
  23894400.472    -3145670.358 5  -1706504.446 1
  23850234.175    -3066215.802 5  -1969501.287 1
 90 10 15 11 27 59.9990000  0  6 02 18 06 11 15 13
  20475291.558    -1078898.497 7   -826888.672 3
  21924419.597     1861510.864 7   1431843.296 1
  21482787.886    -3264109.313 6  -2468769.912 2
  23890558.378     1778404.000 5   1350544.138 1
  23886055.112    -3189525.941 5  -1740677.613 1
  23835739.159    -3142402.629 5  -2028867.649 1
 90 10 15 11 28 14.9990000  0  6 02 18 06 11 15 13
  20472713.636    -1092450.424 7   -837448.618 3
  21930090.284     1891317.531 6   1455069.266 2
  21473937.823    -3310618.203 6  -2505010.604 2
  23896041.792     1807220.366 5   1372998.431 1
  23877721.151    -3233302.678 5  -1774789.318 1
  23821244.698    -3218560.674 5  -2088211.557 1
 90 10 15 11 28 29.9990000  0  6 02 18 06 11 15 13
  20470144.558    -1105943.057 7   -847962.351 3
  21935776.831     1921198.538 6   1478353.166 1
  21465093.565    -3357098.124 6  -2541228.721 2
  23901537.940     1836116.998 5   1395515.310 1
  23869410.995    -3276999.204 5  -1808838.543 1
  23806756.675    -3294688.572 5  -2147531.981 1
 90 10 15 11 28 44.9990000  0  6 02 18 06 11 15 13
  20467588.808    -1119378.364 7   -858431.420 3
  21941476.362     1951152.094 6   1501693.592 1
  21456252.464    -3403550.735 6  -2577425.552 2
  23907056.354     1865091.550 5   1418092.853 1
  23861110.886    -3320616.907 5  -1842826.360 1
  23792278.136    -3370787.977 5  -2206830.202 1
 90 10 15 11 28 59.9990000  0  6 02 18 06 11 15 13
  20465042.167    -1132762.047 7   -868860.272 3
  21947191.409     1981172.170 6   1525085.849 1
  21447417.972    -3449981.497 6  -2613605.359 2
  23912582.003     1894138.121 5   1440726.550 1
  23852823.487    -3364161.201 5  -1876756.952 1
  23777799.980    -3446864.055 5  -2266110.255 1
 90 10 15 11 29 14.9990000  0  6 02 18 06 11 15 13
  20462506.378    -1146085.292 7   -879242.020 3
  21952917.769     2011266.975 6   1548536.341 1
  21438587.573    -3496381.600 6  -2649761.284 2
  23918126.183     1923265.060 5   1463422.872 1
  23844552.761    -3407622.940 5  -1910623.226 1
  23763328.222    -3522907.530 5  -2325364.911 1
 90 10 15 11 29 29.9990000  0  6 02 18 06 11 15 13
  20459981.620    -1159353.180 7   -889580.639 3
  21958655.761     2041431.590 6   1572041.231 1
  21429763.995    -3542755.291 6  -2685896.617 2
  23923683.417     1952467.426 5   1486177.938 1
  23836297.331    -3451006.206 5  -1944428.359 1
  23748866.347    -3598922.778 5  -2384597.515 1
 90 10 15 11 29 44.9990000  0  6 02 18 06 11 15 13
  20457467.519    -1172563.922 7   -899874.728 3
  21964411.565     2071667.584 6   1595601.739 1
  21420944.565    -3589100.353 6  -2722009.647 2
  23929253.323     1981746.817 5   1508993.061 1
  23828058.026    -3494308.621 5  -1978170.469 1
  23734405.690    -3674907.283 5  -2443806.216 1
 90 10 15 11 29 59.9990000  0  6 02 18 06 11 15 13
  20454965.620    -1185715.551 7   -910122.751 3
  21970177.651     2101976.524 6   1619219.091 1
  21412131.081    -3635414.853 6  -2758098.861 2
  23934839.886     2011104.694 5   1531869.322 1
  23819831.362    -3537528.037 5  -2011847.920 1
  23719954.433    -3750858.869 5  -2502989.260 1
 90 10 15 11 30 14.9990000  0  6 02 18 06 11 15 13
  20452473.175    -1198809.774 7   -920326.043 3
  21975960.581     2132356.643 6   1642891.900 1
  21403323.409    -3681700.166 6  -2794165.333 2
  23940440.354     2040539.057 5   1554805.164 1
  23811622.511    -3580665.534 5  -2045461.534 1
  23705505.558    -3826778.889 5  -2562147.696 1
 90 10 15 11 30 29.9990000  0  6 02 18 06 11 15 13
  20449992.573    -1211847.746 7   -930485.501 3
  21981755.253     2162806.371 6   1666618.952 1
  21394520.862    -3727957.260 6  -2830209.822 2
  23946056.292     2070048.426 5   1577799.465 1
  23803430.167    -3623722.393 5  -2079012.311 1
  23691062.495    -3902668.021 5  -2621282.053 1
 90 10 15 11 30 44.9990000  0  6 02 18 06 11 15 13
  20447522.815    -1224828.536 7   -940600.401 3
  21987560.011     2193326.225 6   1690400.654 1
  21385724.636    -3774184.866 6  -2866231.334 2
  23951687.597     2099633.641 5   1600852.871 1
  23795252.339    -3666697.380 5  -2112499.287 1
  23676630.354    -3978524.882 5  -2680391.310 1
 90 10 15 11 30 59.9990000  0  6 02 18 06 11 15 13
  20445063.433    -1237752.753 7   -950671.217 3
  21993381.269     2223915.486 6   1714236.434 1
  21376933.440    -3820383.160 6  -2902230.002 2
  23957329.440     2129293.667 5   1623964.570 1
  23787094.089    -3709590.046 5  -2145922.127 1
  23662200.972    -4054349.718 5  -2739475.573 1
 90 10 15 11 31 14.9990000  0  6 02 18 06 11 15 13
  20442613.706    -1250622.180 7   -960699.345 3
  21999215.167     2254571.790 6   1738124.456 1
  21368147.495    -3866553.969 6  -2938207.255 2
  23962991.245     2159026.487 5   1647133.001 1
  23778944.081    -3752401.925 5  -2179282.013 1
  23647780.269    -4130143.937 5  -2798535.963 1
 90 10 15 11 31 29.9990000  0  6 02 18 06 11 15 13
  20440176.323    -1263433.474 7   -970682.175 3
  22005065.331     2285298.369 6   1762067.241 1
  21359366.237    -3912693.546 6  -2974160.163 2
  23968662.276     2188835.095 5   1670360.453 1
  23770811.558    -3795129.084 5  -2212575.880 1
  23633362.175    -4205903.381 5  -2857569.293 1
 90 10 15 11 31 44.9990000  0  6 02 18 06 11 15 13
  20437748.237    -1276187.634 7   -980620.482 3
  22010923.612     2316094.183 6   1786063.968 1
  21350592.526    -3958802.292 6  -3010089.054 2
  23974346.229     2218718.385 5   1693646.110 1
  23762698.573    -3837772.233 5  -2245804.293 1
  23618951.495    -4281628.648 5  -2916575.949 1
 90 10 15 11 31 59.9990000  0  6 02 18 06 11 15 13
  20435331.854    -1288887.318 7   -990516.341 3
  22016797.183     2346956.197 6   1810112.277 1
  21341823.558    -4004882.852 6  -3045995.981 2
  23980049.073     2248673.277 5   1716987.554 1
  23754601.347    -3880333.844 5  -2278969.164 1
  23604544.362    -4357322.141 5  -2975557.882 1
 90 10 15 11 32 14.9990000  0  6 02 18 06 11 15 13
  20432926.558    -1301530.941 7  -1000368.519 3
  22022682.972     2377885.789 6   1834213.256 1
  21333060.167    -4050933.260 6  -3081879.410 2
  23985762.784     2278701.189 5   1740385.900 1
  23746513.331    -3922811.465 5  -2312068.595 1
  23590147.784    -4432981.734 5  -3034513.411 1
 90 10 15 11 32 29.9990000  0  6 02 18 06 11 15 13
  20430531.292    -1314116.998 7  -1010175.838 3
  22028580.651     2408884.088 6   1858367.766 1
  21324304.073    -4096951.614 6  -3117737.870 2
  23991492.792     2308803.279 5   1763842.043 1
  23738446.128    -3965203.438 5  -2345101.284 1
  23575759.612    -4508605.468 5  -3093440.965 1
 90 10 15 11 32 44.9990000  0  6 02 18 06 11 15 13
  20428146.917    -1326647.048 7  -1019939.515 3
  22034492.175     2439949.243 6   1882574.363 1
  21315552.948    -4142939.324 6  -3153572.449 2
  23997232.284     2338977.725 5   1787354.587 1
  23730397.690    -4007510.878 5  -2378068.106 1
  23561374.917    -4584194.281 5  -3152341.322 1
 90 10 15 11 32 59.9990000  0  6 02 18 06 11 15 13
  20425772.761    -1339120.490 7  -1029659.082 3
  22040417.815     2471081.812 6   1906833.503 1
  21306808.019    -4188895.382 6  -3189382.362 2
  24002988.136     2369224.952 5   1810923.839 1
  23722360.456    -4049732.287 5  -2410967.889 1
  23546995.925    -4659747.252 5  -3211213.757 1
 90 10 15 11 33 14.9990000  0  6 02 18 06 11 15 13
  20423409.151    -1351541.872 7  -1039338.078 3
  22046352.487     2502276.927 6   1931141.376 1
  21298066.581    -4234824.290 6  -3225171.113 2
  24008757.823     2399539.915 5   1834545.846 1
  23714344.339    -4091872.389 5  -2443804.326 1
  23532622.753    -4735268.478 5  -3270061.449 1
 90 10 15 11 33 29.9990000  0  6 02 18 06 11 15 13
  20421056.386    -1363906.348 7  -1048972.736 3
  22052301.558     2533538.940 6   1955501.367 1
  21289333.159    -4280720.818 6  -3260934.644 2
  24014536.612     2429927.200 5   1858224.220 1
  23706339.550    -4133925.814 5  -2476573.204 1
  23518260.862    -4810752.627 5  -3328880.236 1
 90 10 15 11 33 44.9990000  0  6 02 18 06 11 15 13
  20418713.644    -1376219.066 7  -1058567.064 3
  22058262.472     2564862.759 6   1979909.536 1
  21280605.120    -4326589.577 6  -3296676.537 2
  24020337.987     2460381.600 5   1881954.898 1
  23698355.323    -4175897.027 6  -2509278.031 1
  23503902.362    -4886204.201 5  -3387673.674 1
 90 10 15 11 33 59.9990000  0  6 02 18 06 11 15 13
  20416381.886    -1388472.398 7  -1068115.113 3
  22064236.175     2596255.452 6   2004371.372 1
  21271883.776    -4372422.965 6  -3332390.854 2
  24026141.870     2490910.215 5   1905743.424 1
  23690384.128    -4217778.312 6  -2541912.781 1
  23489553.394    -4961615.642 5  -3446435.810 1
 90 10 15 11 34 14.9990000  0  6 02 18 06 11 15 13
  20414060.784    -1400670.717 7  -1077620.300 3
  22070221.440     2627712.404 6   2028883.274 1
  21263167.433    -4418224.919 6  -3368080.689 2
  24031968.237     2521508.546 5   1929586.258 1
  23682429.940    -4259573.503 6  -2574480.447 1
  23475211.511    -5036990.545 5  -3505169.477 1
 90 10 15 11 34 29.9990000  0  6 02 18 06 11 15 13
  20411749.487    -1412814.370 7  -1087082.888 3
  22076222.831     2659233.298 6   2053445.000 1
  21254457.292    -4463995.349 6  -3403745.962 2
  24037801.714     2552176.058 5   1953483.014 1
  23674493.839    -4301282.335 6  -2606980.820 1
  23460874.112    -5112328.485 5  -3563874.353 1
 90 10 15 11 34 44.9990000  0  6 02 18 06 11 15 13
  20409449.933    -1424900.077 7  -1096500.319 3
  22082229.831     2690820.901 6   2078058.708 1
  21245755.456    -4509730.876 6  -3439384.035 2
  24043655.120     2582915.553 5   1977435.840 1
  23666574.769    -4342901.319 6  -2639411.186 1
  23446543.464    -5187626.110 5  -3622547.811 1
 90 10 15 11 34 59.9990000  0  6 02 18 06 11 15 13
  20407160.065    -1436930.612 7  -1105874.764 3
  22088256.675     2722472.282 6   2102722.114 1
  21237056.870    -4555433.909 7  -3474996.782 2
  24049515.276     2613723.997 5   2001442.409 1
  23658673.503    -4384432.622 6  -2671773.232 1
  23432222.331    -5262885.717 5  -3681191.648 1
 90 10 15 11 35 14.9980000  0  6 02 18 06 11 15 13
  20404880.959    -1448907.942 7  -1115207.748 3
  22094291.248     2754182.123 6   2127431.075 1
  21228366.240    -4601103.783 6  -3510583.689 2
  24055386.154     2644596.574 5   2025498.981 1
  23650786.811    -4425875.810 5  -2704066.601 1
  23417910.264    -5338104.362 5  -3739803.572 1
 90 10 15 11 35 29.9980000  0  6 02 18 06 11 15 13
  20402613.553    -1460826.248 7  -1124494.740 3
  22100334.897     2785961.831 6   2152194.477 1
  21219682.740    -4646738.898 6  -3546143.517 2
  24061278.967     2675544.425 5   2049614.168 1
  23642916.217    -4467228.360 6  -2736289.346 1
  23403603.209    -5413284.244 5  -3798385.268 1
 90 10 15 11 35 44.9980000  0  6 02 18 06 11 15 13
  20400355.537    -1472689.585 7  -1133738.906 3
  22106392.225     2817804.214 6   2177006.719 1
  21211005.404    -4692340.931 7  -3581677.564 2
  24067180.826     2706560.156 5   2073782.236 1
  23635063.404    -4508492.155 5  -2768442.944 1
  23389304.420    -5488424.917 5  -3856936.428 1
 90 10 15 11 35 59.9980000  0  6 02 18 06 11 15 13
  20398108.139    -1484501.290 7  -1142942.831 3
  22112467.654     2849705.895 6   2201865.166 1
  21202334.232    -4737912.726 7  -3617188.057 2
  24073096.209     2737640.243 5   2098000.472 1
  23627228.842    -4549670.237 6  -2800529.747 1
  23375010.756    -5563529.383 5  -3915459.377 1
 90 10 15 11 36 14.9980000  0  6 02 18 06 11 15 13
  20395870.865    -1496256.457 7  -1152102.703 3
  22118549.100     2881671.280 6   2226773.252 1
  21193668.584    -4783449.105 7  -3652670.942 2
  24079021.553     2768789.387 5   2122272.561 1
  23619408.084    -4590757.394 6  -2832545.696 1
  23360725.897    -5638592.140 5  -3973949.832 1
 90 10 15 11 36 29.9980000  0  6 02 18 06 11 15 13
  20393643.373    -1507961.572 7  -1161223.573 3
  22124642.139     2913693.490 6   2251725.618 1
  21185008.600    -4828956.279 7  -3688131.069 2
  24084963.154     2800000.700 5   2146593.069 1
  23611608.029    -4631759.439 6  -2864495.320 1
  23346452.350    -5713619.318 5  -4032412.549 1
 90 10 15 11 36 44.9980000  0  6 02 18 06 11 15 13
  20391428.467    -1519608.138 7  -1170298.819 3
  22130749.396     2945780.702 6   2276728.627 1
  21176354.873    -4874425.685 7  -3723561.776 2
  24090914.764     2831282.325 5   2170968.358 1
  23603823.076    -4672667.445 6  -2896371.683 1
  23332183.045    -5788601.892 5  -4090840.489 1
 90 10 15 11 36 59.9980000  0  6 02 18 06 11 15 13
  20389222.592    -1531199.102 7  -1179330.736 3
  22136869.412     2977929.707 6   2301779.794 1
  21167709.912    -4919859.792 7  -3758964.970 2
  24096882.225     2862630.912 5   2195395.848 1
  23596053.420    -4713484.190 5  -2928176.915 1
  23317921.850    -5863542.449 5  -4149235.728 1
 90 10 15 11 37 14.9980000  0  6 02 18 06 11 15 13
  20387026.061    -1542737.575 7  -1188321.755 3
  22142995.311     3010137.599 6   2326876.847 1
  21159069.287    -4965261.159 7  -3794342.652 2
  24102855.834     2894043.496 5   2219873.189 1
  23588305.592    -4754212.338 6  -2959913.121 1
  23303670.146    -5938443.240 5  -4207599.988 1
 90 10 15 11 37 29.9980000  0  6 02 18 06 11 15 13
  20384841.318    -1554217.927 7  -1197267.485 3
  22149136.803     3042409.516 6   2352023.788 1
  21150436.865    -5010624.181 7  -3829690.454 2
  24108850.467     2925525.363 5   2244404.516 1
  23580574.373    -4794845.370 6  -2991575.201 1
  23289422.342    -6013298.245 5  -4265928.544 1
 90 10 15 11 37 44.9980000  0  6 02 18 06 11 15 13
  20382666.857    -1565643.517 7  -1206170.540 3
  22155290.803     3074741.626 6   2377217.632 1
  21141812.264    -5055951.857 7  -3865010.716 2
  24114850.256     2957072.559 5   2268986.740 1
  23572855.998    -4835386.690 5  -3023165.828 1
  23275187.772    -6088110.549 5  -4324223.809 1
 90 10 15 11 37 59.9980000  0  6 02 18 06 11 15 13
  20380503.701    -1577012.218 7  -1215029.269 3
  22161454.131     3107135.928 6   2402459.935 1
  21133194.139    -5101241.690 7  -3900301.491 2
  24120865.201     2988687.101 5   2293621.421 1
  23565160.701    -4875833.613 6  -3054682.885 1
  23260961.553    -6162877.513 5  -4382483.770 1
 90 10 15 11 38 14.9980000  0  6 02 18 06 11 15 13
  20378350.014    -1588329.676 7  -1223848.068 3
  22167630.537     3139586.220 6   2427745.875 1
  21124581.318    -5146499.126 7  -3935567.016 2
  24126895.014     3020362.929 5   2318303.884 1
  23557481.623    -4916191.642 6  -3086130.683 1
  23246738.818    -6237604.660 5  -4440712.702 1
 90 10 15 11 38 29.9980000  0  6 02 18 06 11 15 13
  20376207.139    -1599591.660 7  -1232623.643 3
  22173816.131     3172096.653 6   2453078.671 1
  21115976.670    -5191719.703 7  -3970803.820 2
  24132936.795     3052103.966 5   2343037.153 1
  23549820.545    -4956455.951 6  -3117505.450 1
  23232529.420    -6312287.151 5  -4498906.829 1
 90 10 15 11 38 44.9980000  0  6 02 18 06 11 15 13
  20374075.389    -1610795.662 7  -1241354.039 3
  22180014.897     3204669.821 6   2478460.351 1
  21107379.154    -5236900.333 7  -4006009.501 2
  24138988.443     3083912.760 5   2367823.211 1
  23542175.412    -4996623.310 6  -3148804.673 1
  23218326.592    -6386921.786 5  -4557063.683 1
 90 10 15 11 38 59.9980000  0  6 02 18 06 11 15 13
  20371953.139    -1621944.043 7  -1250041.094 3
  22186225.131     3237302.660 6   2503888.533 1
  21098788.381    -5282043.095 7  -4041185.681 2
  24145058.006     3115786.612 5   2392659.989 1
  23534550.615    -5036695.909 6  -3180030.063 1
  23204131.287    -6461510.495 5  -4615184.703 1
 90 10 15 11 39 14.9980000  0  6 02 18 06 11 15 13
  20369842.037    -1633037.354 7  -1258685.238 3
  22192442.740     3269994.542 6   2529362.715 1
  21090205.295    -5327148.313 7  -4076332.603 2
  24151131.506     3147724.566 5   2417546.686 1
  23526942.647    -5076673.683 6  -3211181.561 1
  23189947.115    -6536053.496 5  -4673270.169 1
 90 10 15 11 39 29.9980000  0  6 02 18 06 11 15 13
  20367741.967    -1644076.399 7  -1267287.091 3
  22198677.850     3302744.308 6   2554882.011 1
  21081628.381    -5372216.521 7  -4111450.685 2
  24157221.271     3179725.437 5   2442482.409 1
  23519352.943    -5116557.324 6  -3242259.703 1
  23175771.232    -6610551.264 5  -4731320.349 1
 90 10 15 11 39 44.9980000  0  6 02 18 06 11 15 13
  20365652.389    -1655064.034 7  -1275848.886 3
  22204918.373     3335548.878 6   2580444.010 1
  21073059.779    -5417250.241 7  -4146541.894 2
  24163320.100     3211786.200 5   2467464.779 1
  23511782.084    -5156349.179 6  -3273266.334 1
  23161601.318    -6685005.963 5  -4789336.999 1
 90 10 15 11 39 59.9980000  0  6 02 18 06 11 15 13
  20363569.600    -1666001.041 7  -1284371.237 3
  22211172.006     3368407.061 6   2606047.777 1
  21064495.029    -5462250.061 7  -4181606.684 2
  24169434.311     3243905.673 5   2492492.940 1
  23504227.670    -5196049.556 6  -3304201.676 1
  23147438.756    -6759418.007 5  -4847320.394 1
 90 10 15 11 40 14.9980000  0  6 02 18 06 11 15 13
  20361499.022    -1676882.534 7  -1292850.331 3
  22217436.209     3401323.482 6   2631696.926 1
  21055940.272    -5507210.674 7  -4216640.922 2
  24175556.764     3276088.535 5   2517570.494 1
  23496689.256    -5235653.396 6  -3335061.804 1
  23133293.381    -6833781.950 5  -4905266.317 1
 90 10 15 11 40 29.9980000  0  6 02 18 06 11 15 13
  20359437.709    -1687712.708 7  -1301289.436 3
  22223709.975     3434293.943 6   2657388.197 1
  21047391.193    -5552135.922 7  -4251647.602 2
  24181696.076     3308330.247 5   2542693.928 1
  23489174.928    -5275164.307 6  -3365849.503 1
  23119148.904    -6908101.770 5  -4963177.840 1
 90 10 15 11 40 44.9980000  0  6 02 18 06 11 15 13
  20357388.521    -1698485.134 7  -1309683.533 3
  22229994.139     3467324.198 6   2683126.037 1
  21038850.436    -5597019.324 7  -4286621.678 2
  24187840.764     3340636.899 5   2567867.908 1
  23481668.654    -5314575.530 5  -3396559.533 1
  23105018.529    -6982370.522 6  -5021049.581 1
 90 10 15 11 40 59.9980000  0  6 02 18 06 11 15 13
  20355350.084    -1709202.871 7  -1318035.018 3
  22236291.646     3500410.966 6   2708907.931 1
  21030317.092    -5641863.448 7  -4321565.147 2
  24194003.061     3373005.353 5   2593090.076 1
  23474190.404    -5353889.631 6  -3427193.875 1
  23090890.795    -7056590.751 5  -5078883.519 1
 90 10 15 11 41 14.9980000  0  6 02 18 06 11 15 13
  20353318.873    -1719868.019 7  -1326345.521 3
  22242599.170     3533551.882 6   2734732.026 1
  21021790.717    -5686670.009 7  -4356479.356 2
  24200173.725     3405433.203 5   2618358.526 1
  23466727.037    -5393108.289 6  -3457753.851 1
  23076777.920    -7130764.084 5  -5136680.901 1
 90 10 15 11 41 29.9980000  0  7 02 18 06 11 15 13 09
  20351299.318    -1730483.917 7  -1334617.653 3
  22248914.709     3566743.565 6   2760595.658 1
  21013270.279    -5731442.008 7  -4391366.625 2
  24206349.475     3437916.876 5   2643670.479 1
  23459281.147    -5432234.625 6  -3488241.886 1
  23062673.834    -7204893.244 6  -5194443.886 1
  24032828.498          -0.28313
 90 10 15 11 41 44.9980000  0  7 02 18 06 11 15 13 09
  20349288.912    -1741045.669 7  -1342847.591 3
  22255239.795     3599990.524 6   2786502.377 1
  21004757.162    -5776174.268 7  -4426222.928 2
  24212548.459     3470460.927 5   2669029.500 1
  23451855.943    -5471262.756 6  -3518653.406 1
  23048572.850    -7278973.054 6  -5252168.389 1
  24021231.154      -60943.519 3
 90 10 15 11 41 59.9980000  0  7 02 18 06 11 15 13 09
  20347291.068    -1751550.020 7  -1351032.805 3
  22261578.248     3633295.762 6   2812454.499 1
  20996253.811    -5820863.262 7  -4461045.516 2
  24218748.459     3503068.269 5   2694437.794 1
  23444447.982    -5510189.499 6  -3548985.921 1
  23034487.647    -7352999.824 6  -5309851.581 1
  24009635.693     -121893.999 3
 90 10 15 11 42 14.9980000  0  7 02 18 06 11 15 13 09
  20345300.701    -1762003.339 7  -1359178.250 3
  22267926.092     3666652.624 6   2838446.848 1
  20987758.084    -5865515.176 7  -4495839.211 2
  24224966.412     3535732.326 5   2719890.280 1
  23437057.451    -5549020.660 6  -3579243.954 1
  23020411.100    -7426979.311 6  -5367497.918 1
  23998033.459     -182857.778 3
 90 10 15 11 42 29.9980000  0  7 02 18 06 11 15 13 09
  20343321.154    -1772406.880 7  -1367284.906 3
  22274283.256     3700059.545 6   2864478.207 1
  20979267.709    -5910130.960 7  -4530604.755 2
  24231194.779     3568451.405 5   2745385.664 1
  23429685.061    -5587757.626 6  -3609428.588 1
  23006338.381    -7500912.698 6  -5425108.344 1
  23986428.725     -243835.987 4
 90 10 15 11 42 44.9980000  0  7 02 18 06 11 15 13 09
  20341352.404    -1782757.522 7  -1375350.335 3
  22280647.873     3733519.298 6   2890550.731 1
  20970785.607    -5954706.942 7  -4565339.285 2
  24237430.311     3601228.449 4   2770926.185 1
  23422333.646    -5626396.516 6  -3639536.798 1
  22992281.545    -7574796.308 6  -5482679.979 1
  23974823.607     -304825.358 4
 90 10 15 11 42 59.9980000  0  7 02 18 06 11 15 13 09
  20339392.756    -1793053.496 7  -1383373.178 3
  22287030.232     3767033.784 6   2916665.913 1
  20962309.959    -5999241.008 7  -4600041.155 2
  24243679.795     3634065.076 5   2796513.149 1
  23415001.897    -5664934.931 6  -3669566.711 1
  22978231.107    -7648627.496 6  -5540210.753 1
  23963216.303     -365823.693 4        -0.25011
 90 10 15 11 43 14.9980000  0  7 02 18 06 11 15 13 09
  20337443.178    -1803294.648 7  -1391353.294 3
  22293415.076     3800602.427 6   2942823.280 1
  20953844.084    -6043733.207 7  -4634710.404 2
  24249939.115     3666960.836 4   2822146.201 1
  23407685.475    -5703372.693 6  -3699518.204 1
  22964190.092    -7722406.072 6  -5597700.544 1
  23951606.318     -426831.082 4    -47538.494 1
 90 10 15 11 43 29.9980000  0  7 02 18 06 11 15 13 09
  20335504.771    -1813484.864 7  -1399293.724 3
  22299811.990     3834221.003 6   2969019.570 1
  20945383.607    -6088186.765 7  -4669349.537 2
  24256207.693     3699911.687 3   2847822.164 1
  23400392.248    -5741713.016 6  -3729393.763 1
  22950161.412    -7796135.289 6  -5655151.854 1
  23939995.443     -487850.895 4    -95086.403 1
 90 10 15 11 43 44.9980000  0  7 02 18 06 11 15 13 09
  20333575.670    -1823621.345 7  -1407192.285 3
  22306221.092     3867892.089 6   2995256.761 1
  20936932.896    -6132598.494 7  -4703956.079 2
  24262492.459     3732920.074 4   2873542.975 1
  23393113.436    -5779952.691 5  -3759190.909 1
  22936141.506    -7869811.899 6  -5712562.199 1
  23928382.600     -548880.256 4   -142641.768 1
 90 10 15 11 43 59.9980000  0  7 02 18 06 11 15 13 09
  20331655.936    -1833710.811 7  -1415054.207 3
  22312638.850     3901609.154 6   3021529.789 1
  20928488.029    -6176974.654 7  -4738534.908 2
  24268781.068     3765979.121 4   2899303.258 1
  23385854.021    -5818098.240 6  -3788914.697 1
  22922130.779    -7943442.080 6  -5769936.351 1
  23916763.654     -609925.472 4
 90 10 15 11 44 14.9980000  0  7 02 18 06 11 15 13 09
  20329746.201    -1843746.091 7  -1422873.899 3
  22319064.740     3935378.816 6   3047843.799 1
  20920052.834    -6221308.041 7  -4773080.399 2
  24275086.428     3799095.944 4   2925108.531 1
  23378614.670    -5856142.379 5  -3818559.472 1
  22908129.459    -8017018.275 6  -5827268.447 1
  23905146.717     -670979.211 4
 90 10 15 11 44 29.9980000  0  7 02 18 06 11 15 13 09
  20327845.756    -1853729.349 7  -1430653.065 3
  22325496.350     3969198.274 6   3074196.613 1
  20911623.467    -6265600.466 7  -4807593.978 2
  24281396.592     3832267.551 4   2950956.459 1
  23371391.021    -5894086.331 5  -3848126.168 1
  22894138.365    -8090542.573 6  -5884560.083 1
  23893526.053     -732043.657 4        -0.05511
 90 10 15 11 44 44.9980000  0  7 02 18 06 11 15 13 09
  20325956.092    -1863661.379 7  -1438392.315 3
  22331943.123     4003066.733 6   3100587.611 1
  20903203.264    -6309852.686 7  -4842076.223 2
  24287718.686     3865493.159 4   2976846.548 1
  23364191.826    -5931930.650 6  -3877615.240 1
  22880155.264    -8164015.322 6  -5941811.564 1
  23881902.295     -793119.506 4    -47591.629 1
 90 10 15 11 44 59.9980000  0  7 02 18 06 11 15 13 09
  20324077.100    -1873539.044 7  -1446089.199 3
  22338400.037     4036987.003 6   3127018.981 1
  20894789.732    -6354060.820 7  -4876524.126 2
  24294052.553     3898775.619 4   3002780.927 1
  23357009.865    -5969672.082 6  -3907024.125 1
  22866187.920    -8237432.675 6  -5999019.879 1
  23870282.764     -854203.207 5    -95189.307 1
 90 10 15 11 45 14.9980000  0  7 02 18 06 11 15 13 09
  20322206.475    -1883366.928 7  -1453747.300 3
  22344863.967     4070954.302 6   3153487.000 1
  20886384.967    -6398229.222 7  -4910941.058 2
  24300395.248     3932110.070 4   3028755.793 1
  23349848.646    -6007314.373 6  -3936355.773 1
  22852222.842    -8310798.745 6  -6056188.235 1
  23858655.693     -915299.124 5   -142796.573 1
 90 10 15 11 45 29.9980000  0  7 02 18 06 11 15 13 09
  20320346.787    -1893138.864 7  -1461361.796 3
  22351336.146     4104974.366 6   3179996.132 1
  20877988.475    -6442351.736 7  -4945322.238 2
  24306748.795     3965502.208 4   3054775.657 1
  23342702.170    -6044851.384 5  -3965605.382 1
  22838273.467    -8384107.037 6  -6113311.556 1
  23847026.248     -976401.034 4   -190408.457 1
 90 10 15 11 45 44.9980000  0  7 02 18 06 11 15 13 09
  20318497.506    -1902858.156 7  -1468935.274 3
  22357819.420     4139043.507 6   3206543.494 1
  20869601.068    -6486431.080 7  -4979669.777 2
  24313116.959     3998948.556 4   3080837.720 1
  23335579.529    -6082286.071 5  -3994775.255 1
  22824332.873    -8457360.323 6  -6170392.035 1
  23835399.178    -1037512.033 4   -238027.466 1
 90 10 15 11 45 59.9980000  0  7 02 18 06 11 15 13 09
  20316657.709    -1912525.485 7  -1476468.260 3
  22364311.701     4173161.264 6   3233128.759 1
  20861220.600    -6530467.446 7  -5013983.841 2
  24319487.803     4032448.274 5   3106941.343 1
  23328479.834    -6119618.144 5  -4023865.167 1
  22810404.896    -8530558.636 6  -6227429.664 1
  23823767.646    -1098632.434 4   -285653.746 1
 90 10 15 11 46 14.9980000  0  7 02 18 06 11 15 13 09
  20314827.904    -1922140.266 7  -1483960.297 3
  22370813.662     4207327.576 6   3259751.853 1
  20852848.967    -6574460.147 7  -5048263.860 2
  24325876.397     4066001.542 4   3133086.765 1
  23321394.256    -6156846.902 5  -4052874.580 1
  22796486.529    -8603701.029 6  -6284423.723 1
  23812136.662    -1159761.458 4   -333286.784 1
 90 10 15 11 46 29.9980000  0  7 02 18 06 11 15 13 09
  20313009.350    -1931696.587 7  -1491406.786 3
  22377326.428     4241548.141 6   3286417.218 1
  20844486.904    -6618403.092 7  -5082505.112 2
  24332271.357     4099614.056 5   3159278.310 1
  23314329.373    -6193966.448 5  -4081798.887 1
  22782578.623    -8676781.525 6  -6341369.548 1
  23800497.256    -1220893.245 4   -380921.952 1
 90 10 15 11 46 44.9980000  0  7 02 18 06 11 15 13 09
  20311200.553    -1941203.734 7  -1498814.952 3
  22383846.568     4275813.403 6   3313117.414 1
  20836133.381    -6662304.911 7  -5116714.317 2
  24338676.350     4133276.267 5   3185508.613 1
  23307284.826    -6230985.328 5  -4110644.755 1
  22768683.217    -8749808.736 6  -6398273.859 1
  23788865.795    -1282036.550 4   -428566.123 1
 90 10 15 11 46 59.9980000  0  7 02 18 06 11 15 13 09
  20309402.889    -1950653.197 7  -1506178.179 3
  22390376.928     4310131.621 6   3339858.870 1
  20827788.943    -6706156.839 7  -5150884.646 2
  24345095.514     4166996.336 5   3211783.989 1
  23300259.693    -6267894.509 5  -4139405.146 1
  22754798.537    -8822773.919 6  -6455129.833 1
  23777226.826    -1343182.908 3   -476212.632 1
 90 10 15 11 47 14.9980000  0  7 02 18 06 11 15 13 09
  20307613.014    -1960052.525 7  -1513502.334 3
  22396917.873     4344494.840 6   3366635.395 1
  20819451.459    -6749966.448 7  -5185022.006 2
  24351518.412     4200766.368 5   3238098.263 1
  23293256.787    -6304701.442 5  -4168085.856 1
  22740925.334    -8895683.920 6  -6511942.813 1
  23765588.631    -1404339.511 3   -523867.146 1
 90 10 15 11 47 29.9980000  0  7 02 18 06 11 15 13 09
  20305835.092    -1969396.467 7  -1520783.329 3
  22403463.592     4378907.867 6   3393450.729 1
  20811124.404    -6793728.007 7  -5219121.918 2
  24357958.107     4234591.286 5   3264455.300 1
  23286272.162    -6341400.408 5  -4196682.441 1
  22727062.178    -8968533.177 6  -6568708.460 1
  23753955.412    -1465501.093 4   -571525.521 1
 90 10 15 11 47 44.9980000  0  7 02 18 06 11 15 13 09
  20304066.662    -1978691.283 7  -1528026.045 3
  22410019.482     4413364.200 6   3420299.813 1
  20802804.170    -6837447.417 7  -5253188.989 2
  24364404.850     4268464.436 5   3290849.952 1
  23279306.006    -6377997.851 5  -4225199.919 1
  22713208.779    -9041327.575 6  -6625431.331 1
  23742314.014    -1526673.828 4   -619192.592 1
 90 10 15 11 47 59.9980000  0  7 02 18 06 11 15 13 09
  20302307.896    -1987932.973 7  -1535227.364 3
  22416588.459     4447867.585 6   3447185.566 1
  20794494.732    -6881120.478 7  -5287219.939 2
  24370856.850     4302389.862 5   3317285.332 1
  23272364.787    -6414488.793 5  -4253634.401 1
  22699368.342    -9114062.338 6  -6682107.775 1
  23730672.771    -1587853.209 4   -666864.898 1
 90 10 15 11 48 14.9980000  0  7 02 18 06 11 15 13 09
  20300559.842    -1997122.203 7  -1542387.802 3
  22423161.068     4482417.490 6   3474107.554 1
  20786191.803    -6924747.407 7  -5321214.959 2
  24377323.693     4336366.532 5   3343760.625 1
  23265441.561    -6450873.435 5  -4281986.062 1
  22685538.865    -9186737.766 6  -6738737.967 1
  23719031.615    -1649039.663 4   -714542.615 1
 90 10 15 11 48 29.9980000  0  7 02 18 06 11 15 13 09
  20298821.990    -2006254.822 7  -1549504.127 3
  22429746.904     4517017.276 6   3501068.417 1
  20777900.264    -6968323.784 7  -5355170.572 2
  24383799.514     4370398.225 5   3370278.847 1
  23258538.725    -6487147.514 5  -4310251.571 1
  22671721.709    -9259349.615 6  -6795318.608 1
  23707382.920    -1710229.100 4   -762222.782 1
 90 10 15 11 48 44.9980000  0  7 02 18 06 11 15 13 09
  20297092.842    -2015336.541 7  -1556580.794 3
  22436338.967     4551661.176 6   3528063.653 1
  20769615.928    -7011854.898 7  -5389090.920 2
  24390285.373     4404478.936 5   3396835.244 1
  23251654.670    -6523316.366 5  -4338435.076 1
  22657913.068    -9331902.953 6  -6851853.652 1
  23695738.982    -1771426.704 4   -809909.236 1
 90 10 15 11 48 59.9980000  0  7 02 18 06 11 15 13 09
  20295374.834    -2024368.082 7  -1563618.362 3
  22442937.350     4586348.144 6   3555092.445 1
  20761340.787    -7055341.271 7  -5422976.409 2
  24396778.014     4438607.590 5   3423429.018 1
  23244793.654    -6559380.272 6  -4366536.804 1
  22644117.912    -9404397.953 6  -6908343.254 1
  23684093.014    -1832633.302 4   -857602.704 1
 90 10 15 11 49 14.9980000  0  7 02 18 06 11 15 13 09
  20293666.271    -2033346.637 7  -1570614.644 3
  22449548.271     4621080.573 6   3582156.669 1
  20753073.225    -7098779.763 7  -5456824.581 2
  24403282.897     4472786.837 5   3450062.165 1
  23237950.639    -6595336.112 5  -4394554.330 1
  22630336.178    -9476831.401 6  -6964784.894 1
  23672445.373    -1893845.673 4   -905300.643 1
 90 10 15 11 49 29.9980000  0  7 02 18 06 11 15 13 09
  20291966.865    -2042274.060 7  -1577571.077 3
  22456168.764     4655856.554 6   3609254.824 1
  20744817.365    -7142171.794 7  -5490636.552 2
  24409796.732     4507014.527 5   3476733.061 1
  23231129.037    -6631185.230 5  -4422488.695 1
  22616562.475    -9549204.782 6  -7021179.710 1
  23660792.029    -1955065.503 3   -953004.372 1
 90 10 15 11 49 44.9980000  0  7 02 18 06 11 15 13 09
  20290278.521    -2051150.062 7  -1584487.448 3
  22462791.873     4690675.963 6   3636386.819 1
  20736568.725    -7185516.791 7  -5524411.876 2
  24416319.225     4541290.723 5   3503441.805 1
  23224327.498    -6666926.633 5  -4450339.137 1
  22602803.225    -9621517.319 6  -7077527.139 1
  23649144.389    -2016292.278 3  -1000713.479 1
 90 10 15 11 49 59.9980000  0  7 02 18 06 11 15 13 09
  20288599.420    -2059973.381 7  -1591362.760 3
  22469426.443     4725539.784 6   3663553.430 1
  20728329.756    -7228813.081 7  -5558149.241 2
  24422852.014     4575616.413 5   3530189.076 1
  23217546.193    -6702559.190 5  -4478104.755 1
  22589055.873    -9693767.264 6  -7133825.787 1
  23637490.146    -2077524.429 3  -1048426.856 1
 90 10 15 11 50 14.9980000  0  7 02 18 06 11 15 13 09
  20286930.279    -2068743.906 7  -1598196.938 3
  22476068.561     4760447.975 6   3690754.608 1
  20720099.607    -7272060.484 7  -5591848.513 2
  24429390.436     4609991.361 5   3556974.736 1
  23210785.896    -6738082.483 5  -4505785.229 1
  22575317.662    -9765954.306 6  -7190075.413 1
  23625838.553    -2138761.903 3  -1096144.348 1
 90 10 15 11 50 29.9980000  0  7 02 18 06 11 15 13 09
  20285271.084    -2077463.946 7  -1604991.776 3
  22482718.756     4795397.968 6   3717988.363 1
  20711879.748    -7315260.917 7  -5625511.191 2
  24435944.756     4644412.757 5   3583796.599 1
  23204049.037    -6773498.209 5  -4533381.888 1
  22561592.787    -9838080.382 6  -7246277.535 1
  23614185.514    -2200006.752 3  -1143867.556 1
 90 10 15 11 50 44.9980000  0  7 02 18 06 11 15 13 09
  20283621.506    -2086131.764 7  -1611745.924 3
  22489379.764     4830391.119 6   3745255.741 1
  20703668.248    -7358412.166 7  -5659135.541 2
  24442500.006     4678882.186 5   3610655.851 1
  23197330.201    -6808804.223 5  -4560893.046 1
  22547877.764    -9910143.057 6  -7302430.256 1
  23602526.287    -2261256.859 3  -1191594.897 1
 90 10 15 11 50 59.9980000  0  7 02 18 06 11 15 13 09
  20281982.264    -2094749.628 7  -1618461.147 3
  22496044.873     4865424.629 6   3772554.568 1
  20695465.607    -7401516.347 7  -5692723.212 2
  24449068.654     4713397.150 5   3637550.558 1
  23190630.904    -6844002.733 5  -4588320.456 1
  22534179.482    -9982144.181 6  -7358535.022 1
  23590870.936    -2322514.470 4  -1239328.046 1
 90 10 15 11 51 14.9980000  0  7 02 18 06 11 15 13 09
  20280351.045    -2103317.685 7  -1625137.562 3
  22502717.553     4900498.373 6   3799884.748 1
  20687272.701    -7444573.178 7  -5726273.988 2
  24455647.740     4747957.226 5   3664480.526 1
  23183953.053    -6879093.573 5  -4615663.954 1
  22520486.084   -10054083.316 6  -7414591.461 1
  23579212.131    -2383779.359 3  -1287066.929 1
 90 10 15 11 51 29.9980000  0  7 02 18 06 11 15 13 09
  20278730.951    -2111833.503 7  -1631773.274 3
  22509402.178     4935614.032 6   3827247.586 1
  20679087.943    -7487580.076 7  -5759785.852 2
  24462230.123     4782564.579 5   3691447.333 1
  23177295.553    -6914073.927 5  -4642921.357 1
  22506809.342   -10125957.868 6  -7470597.606 1
  23567552.748    -2445049.070 3  -1334809.534 1
 90 10 15 11 51 44.9980000  0  7 02 18 06 11 15 13 09
  20277119.529    -2120300.070 7  -1638370.598 3
  22516092.389     4970768.659 6   3854640.793 1
  20670913.131    -7530539.801 7  -5793260.963 2
  24468825.936     4817215.739 5   3718448.254 1
  23170660.209    -6948946.122 5  -4670094.483 1
  22493143.522   -10197770.415 6  -7526555.422 1
  23555888.232    -2506326.320 3  -1382557.988 1
 90 10 15 11 51 59.9980000  0  7 02 18 06 11 15 13 09
  20275516.936    -2128716.103 7  -1644928.543 3
  22522791.248     5005963.205 6   3882065.106 1
  20662747.811    -7573450.529 7  -5826697.891 2
  24475429.670     4851911.772 5   3745484.170 1
  23164044.920    -6983708.929 5  -4697182.377 1
  22479492.615   -10269519.337 6  -7582463.677 1
  23544229.061    -2567609.654 3  -1430311.151 1
 90 10 15 11 52 14.9980000  0  7 02 18 06 11 15 13 09
  20273925.936    -2137083.535 7  -1651448.620 3
  22529494.670     5041195.757 6   3909519.028 1
  20654591.209    -7616313.741 7  -5860097.799 2
  24482038.818     4886650.602 4   3772553.368 1
  23157449.904    -7018363.387 5  -4724185.834 1
  22465849.787   -10341205.932 6  -7638323.344 1
  23532567.670    -2628900.479 4  -1478070.150 1
 90 10 15 11 52 29.9980000  0  6 02 18 06 15 13 09
  20272343.373    -2145400.482 7  -1657929.359 3
  22536205.959     5076467.480 6   3937003.480 1
  20646444.193    -7659127.438 7  -5893459.120 2
  23150877.865    -7052907.527 5  -4751103.334 1
  22452220.623   -10412827.952 6  -7694132.690 1
  23520904.521    -2690196.922 4  -1525833.582 1
 90 10 15 11 52 44.9980000  0  6 02 18 06 15 13 09
  20270770.842    -2153663.593 7  -1664368.145 3
  22542923.818     5111781.626 6   3964520.988 1
  20638307.381    -7701887.810 7  -5926778.890 2
  23144326.639    -7087337.901 5  -4777932.182 1
  22438603.428   -10484381.728 6  -7749888.880 1
  23509236.475    -2751495.537 3  -1573598.702 1
 90 10 15 11 52 59.9980000  0  6 02 18 06 15 13 09
  20269208.904    -2161872.719 7  -1670764.868 3
  22549654.092     5147137.848 6   3992071.285 1
  20630180.850    -7744594.530 7  -5960056.852 2
  23137794.107    -7121653.487 5  -4804671.584 1
  22425003.545   -10555866.594 6  -7805591.366 1
  23497572.990    -2812795.995 3  -1621365.271 1
 90 10 15 11 53 14.9980000  0  6 02 18 06 15 13 09
  20267655.693    -2170030.208 7  -1677121.351 3
  22556391.912     5182533.627 6   4019652.402 1
  20622063.584    -7787249.545 7  -5993294.520 2
  23131286.600    -7155856.733 5  -4831323.462 1
  22411410.717   -10627284.235 6  -7861241.455 1
  23485907.615    -2874100.170 3  -1669134.752 1
 90 10 15 11 53 29.9980000  0  6 02 18 06 15 13 09
  20266112.795    -2178142.612 7  -1683442.703 3
  22563131.600     5217962.171 6   4047259.045 1
  20613955.084    -7829859.092 7  -6026496.753 2
  23124797.646    -7189953.558 5  -4857892.404 1
  22397832.029   -10698640.745 6  -7916843.920 1
  23474240.803    -2935414.538 4  -1716912.177 1
 90 10 15 11 53 44.9980000  0  6 02 18 06 15 13 09
  20264578.459    -2186204.983 7  -1689725.071 3
  22569879.186     5253428.445 6   4074895.097 1
  20605856.287    -7872417.912 7  -6059659.470 2
  23118330.225    -7223938.698 6  -4884374.322 1
  22384267.834   -10769930.887 6  -7972394.663 1
  23462570.232    -2996733.884 4  -1764693.470 1
 90 10 15 11 53 59.9980000  0  6 02 18 06 15 13 09
  20263053.654    -2194215.409 7  -1695966.958 3
  22576634.607     5288933.682 6   4102561.501 1
  20597768.045    -7914923.536 7  -6092780.736 2
  23111884.326    -7257809.786 6  -4910767.356 1
  22370713.943   -10841152.248 6  -8027891.825 1
  23450901.951    -3058055.931 5  -1812476.880 1
 90 10 15 11 54 14.9980000  0  6 02 18 06 15 13 09
  20261539.982    -2202175.593 7  -1702169.695 3
  22583400.904     5324475.902 6   4130256.723 1
  20589689.186    -7957377.756 7  -6125861.941 2
  23105461.271    -7291568.731 6  -4937073.019 1
  22357172.889   -10912306.282 6  -8083336.506 1
  23439233.982    -3119382.490 5  -1860263.837 1
 90 10 15 11 54 29.9980000  0  6 02 18 06 15 13 09
  20260034.756    -2210084.756 7  -1708332.685 3
  22590172.006     5360055.533 6   4157981.102 1
  20581620.021    -7999779.162 7  -6158901.995 2
  23099060.154    -7325213.912 6  -4963290.029 1
  22343644.717   -10983391.686 6  -8138727.721 1
  23427562.092    -3180712.392 4  -1908053.357 1
 90 10 15 11 54 44.9980000  0  6 02 18 06 15 13 09
  20258538.053    -2217943.485 7  -1714456.375 3
  22596944.896     5395671.693 6   4185733.942 1
  20573561.287    -8042128.340 7  -6191901.349 2
  23092679.115    -7358745.979 6  -4989418.907 1
  22330131.779   -11054408.881 6  -8194065.785 1
  23415889.975    -3242046.239 4  -1955845.954 1
 90 10 15 11 54 59.9980000  0  6 02 18 06 15 13 09
  20257051.787    -2225753.328 7  -1720541.973 3
  22603730.865     5431322.621 6   4213513.870 1
  20565512.256    -8084426.598 7  -6224861.029 2
  23086317.068    -7392165.958 6  -5015460.435 1
  22316633.342   -11125358.899 6  -8249351.497 1
  23404216.803    -3303385.330 4  -2003642.652 1
 90 10 15 11 55 14.9980000  0  6 02 18 06 15 13 09
  20255575.998    -2233512.835 7  -1726588.339 3
  22610522.943     5467009.328 6   4241321.691 1
  20557473.678    -8126671.863 7  -6257779.415 2
  23079977.381    -7425472.126 6  -5041413.295 1
  22303142.201   -11196239.916 6  -8304583.442 1
  23392540.975    -3364727.773 4  -2051441.953 1
 90 10 15 11 55 29.9980000  0  6 02 18 06 15 13 09
  20254109.943    -2241219.550 7  -1732593.573 3
  22617321.334     5502734.223 6   4269159.255 1
  20549445.186    -8168861.318 7  -6290654.318 2
  23073665.264    -7458661.581 6  -5067275.192 1
  22289669.311   -11267048.816 6  -8359759.203 1
  23380871.873    -3426071.051 4  -2099241.875 1
 90 10 15 11 55 44.9980000  0  6 02 18 06 15 13 09
  20252651.146    -2248882.275 7  -1738564.525 3
  22624125.029     5538488.316 6   4297019.580 1
  20541425.865    -8211003.398 7  -6323492.308 2
  23067368.912    -7491742.471 5  -5093052.504 1
  22276204.217   -11337793.793 6  -8414885.153 1
  23369192.662    -3487423.364 5  -2147048.890 1
 90 10 15 11 55 59.9980000  0  6 02 18 06 15 13 09
  20251202.092    -2256492.491 7  -1744494.570 3
  22630937.029     5574279.642 6   4324908.900 1
  20533416.561    -8253089.324 7  -6356286.528 2
  23061098.748    -7524706.225 6  -5118738.537 1
  22262758.561   -11408466.150 6  -8469954.510 1
  23357522.467    -3548776.271 5  -2194856.396 1
 90 10 15 11 56 14.9980000  0  6 02 18 06 15 13 09
  20249764.201    -2264054.137 7  -1750386.764 3
  22637753.053     5610104.086 6   4352824.061 1
  20525417.826    -8295122.860 7  -6389039.937 2
  23054847.795    -7557556.592 6  -5144336.210 1
  22249319.045   -11479069.624 6  -8524970.197 1
  23345843.701    -3610133.631 5  -2242667.322 1
 90 10 15 11 56 29.9980000  0  6 02 18 06 15 13 09
  20248333.857    -2271566.354 7  -1756240.447 3
  22644578.053     5645961.893 6   4380765.201 1
  20517429.311    -8337102.649 7  -6421751.457 2
  23048615.967    -7590292.441 6  -5169844.659 1
  22235900.779   -11549602.862 6  -8579931.144 1
  23334170.092    -3671494.263 5  -2290480.844 1
 90 10 15 11 56 44.9980000  0  6 02 18 06 15 13 09
  20246914.146    -2279029.356 7  -1762055.776 3
  22651407.014     5681853.016 6   4408732.292 1
  20509451.381    -8379028.673 7  -6454421.084 3
  23042409.701    -7622913.273 6  -5195263.480 1
  22222491.365   -11620065.356 6  -8634836.977 1
  23322493.357    -3732858.147 5  -2338296.875 1
 90 10 15 11 56 59.9980000  0  6 02 18 06 15 13 09
  20245503.654    -2286442.333 7  -1767832.121 3
  22658240.889     5717777.950 6   4436725.743 1
  20501483.404    -8420899.747 7  -6487047.896 2
  23036222.772    -7655417.930 6  -5220591.769 1
  22209095.990   -11690455.745 6  -8689686.620 1
  23310813.459    -3794223.970 5  -2386114.412 1
 90 10 15 11 57 14.9980000  0  6 02 18 06 15 13 09
  20244102.451    -2293803.951 7  -1773568.449 3
  22665085.936     5753737.338 6   4464746.030 1
  20493526.897    -8462714.317 7  -6519630.673 3
  23030059.068    -7687805.054 6  -5245828.487 1
  22195714.811   -11760772.743 6  -8744479.080 1
  23299138.100    -3855590.573 5  -2433932.546 1
 90 10 15 11 57 29.9980000  0  6 02 18 06 15 13 09
  20242712.029    -2301116.261 7  -1779266.359 3
  22671934.154     5789728.910 6   4492791.383 1
  20485579.529    -8504474.126 7  -6552170.785 2
  23023918.475    -7720076.560 6  -5270975.101 1
  22182347.131   -11831017.889 6  -8799215.547 1
  23287456.303    -3916959.675 5  -2481752.597 1
 90 10 15 11 57 44.9980000  0  6 02 18 06 15 13 09
  20241329.076    -2308377.904 7  -1784924.783 3
  22678790.764     5825753.657 6   4520862.607 1
  20477644.154    -8546177.410 7  -6584666.851 3
  23017800.357    -7752230.434 6  -5296030.057 1
  22168995.295   -11901189.380 6  -8853894.627 1
  23275778.998    -3978329.786 4  -2529573.487 1
 90 10 15 11 57 59.9980000  0  6 02 18 06 15 13 09
  20239957.818    -2315585.939 7  -1790541.433 3
  22685651.397     5861814.328 6   4548961.820 1
  20469719.623    -8587820.768 7  -6617116.219 3
  23011706.756    -7784263.401 6  -5320990.808 1
  22155656.514   -11971283.772 6  -8908513.621 1
  23264101.803    -4039697.503 4  -2577392.472 1
 90 10 15 11 58 14.9980000  0  6 02 18 06 15 13 09
  20238595.764    -2322746.785 7  -1796121.312 3
  22692522.701     5897904.273 6   4577083.843 1
  20461804.693    -8629410.642 7  -6649523.914 3
  23005632.467    -7816181.339 6  -5345861.914 1
  22142331.561   -12041307.286 6  -8963077.375 1
  23252424.154    -4101069.375 4  -2625214.758 1
 90 10 15 11 58 29.9980000  0  6 02 18 06 15 13 09
  20237240.357    -2329861.484 7  -1801665.240 3
  22699394.326     5934022.138 6   4605227.631 1
  20453901.748    -8670947.594 7  -6681890.378 2
  22999578.201    -7847985.529 6  -5370644.397 1
  22129021.693   -12111260.529 6  -9017586.404 1
  23240742.459    -4162445.992 5  -2673040.702 1
 90 10 15 11 58 44.9980000  0  6 02 18 06 15 13 09
  20235897.186    -2336924.442 7  -1807168.848 3
  22706271.693     5970173.311 6   4633397.361 1
  20446007.631    -8712425.624 7  -6714210.920 3
  22993550.561    -7879669.748 6  -5395333.393 1
  22115721.600   -12181137.278 6  -9072035.805 1
  23229064.709    -4223821.396 5  -2720865.697 1
 90 10 15 11 58 59.9980000  0  6 02 18 06 15 13 09
  20234562.654    -2343938.912 7  -1812634.673 3
  22713155.725     6006353.896 5   4661590.001 1
  20438125.592    -8753847.717 7  -6746487.870 3
  22987544.467    -7911237.077 6  -5419931.296 1
  22102441.834   -12250940.415 6  -9126427.856 1
  23217384.420    -4285198.775 5  -2768692.257 1
 90 10 15 11 59 14.9980000  0  6 02 18 06 15 13 09
  20233236.654    -2350905.582 7  -1818063.248 3
  22720046.139     6042563.214 5   4689805.045 1
  20430254.498    -8795214.052 7  -6778721.379 3
  22981558.162    -7942687.821 6  -5444438.371 1
  22089170.834   -12320670.220 6  -9180762.757 1
  23205704.795    -4346578.469 5  -2816520.499 1
 90 10 15 11 59 29.9980000  0  6 02 18 06 15 13 09
  20231919.397    -2357827.075 7  -1823456.625 3
  22726945.326     6078798.285 6   4718040.150 1
  20422392.217    -8836527.049 7  -6810913.322 3
  22975594.670    -7974024.099 6  -5468856.233 1
  22075916.123   -12390329.109 6  -9235042.403 1
  23194025.139    -4407962.949 5  -2864352.529 1
 90 10 15 11 59 44.9970000  0  6 02 18 06 15 13 09
  20230611.993    -2364698.738 7  -1828811.175 3
  22733844.806     6115060.801 6   4746296.643 1
  20414541.837    -8877779.469 7  -6843058.070 3
  22969652.188    -8005239.436 6  -5493179.868 1
  22062675.946   -12459907.622 6  -9289259.414 1
  23182343.415    -4469343.780 5  -2912181.742 1
 90 10 15 11 59 59.9970000  0  6 02 18 06 15 13 09
  20229313.938    -2371518.574 7  -1834125.335 3
  22740749.829     6151357.770 6   4774579.986 1
  20406702.329    -8918973.852 7  -6875157.594 3
  22963737.704    -8036335.198 6  -5517410.324 1
  22049448.157   -12529411.874 6  -9343418.563 1
  23170661.798    -4530726.050 5  -2960012.057 1
 90 10 15 12  0 14.9970000  0  6 02 18 06 15 13 09
  20228026.642    -2378287.631 7  -1839399.927 3
  22747661.704     6187685.027 5   4802886.927 1
  20398874.634    -8960108.172 7  -6907210.306 3
  22957842.524    -8067310.063 6  -5541546.575 1
  22036236.032   -12598838.069 6  -9397516.890 1
  23158981.165    -4592106.829 5  -3007841.216 1
 90 10 15 12  0 29.9970000  0  6 02 18 06 15 13 09
  20226746.829    -2385011.899 7  -1844639.622 3
  22754580.665     6224036.786 5   4831212.961 1
  20391057.673    -9001188.156 7  -6939220.681 3
  22951971.048    -8098169.617 6  -5565592.968 1
  22023039.290   -12668191.786 6  -9451558.736 1
  23147300.017    -4653491.878 4  -3055673.722 1
 90 10 15 12  0 44.9970000  0  6 02 18 06 15 13 09
  20225476.220    -2391684.511 7  -1849839.062 3
  22761505.665     6260419.394 5   4859563.044 1
  20383252.048    -9042206.825 7  -6971183.280 3
  22946121.649    -8128906.839 6  -5589544.046 1
  22009858.095   -12737466.055 6  -9505538.678 1
  23135617.563    -4714874.159 4  -3103504.072 1
 90 10 15 12  0 59.9970000  0  6 02 18 06 15 13 09
  20224216.079    -2398311.156 7  -1855002.681 3
  22768435.056     6296826.669 6   4887932.336 1
  20375457.431    -9083169.568 7  -7003102.300 3
  22940292.298    -8159527.270 6  -5613404.114 1
  21996686.181   -12806666.027 6  -9559460.723 1
  23123938.478    -4776259.171 4  -3151336.529 1
 90 10 15 12  1 14.9970000  0  6 02 18 06 15 13 09
  20222963.728    -2404889.145 7  -1860128.391 3
  22775365.399     6333260.816 5   4916322.562 1
  20367674.368    -9124073.228 7  -7034975.278 3
  22934489.079    -8190027.957 6  -5637170.877 1
  21983534.009   -12875788.758 6  -9613322.582 1
  23112256.524    -4837643.971 4  -3199168.859 1
 90 10 15 12  1 29.9970000  0  6 02 18 06 15 13 09
  20221722.329    -2411419.267 7  -1865216.797 3
  22782303.993     6369720.928 5   4944733.026 1
  20359901.040    -9164918.379 7  -7066802.676 3
  22928709.024    -8220409.063 6  -5660844.460 1
  21970395.032   -12944834.510 6  -9667124.457 1
  23100576.978    -4899029.085 4  -3247001.348 1
 90 10 15 12  1 44.9970000  0  6 02 18 06 15 13 09
  20220488.103    -2417901.709 7  -1870268.057 3
  22789246.853     6406206.947 6   4973163.675 1
  20352140.704    -9205704.591 7  -7098584.138 3
  22922949.548    -8250670.437 6  -5684424.746 1
  21957271.290   -13013802.751 6  -9720865.931 1
  23088893.751    -4960414.361 4  -3294834.035 1
 90 10 15 12  1 59.9970000  0  6 02 18 06 15 13 09
  20219263.978    -2424333.225 7  -1875279.625 3
  22796195.017     6442721.565 5   5001616.610 1
  20344390.868    -9246428.389 7  -7130316.967 3
  22917215.946    -8280808.707 6  -5707909.111 1
  21944161.212   -13082690.093 6  -9774544.383 1
  23077213.759    -5021796.424 4  -3342664.203 1
 90 10 15 12  2 14.9970000  0  6 02 18 06 15 13 09
  20218049.329    -2430717.123 7  -1880254.099 3
  22803150.165     6479261.137 6   5030088.985 1
  20336652.556    -9287093.013 7  -7162003.680 3
  22911503.563    -8310826.918 6  -5731299.910 1
  21931068.939   -13151499.587 6  -9828162.154 1
  23065536.196    -5083178.293 4  -3390494.217 1
 90 10 15 12  2 29.9970000  0  6 02 18 06 15 13 09
  20216843.712    -2437051.855 7  -1885190.262 3
  22810110.798     6515826.711 6   5058581.628 1
  20328925.806    -9327696.359 7  -7193642.652 3
  22905816.728    -8340722.943 6  -5754595.503 1
  21917991.728   -13220229.118 6  -9881717.624 1
  23053852.618    -5144558.298 4  -3438322.768 1
 90 10 15 12  2 44.9970000  0  6 02 18 06 15 13 09
  20215647.064    -2443339.110 7  -1890089.422 3
  22817068.587     6552416.399 5   5087093.062 1
  20321209.876    -9368239.897 7  -7225235.015 3
  22900149.071    -8370498.656 6  -5777797.350 1
  21904927.337   -13288880.052 6  -9935211.849 1
  23042173.759    -5205937.691 4  -3486150.850 1
 90 10 15 12  2 59.9970000  0  6 02 18 06 15 13 09
  20214461.462    -2449574.685 7  -1894948.311 3
  22824037.360     6589034.317 5   5115626.484 1
  20313507.806    -9408719.178 7  -7256777.310 3
  22894505.360    -8400149.344 6  -5800901.785 1
  21891875.720   -13357447.742 6  -9988641.212 1
  23030489.532    -5267312.397 4  -3533975.273 1
 90 10 15 12  3 14.9970000  0  6 02 18 06 15 13 09
  20213284.017    -2455759.252 7  -1899767.459 3
  22831013.774     6625679.304 6   5144181.001 1
  20305817.126    -9449134.356 7  -7288269.656 3
  22888885.673    -8429675.429 6  -5823909.111 1
  21878845.665   -13425932.118 6 -10042005.646 1
  23018813.970    -5328682.460 4  -3581796.074 1
 90 10 15 12  3 29.9970000  0  6 02 18 06 15 13 09
  20212116.017    -2461895.463 7  -1904548.933 3
  22837988.470     6662348.523 5   5172754.413 1
  20298137.829    -9489487.779 7  -7319713.878 3
  22883292.126    -8459079.183 6  -5846821.126 1
  21865831.087   -13494335.888 6 -10095307.284 1
  23007137.884    -5390050.642 4  -3629615.426 1
 90 10 15 12  3 44.9970000  0  6 02 18 06 15 13 09
  20210957.157    -2467987.055 7  -1909295.626 3
  22844967.462     6699037.793 5   5201343.440 1
  20290470.618    -9529783.018 7  -7351112.766 3
  22877716.524    -8488364.099 6  -5869640.528 1
  21852829.376   -13562662.640 6 -10148548.902 1
  22995461.204    -5451420.367 4  -3677435.964 1
 90 10 15 12  3 59.9970000  0  6 02 18 06 15 13 09
  20209806.462    -2474032.337 7  -1914006.237 3
  22851955.688     6735748.406 5   5229949.103 1
  20282813.962    -9570018.062 7  -7382464.746 3
  22872167.501    -8517528.192 6  -5892365.789 1
  21839841.345   -13630910.072 6 -10201728.704 1
  22983779.681    -5512789.546 4  -3725256.090 1
 90 10 15 12  4 14.9970000  0  6 02 18 06 15 13 09
  20208666.423    -2480027.705 7  -1918677.955 3
  22858946.688     6772483.836 5   5258574.086 1
  20275169.056    -9610188.870 7  -7413766.677 3
  22866643.353    -8546567.698 6  -5914993.969 1
  21826869.415   -13699073.917 6 -10254843.386 1
  22972103.165    -5574154.786 4  -3773073.168 1
 90 10 15 12  4 29.9970000  0  6 02 18 06 15 13 09
  20207533.759    -2485975.246 7  -1923312.409 3
  22865945.509     6809241.603 5   5287216.487 1
  20267536.962    -9650297.216 7  -7445019.928 3
  22861142.892    -8575484.077 6  -5937526.213 1
  21813914.517   -13767156.048 6 -10307894.386 1
  22960427.017    -5635517.493 5  -3820888.249 1
 90 10 15 12  4 44.9970000  0  6 02 18 06 15 13 09
  20206411.626    -2491874.133 7  -1927908.942 3
  22872941.478     6846022.240 5   5315876.719 1
  20259916.665    -9690341.930 7  -7476223.605 3
  22855659.829    -8604276.538 6  -5959961.884 1
  21800971.821   -13835155.084 6 -10360880.635 1
  22948750.579    -5696876.800 5  -3868700.712 1
 90 10 15 12  4 59.9970000  0  6 02 18 06 15 13 09
  20205298.540    -2497726.474 7  -1932469.212 3
  22879942.353     6882823.528 5   5344553.027 1
  20252308.649    -9730324.951 7  -7507379.194 3
  22850204.501    -8632947.051 6  -5982302.549 1
  21788050.204   -13903072.914 6 -10413803.615 1
  22937074.142    -5758234.488 5  -3916511.888 1
 90 10 15 12  5 14.9970000  0  6 02 18 06 15 13 09
  20204191.821    -2503535.013 7  -1936995.349 3
  22886952.368     6919642.363 5   5373243.011 1
  20244711.978    -9770248.539 7  -7538488.489 3
  22844775.470    -8661497.775 6  -6004549.857 1
  21775140.938   -13970911.805 6 -10466665.070 1
  22925399.610    -5819592.923 5  -3964323.653 1
 90 10 15 12  5 29.9970000  0  6 02 18 06 15 13 09
  20203095.696    -2509296.006 7  -1941484.434 3
  22893961.251     6956482.144 5   5401949.321 1
  20237125.540    -9810108.642 7  -7569548.306 3
  22839363.634    -8689924.510 6  -6026700.559 1
  21762247.360   -14038667.840 6 -10519461.986 1
  22913721.946    -5880948.421 5  -4012133.131 1
 90 10 15 12  5 44.9970000  0  6 02 18 06 15 13 09
  20202009.220    -2515007.751 7  -1945935.146 3
  22900976.657     6993344.181 5   5430672.970 1
  20229553.118    -9849903.062 7  -7600556.948 3
  22833978.743    -8718225.777 6  -6048753.494 1
  21749368.095   -14106338.732 6 -10572192.540 1
  22902051.040    -5942298.825 5  -4059938.619 1
 90 10 15 12  5 59.9970000  0  6 02 18 06 15 13 09
  20200931.728    -2520671.219 7  -1950348.236 3
  22907995.009     7030227.107 5   5459412.899 1
  20221992.790    -9889633.009 7  -7631515.347 3
  22828615.704    -8746402.145 6  -6070709.107 1
  21736507.118   -14173924.890 6 -10624857.064 1
  22890375.907    -6003645.125 5  -4107740.930 1
 90 10 15 12  6 14.9970000  0  6 02 18 06 15 13 09
  20199863.384    -2526283.531 7  -1954721.466 3
  22915015.806     7067133.623 5   5488171.212 1
  20214445.735    -9929294.657 7  -7662420.527 3
  22823279.603    -8774450.401 6  -6092564.880 1
  21723663.337   -14241423.006 6 -10677452.994 1
  22878701.767    -6064983.976 5  -4155537.448 1
 90 10 15 12  6 29.9970000  0  6 02 18 06 15 13 09
  20198805.126    -2531845.790 7  -1959055.694 3
  22922046.345     7104062.615 5   5516947.034 1
  20206910.571    -9968889.023 7  -7693273.279 3
  22817965.454    -8802371.052 6  -6114321.235 1
  21710834.884   -14308834.122 6 -10729981.126 1
  22867030.446    -6126316.247 5  -4203328.839 1
 90 10 15 12  6 44.9970000  0  6 02 18 06 15 13 09
  20197756.407    -2537360.245 7  -1963352.664 3
  22929076.548     7141011.286 5   5545738.194 1
  20199388.845   -10008418.120 7  -7724075.170 3
  22812676.243    -8830166.328 6  -6135979.892 1
  21698023.634   -14376160.097 6 -10782442.914 1
  22855361.806    -6187644.021 5  -4251116.695 1
 90 10 15 12  6 59.9970000  0  6 02 18 06 15 13 09
  20196715.040    -2542831.681 7  -1967616.128 3
  22936109.915     7177974.626 5   5574540.783 1
  20191878.204   -10047886.227 7  -7754829.540 3
  22807410.142    -8857840.761 6  -6157544.381 1
  21685226.704   -14443405.413 6 -10834841.859 1
  22843689.040    -6248971.816 5  -4298904.580 1
 90 10 15 12  7 14.9970000  0  6 02 18 06 15 13 09
  20195683.157    -2548253.401 7  -1971840.844 3
  22943147.587     7214958.796 5   5603359.609 1
  20184380.993   -10087286.483 7  -7785531.035 3
  22802167.024    -8885387.611 6  -6179009.463 1
  21672448.845   -14510562.740 6 -10887172.237 1
  22832022.978    -6310292.617 5  -4346687.028 1
 90 10 15 12  7 29.9970000  0  6 02 18 06 15 13 09
  20194659.274    -2553629.510 7  -1976030.020 3
  22950191.056     7251959.360 5   5632191.192 1
  20176895.892   -10126622.598 7  -7816182.544 3
  22796950.345    -8912810.596 6  -6200378.023 1
  21659684.782   -14577635.595 6 -10939436.786 1
  22820351.157    -6371610.395 5  -4394467.094 1
 90 10 15 12  7 44.9970000  0  6 02 18 06 15 13 09
  20193645.806    -2558957.624 7  -1980181.798 3
  22957232.931     7288978.605 5   5661037.338 1
  20169423.767   -10165891.715 7  -7846781.858 3
  22791755.376    -8940106.755 6  -6221647.748 1
  21646937.595   -14644621.518 6 -10991633.596 1
  22808687.571    -6432922.508 5  -4442242.780 1
 90 10 15 12  7 59.9970000  0  6 02 18 06 15 13 09
  20192639.806    -2564237.790 7  -1984296.212 3
  22964283.407     7326016.170 5   5689897.762 1
  20161962.423   -10205093.845 7  -7877328.969 3
  22786585.923    -8967276.067 6  -6242818.652 1
  21634205.814   -14711520.240 6 -11043762.466 1
  22797022.056    -6494228.880 5  -4490013.964 1
 90 10 15 12  8 14.9970000  0  6 02 18 06 15 13 09
  20191644.673    -2569473.121 7  -1988375.694 3
  22971332.767     7363068.669 5   5718769.814 1
  20154515.923   -10244231.825 7  -7907826.095 3
  22781438.024    -8994321.666 6  -6263893.139 1
  21621491.548   -14778334.478 6 -11095825.499 1
  22785353.517    -6555532.339 5  -4537782.891 1
 90 10 15 12  8 29.9970000  0  6 02 18 06 15 13 09
  20190656.681    -2574661.276 7  -1992418.416 3
  22978385.845     7400138.069 5   5747655.061 1
  20147080.767   -10283302.772 7  -7938270.982 3
  22776316.001    -9021240.818 6  -6284869.110 1
  21608795.884   -14845061.480 6 -11147820.553 1
  22773692.118    -6616830.247 5  -4585547.501 1
 90 10 15 12  8 44.9970000  0  6 02 18 06 15 13 09
  20189679.118    -2579801.109 7  -1996423.480 3
  22985444.079     7437225.415 5   5776554.277 1
  20139658.899   -10322305.011 7  -7968662.333 3
  22771217.071    -9048031.641 6  -6305745.073 1
  21596115.376   -14911699.559 6 -11199746.318 1
  22762026.173    -6678121.022 5  -4633306.532 1
 90 10 15 12  8 59.9970000  0  6 02 18 06 15 13 09
  20188710.220    -2584890.597 7  -2000389.316 3
  22992503.470     7474332.523 5   5805468.884 1
  20132250.306   -10361236.378 7  -7998998.463 3
  22766143.056    -9074692.239 6  -6326519.570 1
  21583451.001   -14978246.113 6 -11251600.771 1
  22750362.595    -6739402.473 5  -4681058.303 1
 90 10 15 12  9 14.9970000  0  6 02 18 06 15 13 09
  20187752.306    -2589934.698 7  -2004319.785 3
  22999569.618     7511453.927 5   5834394.637 1
  20124854.806   -10400101.482 7  -8029282.958 3
  22761093.571    -9101227.157 6  -6347196.130 1
  21570805.032   -15044705.772 6 -11303387.504 1
  22738705.001    -6800679.284 5  -4728806.469 1
 90 10 15 12  9 29.9970000  0  6 02 18 06 15 13 09
  20186801.220    -2594928.470 7  -2008211.037 3
  23006635.087     7548594.166 5   5863335.059 1
  20117471.681   -10438895.075 7  -8059511.731 3
  22756069.360    -9127631.495 6  -6367770.943 1
  21558175.556   -15111073.625 6 -11355102.708 1
  22727044.032    -6861946.559 5  -4776547.190 1
 90 10 15 12  9 44.9970000  0  6 02 18 06 15 13 09
  20185859.548    -2599874.700 7  -2012065.244 3
  23013705.462     7585750.134 5   5892287.759 1
  20110103.189   -10477619.782 7  -8089686.828 3
  22751070.743    -9153907.667 6  -6388245.886 1
  21545563.399   -15177352.048 6 -11406748.224 1
  22715386.759    -6923206.645 5  -4824282.329 1
 90 10 15 12  9 59.9970000  0  6 02 18 06 15 13 09
  20184927.962    -2604776.847 7  -2015885.104 3
  23020780.595     7622918.046 5   5921249.740 1
  20102746.446   -10516278.575 7  -8119810.560 3
  22746094.220    -9180058.609 6  -6408623.249 1
  21532966.642   -15243543.742 6 -11458326.162 1
  22703732.313    -6984462.679 5  -4872014.313 1
 90 10 15 12 10 14.9970000  0  6 02 18 06 15 13 09
  20184003.665    -2609634.044 7  -2019669.941 3
  23027853.540     7660098.446 5   5950221.480 1
  20095403.259   -10554870.371 7  -8149882.084 3
  22741142.501    -9206083.597 6  -6428902.464 1
  21520385.485   -15309647.720 6 -11509835.749 1
  22692076.071    -7045713.665 5  -4919742.342 1
 90 10 15 12 10 29.9970000  0  6 02 18 06 15 13 09
  20183087.345    -2614444.481 7  -2023418.335 3
  23034935.649     7697292.974 5   5979204.216 1
  20088071.978   -10593392.736 7  -8179899.515 3
  22736214.735    -9231980.206 6  -6449081.638 1
  21507824.892   -15375661.804 6 -11561275.283 1
  22680422.517    -7106957.469 5  -4967464.789 1
 90 10 15 12 10 44.9970000  0  6 02 18 06 15 13 09
  20182180.970    -2619209.367 7  -2027131.236 3
  23042015.243     7734500.117 5   6008196.757 1
  20080754.376   -10631846.871 7  -8209863.773 3
  22731309.860    -9257749.557 6  -6469161.659 1
  21495280.446   -15441586.958 6 -11612645.522 1
  22668768.392    -7168195.259 5  -5015182.561 1
 90 10 15 12 10 59.9970000  0  6 02 18 06 15 13 09
  20181282.556    -2623928.324 7  -2030808.356 3
  23049094.876     7771720.001 5   6037199.261 1
  20073450.274   -10670231.953 7  -8239774.228 3
  22726431.157    -9283391.220 6  -6489142.183 1
  21482752.610   -15507422.193 6 -11663945.696 1
  22657117.040    -7229426.231 5  -5062894.993 1
 90 10 15 12 11 14.9970000  0  6 02 18 06 15 13 09
  20180392.728    -2628602.336 7  -2034450.447 3
  23056179.860     7808951.206 5   6066210.557 1
  20066158.196   -10708548.851 7  -8269631.542 3
  22721574.689    -9308905.877 6  -6509023.729 1
  21470241.689   -15573168.287 6 -11715176.408 1
  22645466.165    -7290651.296 5  -5110602.832 1
 90 10 15 12 11 29.9970000  0  6 02 18 06 15 13 09
  20179511.415    -2633230.895 7  -2038057.117 3
  23063269.313     7846194.008 5   6095230.919 1
  20058880.829   -10746796.467 7  -8299434.873 3
  22716745.274    -9334292.622 6  -6528805.608 1
  21457746.306   -15638824.499 6 -11766337.086 1
  22633815.931    -7351869.724 5  -5158305.508 1
 90 10 15 12 11 44.9970000  0  6 02 18 06 15 13 09
  20178640.548    -2637812.288 7  -2041627.035 3
  23070357.399     7883449.773 5   6124261.356 1
  20051615.790   -10784972.850 7  -8329182.704 3
  22711936.103    -9359549.576 6  -6548486.360 1
  21445270.470   -15704388.390 6 -11817425.826 1
  22622168.626    -7413079.139 5  -5206001.156 1
 90 10 15 12 11 59.9970000  0  6 02 18 06 15 13 09
  20177777.470    -2642344.373 7  -2045158.538 3
  23077448.907     7920720.532 5   6153303.483 1
  20044364.954   -10823075.550 7  -8358873.120 3
  22707157.110    -9384674.394 6  -6568064.137 1
  21432813.282   -15769857.363 6 -11868440.601 1
  22610521.485    -7474277.453 5  -5253688.150 1
 90 10 15 12 12 14.9970000  0  6 02 18 06 15 13 09
  20176924.915    -2646831.876 7  -2048655.296 3
  23084542.743     7958000.856 5   6182353.074 1
  20037127.110   -10861109.090 7  -8388509.637 3
  22702401.204    -9409671.290 6  -6587542.249 1
  21420370.384   -15835236.123 6 -11919385.086 1
  22598878.845    -7535469.095 5  -5301369.962 1
 90 10 15 12 12 29.9970000  0  6 02 18 06 15 13 09
  20176078.548    -2651274.261 7  -2052116.897 3
  23091640.939     7995291.164 5   6211410.435 1
  20029902.946   -10899072.465 7  -8418091.488 3
  22697666.407    -9434539.990 6  -6606920.448 1
  21407946.899   -15900523.875 6 -11970258.652 1
  22587235.040    -7596653.417 5  -5349046.060 1
 90 10 15 12 12 44.9970000  0  6 02 18 06 15 13 09
  20175242.946    -2655668.928 7  -2055541.315 3
  23098739.970     8032593.911 5   6240477.492 1
  20022693.134   -10936962.860 7  -8447616.472 3
  22692960.165    -9459277.414 6  -6626196.368 1
  21395541.040   -15965717.379 6 -12021058.773 1
  22575596.282    -7657827.533 5  -5396714.206 1
 90 10 15 12 12 59.9970000  0  6 02 18 06 15 13 09
  20174415.790    -2660016.834 7  -2058929.298 3
  23105842.993     8069907.598 5   6269553.074 1
  20015496.524   -10974780.729 7  -8477084.940 3
  22688277.071    -9483884.267 6  -6645370.539 1
  21383151.774   -16030817.371 6 -12071786.041 1
  22563957.321    -7718991.963 5  -5444374.801 1
 90 10 15 12 13 14.9970000  0  6 02 18 06 15 13 09
  20173596.204    -2664322.950 7  -2062284.716 3
  23112938.493     8107227.266 5   6298633.330 1
  20008312.517   -11012530.661 7  -8506500.477 3
  22683618.876    -9508365.160 6  -6664446.553 1
  21370781.712   -16095828.273 7 -12122443.873 1
  22552313.845    -7780151.454 5  -5492031.552 1
 90 10 15 12 13 29.9970000  0  6 02 18 06 15 13 09
  20172785.173    -2668579.366 7  -2065601.404 3
  23120046.993     8144560.159 5   6327723.866 1
  20001143.228   -11050204.545 7  -8535856.755 3
  22678985.087    -9532712.238 6  -6683418.309 1
  21358430.024   -16160742.074 7 -12173026.043 1
  22540681.368    -7841297.950 5  -5539678.185 1
 90 10 15 12 13 44.9970000  0  6 02 18 06 15 13 09
  20171984.962    -2672789.083 7  -2068881.706 3
  23127150.782     8181903.323 5   6356822.424 1
  19993987.978   -11087805.077 7  -8565155.870 3
  22674377.673    -9556928.009 6  -6702287.733 1
  21346094.626   -16225561.161 7 -12223534.416 1
  22529045.103    -7902433.857 5  -5587316.575 1
 90 10 15 12 13 59.9970000  0  6 02 18 06 15 13 09
  20171191.415    -2676953.955 7  -2072127.065 3
  23134259.743     8219254.321 5   6385927.103 1
  19986847.189   -11125333.912 7  -8594399.123 3
  22669795.501    -9581014.342 6  -6721056.299 1
  21333778.032   -16290287.192 7 -12273970.277 1
  22517416.032    -7963561.242 5  -5634948.294 1
 90 10 15 12 14 14.9970000  0  6 02 18 06 15 13 09
  20170408.509    -2681073.669 7  -2075337.234 3
  23141369.071     8256613.382 5   6415038.037 1
  19979719.298   -11162790.463 7  -8623586.042 3
  22665235.743    -9604970.997 6  -6739723.827 1
  21321478.181   -16354919.381 7 -12324333.011 1
  22505785.360    -8024679.625 5  -5682573.008 1
 90 10 15 12 14 29.9970000  0  6 02 18 06 15 13 09
  20169633.704    -2685147.242 7  -2078511.450 3
  23148479.259     8293981.024 5   6444155.654 1
  19972605.970   -11200173.063 7  -8652715.343 3
  22660701.751    -9628796.338 6  -6758289.026 1
  21309196.454   -16419456.344 7 -12374621.553 1
  22494156.892    -8085787.525 5  -5730189.547 1
 90 10 15 12 14 44.9970000  0  6 02 18 06 15 13 09
  20168867.064    -2689174.858 7  -2081649.853 3
  23155592.274     8331356.829 5   6473279.653 1
  19965506.274   -11237481.705 7  -8681787.009 3
  22656192.704    -9652490.248 6  -6776751.813 1
  21296934.806   -16483898.202 7 -12424835.978 1
  22482529.212    -8146884.705 5  -5777797.751 1
 90 10 15 12 14 59.9970000  0  6 02 18 06 15 13 09
  20168107.735    -2693161.124 7  -2084756.038 3
  23162704.142     8368735.755 5   6502406.063 1
  19958419.524   -11274720.913 7  -8710804.572 3
  22651709.618    -9676057.072 6  -6795115.567 1
  21284690.056   -16548249.005 7 -12474979.458 1
  22470901.821    -8207975.756 5  -5825401.165 1
 90 10 15 12 15 14.9970000  0  6 02 18 06 15 13 09
  20167358.345    -2697100.689 7  -2087825.830 3
  23169819.431     8406122.941 5   6531538.932 1
  19951346.954   -11311884.689 7  -8739763.360 3
  22647247.892    -9699491.497 6  -6813376.152 1
  21272461.767   -16612502.735 7 -12525047.289 1
  22459280.485    -8269055.027 5  -5872995.398 1
 90 10 15 12 15 29.9970000  0  6 02 18 06 15 13 09
  20166617.009    -2700994.778 7  -2090860.189 3
  23176933.009     8443516.894 5   6560677.044 1
  19944290.157   -11348974.104 7  -8768664.203 3
  22642816.071    -9722794.593 6  -6831534.407 1
  21260252.720   -16676660.649 7 -12575040.463 1
  22447659.868    -8330123.225 5  -5920580.983 1
 90 10 15 12 15 44.9970000  0  6 02 18 06 15 13 09
  20165886.751    -2704841.607 7  -2093857.716 3
  23184049.196     8480918.983 5   6589821.526 1
  19937245.126   -11385987.171 7  -8797505.551 3
  22638405.126    -9745964.470 6  -6849588.858 1
  21248062.407   -16740720.758 7 -12624957.424 1
  22436041.892    -8391178.821 5  -5968156.746 1
 90 10 15 12 15 59.9970000  0  6 02 18 06 15 13 09
  20165160.853    -2708646.126 7  -2096822.275 3
  23191168.431     8518324.099 5   6618968.342 1
  19930217.837   -11422928.267 7  -8826290.820 3
  22634021.204    -9769005.603 6  -6867542.986 1
  21235890.220   -16804687.426 7 -12674801.569 1
  22424424.251    -8452226.221 5  -6015726.134 1
 90 10 15 12 16 14.9970000  0  6 02 18 06 15 13 09
  20164446.298    -2712404.849 7  -2099751.150 3
  23198290.681     8555735.187 5   6648119.827 1
  19923200.946   -11459793.822 7  -8855017.229 3
  22629660.564    -9791914.211 6  -6885393.848 1
  21223737.040   -16868556.868 7 -12724569.967 1
  22412809.884    -8513261.829 5  -6063286.324 1
 90 10 15 12 16 29.9970000  0  6 02 18 06 15 13 09
  20163738.493    -2716119.654 7  -2102645.806 3
  23205407.298     8593150.274 5   6677274.401 1
  19916200.087   -11496585.350 7  -8883685.951 3
  22625327.962    -9814692.040 6  -6903142.804 1
  21211601.860   -16932330.770 7 -12774263.908 1
  22401198.673    -8574287.130 5  -6110838.515 1
 90 10 15 12 16 44.9970000  0  6 02 18 06 15 13 09
  20163039.985    -2719791.375 7  -2105506.893 3
  23212532.329     8630568.336 5   6706431.322 1
  19909212.813   -11533303.168 7  -8912297.241 3
  22621016.009    -9837339.893 6  -6920790.481 1
  21199484.196   -16996009.371 7 -12823883.586 1
  22389584.649    -8635302.704 5  -6158383.118 1
 90 10 15 12 16 59.9970000  0  6 02 18 06 15 13 09
  20162351.314    -2723415.986 7  -2108331.268 3
  23219652.407     8667993.093 5   6735593.462 1
  19902240.446   -11569942.922 7  -8940847.695 3
  22616733.634    -9859853.096 6  -6938333.234 1
  21187384.712   -17059588.263 7 -12873425.583 1
  22377976.579    -8696304.210 5  -6205916.761 1
 90 10 15 12 17 14.9970000  0  6 02 18 06 15 13 09
  20161668.681    -2726995.398 7  -2111120.421 3
  23226775.290     8705422.065 5   6764758.878 1
  19895283.196   -11606506.593 7  -8969338.863 3
  22612474.259    -9882233.826 6  -6955772.761 1
  21175305.110   -17123069.351 7 -12922891.345 1
  22366373.993    -8757293.496 5  -6253440.881 1
 90 10 15 12 17 29.9970000  0  6 02 18 06 15 13 09
  20160996.993    -2730531.454 7  -2113875.795 3
  23233897.524     8742853.111 5   6793925.902 1
  19888338.540   -11642995.538 7  -8997771.807 3
  22608240.118    -9904483.801 6  -6973110.412 1
  21163242.634   -17186453.921 7 -12972281.916 1
  22354769.079    -8818272.043 5  -6300956.627 1
 90 10 15 12 17 44.9970000  0  6 02 18 06 15 13 09
  20160332.259    -2734023.943 7  -2116597.213 3
  23241022.548     8780286.280 5   6823094.586 1
  19881410.657   -11679409.071 7  -9026145.990 3
  22604033.118    -9926602.552 6  -6990345.803 1
  21151199.290   -17249741.323 7 -13021596.766 1
  22343168.259    -8879239.368 5  -6348463.643 1
 90 10 15 12 17 59.9970000  0  6 02 18 06 15 13 09
  20159674.837    -2737474.138 7  -2119285.669 3
  23248144.407     8817719.960 5   6852263.679 1
  19874493.938   -11715748.335 7  -9054462.303 3
  22599847.438    -9948591.187 6  -7007479.799 1
  21139175.728   -17312932.627 7 -13070836.740 1
  22331565.118    -8940196.671 5  -6395962.829 1
 90 10 15 12 18 14.9970000  0  6 02 18 06 15 13 09
  20159027.712    -2740877.404 7  -2121937.563 3
  23255267.438     8855158.651 5   6881436.655 1
  19867595.001   -11752008.195 7  -9082716.733 3
  22595688.337    -9970444.639 6  -7024508.471 1
  21127167.931   -17376022.631 7 -13119997.768 1
  22319973.767    -9001138.708 5  -6443450.118 1
 90 10 15 12 18 29.9970000  0  6 02 18 06 15 13 09
  20158387.556    -2744240.419 7  -2124558.097 3
  23262391.056     8892595.088 5   6910607.886 1
  19860708.923   -11788194.898 7  -9110914.162 3
  22591554.868    -9992169.519 6  -7041436.941 1
  21115182.798   -17439017.840 7 -13169084.945 1
  22308375.321    -9062072.058 5  -6490930.623 1
 90 10 15 12 18 44.9970000  0  6 02 18 06 15 13 09
  20157755.478    -2747561.047 7  -2127145.607 3
  23269515.446     8930031.182 5   6939778.855 1
  19853836.618   -11824306.181 7  -9139052.823 3
  22587447.243   -10013763.328 6  -7058263.288 1
  21103212.571   -17501915.616 7 -13218096.195 1
  22296781.946    -9122994.264 5  -6538402.472 1
 90 10 15 12 18 59.9970000  0  6 02 18 06 15 13 09
  20157133.993    -2750835.691 7  -2129697.279 3
  23276643.790     8967470.113 5   6968952.028 1
  19846979.517   -11860338.140 7  -9167129.661 3
  22583361.673   -10035222.378 6  -7074984.623 1
  21091262.110   -17564712.275 7 -13267028.648 1
  22285193.337    -9183901.725 5  -6585862.833 1
 90 10 15 12 19 14.9970000  0  6 02 18 06 15 13 09
  20156517.485    -2754068.042 7  -2132215.996 3
  23283768.103     9004908.180 5   6998124.525 1
  19840138.165   -11896294.157 7  -9195147.346 3
  22579302.829   -10056550.519 6  -7091603.968 1
  21079331.821   -17627411.151 7 -13315884.909 1
  22273606.126    -9244797.595 5  -6633314.161 1
 90 10 15 12 19 29.9970000  0  6 02 18 06 15 13 09
  20155912.321    -2757250.527 7  -2134695.851 3
  23290889.759     9042352.340 5   7027301.769 1
  19833311.001   -11932166.527 7  -9223099.841 3
  22575270.735   -10077739.753 6  -7108115.045 1
  21067419.868   -17690004.365 7 -13364658.839 1
  22262019.204    -9305674.307 5  -6680750.549 1
 90 10 15 12 19 44.9970000  0  6 02 18 06 15 13 09
  20155315.071    -2760390.035 7  -2137142.220 3
  23298015.110     9079795.495 5   7056478.224 1
  19826500.360   -11967961.516 7  -9250992.036 3
  22571263.431   -10098796.514 6  -7124522.925 1
  21055528.368   -17752498.443 7 -13413355.511 1
  22250438.001    -9366538.290 5  -6728177.034 1
 90 10 15 12 19 59.9970000  0  6 02 18 06 15 13 09
  20154725.923    -2763485.407 7  -2139554.202 3
  23305139.493     9117238.447 5   7085654.569 1
  19819702.829   -12003677.646 7  -9278822.789 3
  22567281.954   -10119719.565 6  -7140826.598 1
  21043654.774   -17814891.792 7 -13461973.698 1
  22238856.642    -9427388.142 5  -6775592.511 1
 90 10 15 12 20 14.9970000  0  6 02 18 06 15 13 09
  20154144.079    -2766540.773 7  -2141935.008 3
  23312261.438     9154676.949 4   7114827.383 1
  19812921.267   -12039319.034 7  -9306595.293 3
  22563326.329   -10140512.859 6  -7157029.166 1
  21031798.603   -17877188.313 7 -13510516.435 1
  22227282.165    -9488227.773 5  -6823000.000 1
 90 10 15 12 20 29.9970000  0  6 02 18 06 15 13 09
  20153572.048    -2769548.903 7  -2144279.014 3
  23319389.165     9192117.823 5   7144002.073 1
  19806154.392   -12074877.739 7  -9334303.380 3
  22559392.915   -10161169.247 6  -7173125.052 1
  21019964.814   -17939380.398 7 -13558977.797 1
  22215707.657    -9549049.562 5  -6870393.593 1
 90 10 15 12 20 44.9970000  0  6 02 18 06 15 13 09
  20153007.642    -2772512.775 7  -2146588.519 3
  23326511.884     9229557.647 5   7173175.956 1
  19799403.063   -12110356.717 7  -9361949.333 3
  22555489.056   -10181691.440 6  -7189116.371 1
  21008150.290   -18001470.606 7 -13607359.771 1
  22204136.743    -9609856.302 5  -6917775.457 1
 90 10 15 12 20 59.9970000  0  6 02 18 06 15 13 09
  20152450.376    -2775437.397 7  -2148867.449 3
  23333637.618     9266991.383 5   7202345.070 1
  19792666.095   -12145760.464 7  -9389536.671 3
  22551608.478   -10202084.493 6  -7205007.068 1
  20996352.884   -18063463.583 7 -13655665.976 1
  22192564.064    -9670652.923 5  -6965149.421 1
 90 10 15 12 21 14.9970000  0  6 02 18 06 15 13 09
  20151902.048    -2778320.704 7  -2151114.185 3
  23340760.321     9304420.812 5   7231510.843 1
  19785944.665   -12181086.503 7  -9417063.451 3
  22547752.618   -10222345.717 6  -7220795.032 1
  20984576.103   -18125356.922 7 -13703894.558 1
  22180997.345    -9731436.646 5  -7012513.331 1
 90 10 15 12 21 29.9970000  0  6 02 18 06 15 13 09
  20151362.189    -2781159.059 7  -2153325.895 3
  23347880.712     9341849.211 4   7260675.817 1
  19779237.189   -12216331.044 7  -9444526.735 3
  22543925.118   -10242471.517 6  -7236477.474 1
  20972816.329   -18187146.931 7 -13752042.605 1
  22169437.728    -9792203.843 5  -7059864.377 1
 90 10 15 12 21 44.9970000  0  6 02 18 06 15 13 09
  20150831.548    -2783950.178 7  -2155500.790 3
  23355005.282     9379278.691 5   7289841.622 1
  19772547.189   -12251491.513 7  -9471924.504 3
  22540119.923   -10262459.173 6  -7252052.278 1
  20961079.368   -18248830.852 7 -13800107.992 1
  22157873.860    -9852952.045 5  -7107200.636 1
 90 10 15 12 21 59.9970000  0  6 02 18 06 15 13 09
  20150307.946    -2786698.577 7  -2157642.407 3
  23362126.556     9416704.263 4   7319004.399 1
  19765870.610   -12286572.064 7  -9499259.994 3
  22536342.563   -10282313.261 6  -7267522.996 1
  20949360.649   -18310413.029 7 -13848094.099 1
  22146316.853    -9913685.441 5  -7154525.372 1
 90 10 15 12 22 14.9970000  0  6 02 18 06 15 13 09
  20149793.298    -2789403.619 7  -2159750.235 3
  23369248.610     9454126.182 5   7348164.339 1
  19759211.735   -12321571.680 7  -9526532.410 3
  22532590.298   -10302032.941 6  -7282888.976 1
  20937660.524   -18371892.421 7 -13896000.117 1
  22134762.040    -9974402.995 5  -7201837.733 1
 90 10 15 12 22 29.9970000  0  6 02 18 06 15 13 09
  20149287.165    -2792064.242 7  -2161823.456 3
  23376367.040     9491545.023 5   7377321.867 1
  19752566.048   -12356489.138 7  -9553740.821 3
  22528862.282   -10321617.235 6  -7298149.465 1
  20925982.079   -18433267.677 7 -13943824.987 1
  22123213.899   -10035103.638 5  -7249136.920 1
 90 10 15 12 22 44.9970000  0  6 02 18 06 15 13 09
  20148788.438    -2794681.837 7  -2163863.139 3
  23383489.337     9528959.220 5   7406475.756 1
  19745936.595   -12391325.726 7  -9580886.203 3
  22525161.212   -10341067.038 6  -7313305.158 1
  20914321.899   -18494539.714 7 -13991569.427 1
  22111661.946   -10095788.403 5  -7296423.739 1
 90 10 15 12 22 59.9970000  0  6 02 18 06 15 13 09
  20148299.024    -2797256.310 7  -2165869.227 3
  23390609.337     9566368.729 5   7435626.016 1
  19739322.759   -12426080.647 7  -9607967.969 3
  22521486.993   -10360382.233 6  -7328355.959 1
  20902681.181   -18555707.868 7 -14039232.917 1
  22100122.579   -10156456.792 5  -7343697.810 1
 90 10 15 12 23 14.9970000  0  6 02 18 06 15 13 09
  20147817.774    -2799790.124 7  -2167843.632 3
  23397723.017     9603770.623 5   7464770.339 1
  19732724.228   -12460756.013 7  -9634987.736 3
  22517835.204   -10379565.098 6  -7343303.645 1
  20891060.571   -18616774.787 7 -14086817.529 1
  22088579.212   -10217111.132 5  -7390960.927 1
 90 10 15 12 23 29.9970000  0  6 02 18 06 15 13 09
  20147343.063    -2802282.989 7  -2169786.123 3
  23404837.384     9641164.942 5   7493908.739 1
  19726140.384   -12495351.574 7  -9661945.315 3
  22514210.579   -10398615.127 6  -7358147.825 1
  20879460.735   -18677739.580 7 -14134322.554 1
  22077036.603   -10277750.865 5  -7438212.655 1
 90 10 15 12 23 44.9970000  0  6 02 18 06 15 13 09
  20146877.149    -2804728.851 7  -2171691.989 3
  23411956.868     9678557.555 5   7523045.802 1
  19719575.134   -12529860.739 7  -9688835.571 3
  22510612.876   -10417526.113 6  -7372883.655 1
  20867879.524   -18738596.199 7 -14181743.296 1
  22065502.017   -10338369.734 5  -7485448.128 1
 90 10 15 12 23 59.9970000  0  6 02 18 06 15 13 09
  20146419.439    -2807132.733 7  -2173565.149 3
  23419070.587     9715943.081 5   7552177.389 1
  19713022.782   -12564288.181 7  -9715662.150 3
  22507037.345   -10436303.074 6  -7387515.059 1
  20856318.853   -18799349.098 7 -14229083.215 1
  22053969.196   -10398972.159 5  -7532670.798 1
 90 10 15 12 24 14.9970000  0  6 02 18 06 15 13 09
  20145969.634    -2809494.109 7  -2175405.190 3
  23426184.181     9753321.609 5   7581303.495 1
  19706487.595   -12598633.112 7  -9742424.431 3
  22503489.860   -10454945.585 6  -7402041.691 1
  20844778.126   -18859997.286 7
  22042440.149   -10459557.572 5
 90 10 15 12 24 29.9970000  0  6 02 18 06 15 13 09
  20145529.446    -2811816.031 7  -2177214.484 3
  23433295.423     9790689.768 5   7610421.519 1
  19699967.009   -12632898.225 7  -9769124.517 3
  22499967.056   -10473456.319 6  -7416465.643 1
  20833256.720   -18920543.863 7
  22030913.540   -10520128.882 5
 90 10 15 12 24 44.9960000  0  6 02 18 06 15 13 09
  20145094.402    -2814093.906 7  -2178989.458 3
  23440403.027     9828049.406 5   7639532.920 1
  19693463.559   -12667076.785 7  -9795757.167 3
  22496473.106   -10491829.502 6  -7430782.414 1
  20821756.441   -18980979.673 7 -14370613.517 1
  22019391.965   -10580677.107 5  -7674259.061 1
 90 10 15 12 24 59.9960000  0  6 02 18 06 15 13 09
  20144670.176    -2816328.480 7  -2180730.687 3
  23447512.535     9865404.464 5   7668640.730 1
  19686974.582   -12701173.136 7  -9822325.755 3
  22493000.348   -10510067.693 6  -7444993.989 1
  20810275.027   -19041313.124 7 -14417626.589 1
  22007874.168   -10641210.781 5  -7721428.157 1
 90 10 15 12 25 14.9960000  0  6 02 18 06 15 13 09
  20144253.410    -2818518.916 7  -2182437.531 3
  23454619.121     9902753.168 5   7697743.629 1
  19680503.168   -12735184.156 7  -9848827.847 3
  22489557.051   -10528168.831 6  -7459098.775 1
  20798813.801   -19101539.339 7 -14464556.103 1
  21996358.582   -10701724.807 5  -7768581.925 1
 90 10 15 12 25 29.9960000  0  6 02 18 06 15 13 09
  20143843.738    -2820667.870 7  -2184112.045 3
  23461722.902     9940092.399 5   7726839.114 1
  19674046.316   -12769112.372 7  -9875265.414 3
  22486139.324   -10546135.635 6  -7473098.891 1
  20787373.449   -19161660.469 7 -14511403.727 1
  21984846.379   -10762221.461 5  -7815722.170 1
 90 10 15 12 25 44.9960000  0  6 02 18 06 15 13 09
  20143442.434    -2822775.239 7  -2185754.154 3
  23468827.832     9977422.048 5   7755927.112 1
  19667606.152   -12802957.097 7  -9901637.927 3
  22482744.387   -10563967.589 6  -7486993.921 1
  20775954.488   -19221675.980 7 -14558169.060 1
  21973338.324   -10822700.238 5  -7862848.480 1
 90 10 15 12 25 59.9960000  0  6 02 18 06 15 13 09
  20143051.340    -2824837.297 7  -2187360.961 3
  23475928.816    10014745.400 5   7785010.265 1
  19661181.254   -12836714.197 7  -9927942.162 3
  22479376.426   -10581661.031 6  -7500781.023 1
  20764554.582   -19281581.991 7 -14604849.060 1
  21961832.871   -10883157.363 5  -7909957.932 1
 90 10 15 12 26 14.9960000  0  6 02 18 06 15 13 09
  20142666.129    -2826854.670 7  -2188932.945 3
  23483031.426    10052061.542 5   7814087.757 1
  19654775.730   -12870384.269 7  -9954178.575 3
  22476037.699   -10599216.588 6  -7514460.689 1
  20753174.090   -19341379.013 7 -14651444.140 1
  21950334.848   -10943593.169 5  -7957050.757 1
 90 10 15 12 26 29.9960000  0  6 02 18 06 15 13 09
  20142291.691    -2828828.761 7  -2190471.205 3
  23490129.379    10089368.748 5   7843158.294 1
  19648383.746   -12903968.406 7  -9980348.034 3
  22472721.957   -10616635.443 6  -7528033.821 1
  20741815.809   -19401068.052 7 -14697955.072 1
  21938835.121   -11004008.899 5  -8004127.946 1
 90 10 15 12 26 44.9960000  0  6 02 18 06 15 13 09
  20141924.301    -2830758.041 7  -2191974.544 3
  23497230.527    10126668.457 5   7872222.979 1
  19642009.512   -12937464.536 7 -10006448.907 3
  22469434.371   -10633915.749 6  -7541498.999 1
  20730478.543   -19460647.138 7 -14744380.330 1
  21927344.863   -11064402.412 5  -8051187.823 1
 90 10 15 12 26 59.9960000  0  6 02 18 06 15 13 09
  20141564.082    -2832651.651 7  -2193450.078 3
  23504322.793    10163951.171 5   7901274.458 1
  19635650.262   -12970881.442 7 -10032488.046 3
  22466170.762   -10651066.377 6  -7554863.137 1
  20719160.176   -19520125.168 7 -14790726.839 1
  21915853.559   -11124782.685 5  -8098237.395 1
 90 10 15 12 27 14.9960000  0  6 02 18 06 15 13 09
  20141210.574    -2834502.899 7  -2194892.615 3
  23511416.410    10201223.105 5   7930317.479 1
  19629309.059   -13004212.392 7 -10058460.215 3
  22462934.254   -10668080.662 6  -7568121.026 1
  20707862.559   -19579495.356 7 -14836989.317 1
  21904368.754   -11185142.899 5  -8145271.313 1
 90 10 15 12 27 29.9960000  0  6 02 18 06 15 13 09
  20140867.699    -2836307.905 7  -2196299.121 3
  23518506.191    10238487.818 5   7959354.923 1
  19622983.012   -13037453.194 7 -10084362.135 3
  22459721.902   -10684954.715 6  -7581269.636 1
  20696584.934   -19638753.286 7 -14883164.327 1
  21892890.168   -11245478.767 5  -8192286.279 1
 90 10 15 12 27 44.9960000  0  6 02 18 06 15 13 09
  20140531.590    -2838073.961 7  -2197675.272 3
  23525594.738    10275737.801 5   7988380.848 1
  19616673.348   -13070610.747 7 -10110199.186 3
  22456535.777   -10701696.130 6  -7594314.897 1
  20685330.129   -19697906.131 7 -14929257.444 1
  21881408.941   -11305797.480 5  -8239287.875 1
 90 10 15 12 27 59.9960000  0  6 02 18 06 15 13 09
  20140205.645    -2839793.377 7  -2199015.082 3
  23532682.637    10312980.521 4   8017401.125 1
  19610380.645   -13103676.953 7 -10135965.059 3
  22453376.238   -10718296.492 6  -7607250.261 1
  20674094.121   -19756945.649 7 -14975262.258 1
  21869934.160   -11366090.997 5  -8286269.823 1
 90 10 15 12 28 14.9960000  0  6 02 18 06 15 13 09
  20139884.613    -2841475.667 7  -2200325.964 3
  23539763.027    10350206.027 3   8046408.010 1
  19604103.793   -13136661.310 7 -10161667.153 3
  22450245.020   -10734765.465 6  -7620083.230 1
  20662880.082   -19815881.289 7 -15021186.132 1
  21858463.566   -11426368.569 5  -8333239.350 1
 90 10 15 12 28 29.9960000  0  6 02 18 06 15 13 09
  20139572.941    -2843113.862 7  -2201602.491 3
  23546848.957    10387421.093 4   8075406.743 1
  19597843.543   -13169556.495 7 -10187299.767 3
  22447133.691   -10751096.189 6  -7632808.481 1
  20651686.590   -19874705.725 7 -15067023.350 1
  21846996.363   -11486622.959 5  -8380190.831 1
 90 10 15 12 28 44.9960000  0  6 02 18 06 15 13 09
  20139269.488    -2844704.852 7  -2202842.232 3
  23553930.098    10424628.422 4   8104399.446 1
  19591602.168   -13202358.799 7 -10212860.003 3
  22444054.629   -10767284.754 6  -7645422.956 1
  20640513.934   -19933415.488 7 -15112771.212 1
  21835536.121   -11546850.734 5  -8427121.558 1
 90 10 15 12 28 59.9960000  0  6 02 18 06 15 13 09
  20138975.730    -2846254.998 7  -2204050.137 3
  23561006.199    10461821.311 3   8133380.921 1
  19585377.231   -13235074.541 7 -10238352.789 3
  22441000.926   -10783337.876 6  -7657931.895 1
  20629362.918   -19992016.634 7 -15158434.437 1
  21824078.738   -11607058.042 5  -8474036.358 1
 90 10 15 12 29 14.9960000  0  6 02 18 06 15 13 09
  20138688.418    -2847765.762 7  -2205227.362 3
  23568081.793    10498998.255 3   8162349.895 1
  19579166.996   -13267704.658 7 -10263778.856 3
  22437970.574   -10799256.661 6  -7670336.154 1
  20618231.059   -20050510.471 7 -15204014.046 1
  21812626.395   -11667245.847 6  -8520935.952 1
 90 10 15 12 29 29.9960000  0  6 02 18 06 15 13 09
  20138407.934    -2849237.327 7  -2206374.045 3
  23575155.934    10536158.691 4   8191306.060 1
  19572974.418   -13300248.964 7 -10289138.056 3
  22434966.285   -10815040.945 6  -7682635.601 1
  20607121.965   -20108896.691 7 -15249509.794 1
  21801177.527   -11727414.036 6  -8567820.242 1
 90 10 15 12 29 44.9960000  0  6 02 18 06 15 13 09
  20138136.566    -2850662.928 7  -2207484.908 3
  23582223.621    10573308.701 3   8220254.100 1
  19566800.066   -13332700.647 7 -10314425.082 3
  22431992.184   -10830684.072 6  -7694825.059 1
  20596031.738   -20167168.341 7 -15294916.266 1
  21789735.457   -11787555.811 6  -8614683.954 1
 90 10 15 12 29 59.9960000  0  6 02 18 06 15 13 09
  20137873.535    -2852043.810 7  -2208560.932 3
  23589288.707    10610447.143 4   8249193.127 1
  19560640.988   -13365060.604 7 -10339640.634 3
  22429040.902   -10846187.290 6  -7706905.495 1
  20584963.410   -20225326.467 7 -15340234.278 1
  21778292.809   -11847671.980 5  -8661527.718 1
 90 10 15 12 30 14.9960000  0  6 02 18 06 15 13 09
  20137619.715    -2853381.941 7  -2209603.640 3
  23596358.715    10647571.671 4   8278121.301 1
  19554500.691   -13397330.537 7 -10364786.037 3
  22426114.340   -10861552.616 6  -7718878.497 1
  20573919.160   -20283372.764 7 -15385465.144 1
  21766856.074   -11907764.402 6  -8708352.983 1
 90 10 15 12 30 29.9960000  0  6 02 18 06 15 13 09
  20137371.348    -2854678.149 7  -2210613.676 3
  23603413.902    10684681.166 3   8307037.793 1
  19548376.777   -13429510.961 7 -10389861.687 3
  22423219.277   -10876780.773 6  -7730744.603 1
  20562893.387   -20341307.940 7 -15430609.429 1
  21755429.262   -11967833.568 6  -8755160.131 1
 90 10 15 12 30 44.9960000  0  6 02 18 06 15 13 09
  20137132.582    -2855935.514 7  -2211593.444 3
  23610475.746    10721771.762 3   8335939.536 1
  19542269.840   -13461604.704 7 -10414869.798 3
  22420345.145   -10891874.725 6  -7742506.132 1
  20551889.418   -20399134.775 7 -15475669.295 1
  21744000.027   -12027882.461 5  -8801951.477 1
 90 10 15 12 30 59.9960000  0  6 02 18 06 15 13 09
  20136901.301    -2857153.862 7  -2212542.808 3
  23617529.402    10758843.773 4   8364826.761 1
  19536177.934   -13493611.289 7 -10439809.996 3
  22417499.355   -10906834.160 6  -7754162.848 1
  20540906.098   -20456852.605 7 -15520644.217 1
  21732579.496   -12087910.282 6  -8848726.401 1
 90 10 15 12 31 14.9960000  0  6 02 18 06 15 13 09
  20136676.410    -2858331.174 7  -2213460.198 3
  23624582.098    10795898.928 4   8393700.901 1
  19530105.613   -13525528.384 7 -10464680.457 3
  22414679.402   -10921657.301 6  -7765713.362 1
  20529944.918   -20514459.126 7 -15565532.417 1
  21721156.066   -12147914.960 5  -8895483.295 1
 90 10 15 12 31 29.9960000  0  6 02 18 06 15 13 09
  20136460.801    -2859464.761 7  -2214343.519 3
  23631626.770    10832939.539 3   8422563.723 1
  19524049.527   -13557352.865 7 -10489478.757 3
  22411886.434   -10936340.641 6  -7777154.929 1
  20519003.301   -20571951.495 7 -15610331.660 1
  21709746.207   -12207893.590 5  -8942219.876 1
 90 10 15 12 31 44.9960000  0  6 02 18 06 15 13 09
  20136253.926    -2860554.705 7  -2215192.836 3
  23638674.184    10869965.097 3   8451414.797 1
  19518011.254   -13589084.631 7 -10514204.811 3
  22409115.504   -10950884.359 6  -7788487.708 1
  20508084.832   -20629329.491 7 -15655041.782 1
  21698336.699   -12267845.624 6  -8988935.739 1
 90 10 15 12 31 59.9960000  0  6 02 18 06 15 13 09
  20136054.262    -2861600.780 7  -2216007.963 3
  23645715.160    10906975.877 3   8480254.333 1
  19511990.387   -13620723.106 7 -10538858.163 3
  22406377.020   -10965288.391 6  -7799711.638 1
  20497188.457   -20686592.621 7 -15699662.391 1
  21686932.207   -12327770.773 6  -9035630.667 1
 90 10 15 12 32 14.9960000  0  6 02 18 06 15 13 09
  20135865.988    -2862600.632 7  -2216787.075 3
  23652760.121    10943973.966 4   8509083.991 1
  19505987.699   -13652265.436 7 -10563436.604 3
  22403664.004   -10979550.254 6  -7810824.795 1
  20486313.473   -20743737.940 7 -15744191.207 1
  21675537.066   -12387666.303 5  -9082302.505 1
 90 10 15 12 32 29.9960000  0  6 02 18 06 15 13 09
  20135683.004    -2863560.291 7  -2217534.867 3
  23659793.457    10980952.779 3   8537898.622 1
  19500001.824   -13683717.546 7 -10587944.739 3
  22400973.121   -10993675.639 6  -7821831.592 1
  20475460.223   -20800771.532 7 -15788632.960 1
  21664144.481   -12447538.027 6  -9128955.779 1
 90 10 15 12 32 44.9960000  0  6 02 18 06 15 13 09
  20135507.059    -2864476.629 7  -2218248.904 3
  23666827.574    11017915.332 4   8566700.617 1
  19494035.949   -13715076.055 7 -10612379.942 3
  22398312.582   -11007661.498 6  -7832729.683 1
  20464629.285   -20857689.903 7 -15832984.932 1
  21652755.746   -12507382.427 6  -9175587.768 1
 90 10 15 12 32 59.9960000  0  6 02 18 06 15 13 09
  20135341.793    -2865350.607 7  -2218929.930 3
  23673857.566    11054860.127 4   8595488.699 1
  19488086.176   -13746341.663 7 -10636742.760 3
  22395678.723   -11021508.858 6  -7843519.853 1
  20453821.113   -20914494.017 7 -15877247.870 1
  21641373.035   -12567200.544 5  -9222199.282 1
 90 10 15 12 33 14.9960000  0  6 02 18 06 15 13 09
  20135184.152    -2866181.196 7  -2219577.147 3
  23680885.418    11091787.636 4   8624263.366 1
  19482153.855   -13777513.069 7 -10661032.165 3
  22393068.027   -11035216.435 6  -7854201.090 1
  20443032.652   -20971182.402 7 -15921420.632 1
  21629993.949   -12626990.751 5  -9268789.038 1
 90 10 15 12 33 29.9960000  0  6 02 18 06 15 13 09
  20135032.277    -2866971.141 7  -2220192.702 3
  23687909.309    11128695.081 4   8653022.390 1
  19476240.012   -13808592.684 7 -10685250.050 3
  22390485.012   -11048786.915 6  -7864775.503 1
  20432267.410   -21027757.233 7 -15965504.903 1
  21618621.895   -12686755.556 5  -9315359.010 1
 90 10 15 12 33 44.9960000  0  6 02 18 06 15 13 09
  20134889.949    -2867717.608 7  -2220774.368 3
  23694926.316    11165585.199 4
  19470344.106   -13839577.269 7 -10709393.881 3
  22387931.809   -11062217.393 6  -7875240.826 1
  20421522.676   -21084215.699 7 -16009498.516 1
  21607255.457   -12746491.844 6  -9361906.757 1
 90 10 15 12 33 59.9960000  0  6 02 18 06 15 13 09
  20134757.879    -2868424.396 7  -2221325.117 3
  23701942.934    11202453.703 4
  19464464.965   -13870470.319 7 -10733466.386 3
  22385401.543   -11075511.630 6  -7885599.974 1
  20410801.504   -21140561.291 7 -16053404.163 1
  21595889.059   -12806203.155 6  -9408435.032 1
 90 10 15 12 34 14.9960000  0  6 02 18 06 15 13 09
  20134628.098    -2869093.313 7  -2221846.357 3
  23708957.965    11239298.369 5
  19458603.496   -13901273.614 7 -10757468.951 3
  22382895.816   -11088671.352 6  -7895854.324 1
  20400098.848   -21196795.618 7 -16097223.117 1
  21584530.848   -12865890.926 6  -9454944.978 1
 90 10 15 12 34 29.9960000  0  6 02 18 06 15 13 09
  20134510.520    -2869720.684 7  -2222335.227 3
  23715963.879    11276122.702 5        -0.46611
  19452759.402   -13931982.926 7 -10781398.289 3
  22380420.473   -11101692.834 6  -7906000.957 1
  20389420.332   -21252914.611 7 -16140952.204 1
  21573181.543   -12925551.449 6  -9501433.683 1
 90 10 15 12 34 44.9960000  0  6 02 18 06 15 13 09
  20134399.238    -2870307.896 7  -2222792.808 3
  23722967.762    11312925.220 5     28676.763 1
  19446933.035   -13962599.387 7 -10805255.268 3
  22377968.332   -11114577.262 6  -7916040.775 1
  20378763.621   -21308919.478 7 -16184592.349 1
  21561831.770   -12985185.513 6  -9547901.765 1
 90 10 15 12 34 59.9960000  0  6 02 18 06 15 13 09
  20134294.277    -2870854.331 7  -2223218.604 3
  23729964.184    11349706.176 5     57337.274 1
  19441125.590   -13993122.115 7 -10829039.215 3
  22375540.637   -11127323.743 6  -7925973.115 1
  20368127.707   -21364809.390 7 -16228142.931 1
  21550489.184   -13044792.371 6  -9594348.655 1
 90 10 15 12 35 14.9960000  0  6 02 18 06 15 13 09
  20134197.676    -2871359.050 7  -2223611.895 3
  23736957.699    11386465.877 5
  19435334.996   -14023549.989 7 -10852749.250 3
  22373142.660   -11139931.649 6  -7935797.472 1
  20357513.645   -21420583.246 7 -16271603.088 1
  21539153.488   -13104370.846 6  -9640773.429 1
 90 10 15 12 35 29.9960000  0  6 02 18 06 15 13 09
  20134110.449    -2871817.620 7  -2223969.233 3
  23743953.957    11423208.516 5
  19429562.926   -14053878.235 7 -10876381.646 3
  22370770.129   -11152396.856 6  -7945510.642 1
  20346925.527   -21476236.298 7 -16314969.099 1
  21527818.988   -13163916.237 6  -9687172.429 1
 90 10 15 12 35 44.9960000  0  5 02 06 15 13 09
  20134032.332    -2872235.582 7  -2224294.926 3
  19423809.988   -14084112.097 7 -10899940.493 3
  22368423.887   -11164724.407 6  -7955116.535 1
  20336355.785   -21531773.779 7 -16358245.053 1
  21516496.090   -13223433.762 6  -9733549.699 1
 90 10 15 12 35 59.9960000  0  5 02 06 15 13 09
  20133961.207    -2872608.832 7  -2224585.778 3
  19418074.918   -14114247.183 7 -10923422.375 3
  22366105.770   -11176909.727 6  -7964611.610 1
  20325809.621   -21587191.530 7 -16401427.707 1
  21505174.582   -13282918.895 6  -9779901.741 1
 90 10 15 12 36 14.9960000  0  5 02 06 15 13 09
  20133897.371    -2872939.067 7  -2224843.111 3
  19412360.309   -14144284.646 7 -10946828.197 3
  22363814.762   -11188954.889 6  -7973997.467 1
  20315287.191   -21642490.648 7 -16444517.915 1
  21493857.840   -13342372.939 6  -9826229.558 1
 90 10 15 12 36 29.9960000  0  5 02 06 15 13 09
  20133844.598    -2873227.671 7  -2225068.003 3
  19406661.949   -14174225.751 7 -10970158.925 3
  22361547.293   -11200860.968 6  -7983274.947 1
  20304785.934   -21697672.313 7 -16487516.602 1
  21482552.254   -13401797.266 6  -9872534.228 1
 90 10 15 12 36 44.9960000  0  5 02 06 15 13 09
  20133792.457    -2873478.629 7  -2225263.567 3
  19400982.535   -14204074.293 7 -10993417.527 3
  22359308.699   -11212631.815 6  -7992447.051 1
  20294307.488   -21752740.354 7 -16530426.770 1
  21471250.199   -13461195.517 6  -9918818.566 1
 90 10 15 12 36 59.9960000  0  5 02 06 15 13 09
  20133753.832    -2873689.064 7
  19395321.152   -14233827.039 7 -11016601.481 3
  22357096.090   -11224264.891 6  -8001511.797 1
  20283850.441   -21807691.845 7 -16573246.104 1
  21459954.543   -13520564.568 6  -9965080.145 1
 90 10 15 12 37 14.9960000  0  5 02 06 15 13 09
  20133720.887    -2873858.520 7
  19389676.684   -14263483.556 7 -11039710.452 3
  22354906.426   -11235759.630 6  -8010468.753 1
  20273414.652   -21862526.210 7 -16615974.171 1
  21448662.355   -13579903.507 6 -10011318.272 1
 90 10 15 12 37 29.9960000  0  5 02 06 15 13 09
  20133699.731    -2873982.260 7
  19384052.731   -14293038.474 7 -11062740.257 3
  22352747.527   -11247111.306 6  -8019314.230 1
  20263003.418   -21917238.027 7 -16658606.748 1
  21437378.020   -13639207.417 6 -10057529.113 1
 90 10 15 12 37 44.9960000  0  5 02 06 15 13 09
  20133684.223    -2874063.678 7
  19378447.418   -14322494.844 7 -11085693.270 3
  22350613.418   -11258323.155 6  -8028050.744 1
  20252615.660   -21971830.397 7 -16701146.247 1
  21426098.481   -13698479.281 6 -10103714.963 1
 90 10 15 12 37 59.9960000  0  5 02 06 15 13 09
  20133674.215    -2874105.123 7
  19372859.582   -14351854.928 7 -11108571.261 3
  22348506.324   -11269397.458 6  -8036680.087 1
  20242250.598   -22026305.640 7 -16743594.482 1
  21414826.238   -13757721.286 6 -10149877.553 1
 90 10 15 12 38 14.9960000  0  5 02 06 15 13 09
  20133674.910    -2874105.975 7
  19367291.066   -14381117.924 7 -11131373.594 3
  22346425.441   -11280333.703 6  -8045201.853 1
  20231905.004   -22080663.227 7 -16785951.035 1
  21403557.410   -13816932.776 6 -10196016.375 1
 90 10 15 12 38 29.9960000  0  5 02 06 15 13 09
  20133683.863    -2874063.680 7
  19361743.082   -14410280.908 7 -11154097.995 3
  22344371.340   -11291129.446 6  -8053614.136 1
  20221584.996   -22134900.108 7 -16828213.533 1
  21392293.246   -13876110.529 6 -10242128.903 1
 90 10 15 12 38 44.9960000  0  5 02 06 15 13 09
  20133699.887    -2873984.249 7
  19356210.809   -14439349.522 7 -11176748.866 3
  22342341.418   -11301790.305 6  -8061921.313 1
  20211286.277   -22189021.870 7 -16870386.329 1
  21381038.012   -13935260.471 6 -10288219.764 1
 90 10 15 12 38 59.9960000  0  5 02 06 15 13 09
  20133721.840    -2873864.546 7
  19350697.699   -14468320.205 7 -11199323.430 3
  22340339.277   -11312312.859 6  -8070120.726 1
  20201008.582   -22243025.366 7 -16912466.969 1
  21369789.559   -13994378.931 6 -10334286.093 1
 90 10 15 12 39 14.9960000  0  5 02 06 15 13 09
  20133751.676    -2873700.870 7
  19345204.863   -14497189.283 7 -11221818.814 3
  22338364.441   -11322693.580 6  -8078209.606 1
  20190755.832   -22296906.694 7 -16954452.418 1
  21358544.762   -14053462.074 6 -10380324.896 1
 90 10 15 12 39 29.9960000  0  5 02 06 15 13 09
  20133790.699    -2873492.711 7
  19339729.606   -14525955.658 7 -11244234.176 3
  22336417.418   -11332931.960 6  -8086187.576 1
  20180526.441   -22350664.908 7 -16996341.933 1
  21347308.895   -14112508.966 6 -10426335.461 1
 90 10 15 12 39 44.9960000  0  5 02 06 15 13 09
  20133841.395    -2873245.138 7
  19334274.668   -14554624.328 7 -11266573.396 3
  22334496.613   -11343033.011 6  -8094058.542 1
  20170318.668   -22404304.995 7 -17038139.398 2
  21336078.566   -14171524.537 6 -10472321.617 1
 90 10 15 12 39 59.9960000  0  5 02 06 15 13 09
  20133894.105    -2872956.049 7
  19328838.676   -14583192.699 7 -11288834.468 3
  22332597.090   -11352994.650 6  -8101820.870 1
  20160132.746   -22457824.411 7 -17079842.842 1
  21324854.754   -14230506.208 6 -10518281.355 1
 90 10 15 12 40 14.9960000  0  5 02 06 15 13 09
  20133958.910    -2872623.459 7        -0.28713
  19323421.137   -14611659.013 7 -11311016.006 3
  22330728.637   -11362815.113 6  -8109473.199 1
  20149973.926   -22511221.419 7 -17121450.902 1
  21313636.113   -14289452.000 6 -10564213.134 1
 90 10 15 12 40 29.9960000  0  5 02 06 15 13 09
  20134031.106    -2872246.647 7       293.328 3
  19318024.160   -14640021.745 7 -11333116.836 3
  22328889.004   -11372493.501 6  -8117014.805 1
  20139833.848   -22564494.742 7 -17162962.579 1
  21302430.793   -14348360.631 6 -10610115.963 1
 90 10 15 12 40 44.9960000  0  5 02 06 15 13 09
  20134108.965    -2871833.471 7       615.279 3
  19312644.113   -14668288.586 7 -11355142.948 3
  22327071.395   -11382037.299 6  -8124451.549 1
  20129719.785   -22617651.969 7 -17204383.788 1
  21291222.668   -14407239.733 6 -10655995.779 1
 90 10 15 12 40 59.9960000  0  5 02 06 15 13 09
  20134194.020    -2871376.543 7       971.320 3
  19307285.949   -14696452.328 7 -11377088.722 3
  22325281.707   -11391439.483 6  -8131777.938 1
  20119628.387   -22670685.664 7 -17245708.740 2
  21280025.824   -14466081.913 6 -10701846.817 1
 90 10 15 12 41 14.9960000  0  5 02 06 15 13 09
  20134291.387    -2870875.775 7      1361.520 3
  19301945.645   -14724512.167 7 -11398953.535 3
  22323521.996   -11400699.807 6  -8138993.785 1
  20109559.574   -22723595.387 7 -17286937.089 2
  21268834.387   -14524886.527 6 -10747668.589 1
 90 10 15 12 41 29.9960000  0  5 02 06 15 13 09
  20134394.051    -2870334.697 7      1783.126 3
  19296626.215   -14752471.381 7 -11420739.932 3
  22321786.504   -11409821.812 6  -8146101.857 1
  20099514.215   -22776384.329 7 -17328071.318 2
  21257652.301   -14583656.708 6 -10793463.528 1
 90 10 15 12 41 44.9960000  0  5 02 06 15 13 09
  20134506.176    -2869751.351 7      2237.677 3
  19291324.848   -14780327.594 7 -11442446.075 3
  22320075.106   -11418803.771 6  -8153100.798 1
  20089491.512   -22829050.467 7 -17369109.863 2
  21246476.301   -14642390.254 6 -10839229.925 1
 90 10 15 12 41 59.9960000  0  5 02 06 15 13 09
  20134622.559    -2869127.947 7      2723.438 3
  19286043.113   -14808083.212 7 -11464073.834 3
  22318391.457   -11427647.475 6  -8159992.012 1
  20079492.231   -22881595.842 7 -17410054.307 2
  21235305.434   -14701089.043 6 -10884969.231 1
 90 10 15 12 42 14.9960000  0  5 02 06 15 13 09
  20134749.129    -2868466.144 7      3239.119 3
  19280780.270   -14835739.289 7 -11485624.026 3
  22316737.285   -11436354.588 6  -8166776.792 1
  20069516.645   -22934021.818 7 -17450905.700 2
  21224142.574   -14759754.743 6 -10930682.765 1
 90 10 15 12 42 29.9960000  0  5 02 06 15 13 09
  20134881.191    -2867763.542 7      3786.591 3
  19275536.535   -14863293.088 7 -11507094.517 3
  22315105.035   -11444922.803 6  -8173453.340 1
  20059563.816   -22986325.713 7 -17491661.975 2
  21212983.809   -14818384.520 6 -10976368.303 1
 90 10 15 12 42 44.9960000  0  5 02 06 15 13 09
  20135024.199    -2867020.569 7      4365.527 3
  19270313.176   -14890745.059 7 -11528485.670 3
  22313500.371   -11453352.577 6  -8180022.012 1
  20049633.848   -23038507.835 7 -17532323.358 2
  21201835.145   -14876978.169 6 -11022025.690 1
 90 10 15 12 42 59.9960000  0  5 02 06 15 13 09
  20135172.473    -2866236.990 7      4976.098 3
  19265107.949   -14918094.483 7 -11549796.909 3
  22311922.590   -11461643.945 6  -8186482.818 1
  20039726.535   -23090567.919 7 -17572889.649 2
  21190691.598   -14935535.574 6 -11067654.827 1
 90 10 15 12 43 14.9960000  0  5 02 06 15 13 09
  20135329.723    -2865408.223 7      5621.888 3
  19259925.145   -14945336.599 7 -11571024.537 3
  22310371.645   -11469791.870 6  -8192831.856 1
  20029843.777   -23142500.978 7 -17613356.953 2
  21179558.746   -14994051.768 6 -11113251.851 1
 90 10 15 12 43 29.9960000  0  5 02 06 15 13 09
  20135497.207    -2864537.468 7      6300.391 3
  19254760.504   -14972474.424 7 -11592170.897 3
  22308851.082   -11477799.624 6  -8199071.682 1
  20019984.856   -23194310.231 7 -17653727.811 2
  21168428.215   -15052529.671 6 -11158819.037 1
 90 10 15 12 43 44.9960000  0  5 02 06 15 13 09
  20135670.184    -2863627.935 7      7009.112 3
  19249615.090   -14999510.727 7 -11613238.143 3
  22307351.410   -11485670.510 6  -8205204.843 1
  20010149.621   -23245998.495 7 -17694004.378 2
  21157308.699   -15110971.943 6 -11204358.471 1
 90 10 15 12 43 59.9960000  0  5 02 06 15 13 09
  20135850.363    -2862678.000 7      7749.319 3
  19244491.043   -15026443.614 7 -11634224.811 3
  22305878.137   -11493402.394 6  -8211229.709 1
  20000336.731   -23297563.869 7 -17734185.176 2
  21146193.348   -15169376.836 6 -11249868.766 1
 90 10 15 12 44 14.9960000  0  5 02 06 15 13 09
  20136039.090    -2861686.741 7      8521.720 3
  19239385.785   -15053271.917 7 -11655129.983 3
  22304434.699   -11500995.009 6  -8217146.049 1
  19990547.340   -23349005.383 7 -17774269.464 2
  21135087.051   -15227743.102 6 -11295348.971 1
 90 10 15 12 44 29.9960000  0  5 02 06 15 13 09
  20136236.113    -2860650.258 7      9329.357 3
  19234300.488   -15079991.482 7 -11675950.424 3
  22303017.520   -11508444.549 6  -8222950.897 1
  19980781.895   -23400319.070 7 -17814254.146 2
  21123990.012   -15286066.646 6 -11340795.879 1
 90 10 15 12 44 44.9960000  0  5 02 06 15 13 09
  20136441.207    -2859573.150 7     10168.658 3
  19229235.762   -15106606.626 7 -11696689.497 3
  22301627.152   -11515755.463 6  -8228647.719 1
  19971041.895   -23451509.016 7 -17854142.405 2
  21112897.934   -15344351.442 6 -11386212.600 1
 90 10 15 12 44 59.9960000  0  5 02 06 15 13 09
  20136654.238    -2858455.573 7     11039.491 3
  19224190.262   -15133117.357 7 -11717347.211 3
  22300260.918   -11522927.840 6  -8234236.621 1
  19961323.598   -23502575.217 7 -17893934.242 2
  21101812.543   -15402597.680 6 -11431599.282 1
 90 10 15 12 45 14.9960000  0  5 02 06 15 13 09
  20136873.676    -2857300.710 7     11939.375 3
  19219166.145   -15159526.577 7 -11737925.824 3
  22298922.246   -11529964.786 6  -8239719.974 1
  19951628.449   -23553520.883 7 -17933632.152 2
  21090736.934   -15460808.071 6 -11476958.024 1
 90 10 15 12 45 29.9960000  0  5 02 06 15 13 09
  20137103.887    -2856100.387 7     12874.682 3
  19214160.621   -15185825.749 7 -11758418.686 3
  22297611.051   -11536858.047 6  -8245091.360 1
  19941958.004   -23604337.610 7 -17973229.586 2
  21079668.902   -15518974.142 6 -11522282.228 1
 90 10 15 12 45 44.9960000  0  5 02 06 15 13 09
  20137338.301    -2854859.201 7     13841.834 3
  19209175.785   -15212019.294 7 -11778829.236 3
  22296325.926   -11543612.617 6  -8250354.663 1
  19932312.973   -23655029.526 7 -18012729.777 2
  21068607.027   -15577100.452 6 -11567575.446 1
 90 10 15 12 45 59.9960000  0  5 02 06 15 13 09
  20137581.301    -2853578.840 7     14839.510 3
  19204210.996   -15238108.559 7 -11799158.533 3
  22295067.848   -11550229.733 6  -8255510.865 1
  19922690.559   -23705598.182 7 -18052133.921 2
  21057552.465   -15635187.963 6 -11612838.435 1
 90 10 15 12 46 14.9960000  0  5 02 06 15 13 09
  20137833.332    -2852256.192 7     15870.138 3
  19199266.645   -15264090.331 7 -11819404.068 3
  22293833.332   -11556706.789 6  -8260557.925 1
  19913092.426   -23756040.590 7 -18091439.688 2
  21046505.629   -15693233.757 6 -11658068.916 1
 90 10 15 12 46 29.9960000  0  5 02 06 15 13 09
  20138093.543    -2850894.158 7     16931.455 3
  19194343.363   -15289967.292 7 -11839567.931 3
  22292627.152   -11563046.534 6  -8265498.002 1
  19903516.730   -23806359.343 7 -18130649.102 2
  21035466.543   -15751240.157 6 -11703268.698 1
 90 10 15 12 46 44.9960000  0  5 02 06 15 13 09
  20138359.106    -2849492.362 7     18023.751 3
  19189438.934   -15315738.477 6 -11859649.376 3
  22291448.535   -11569248.098 6  -8270330.392 1
  19893965.113   -23856553.673 7 -18169761.567 2
  21024437.762   -15809206.229 6 -11748437.050 1
 90 10 15 12 46 59.9960000  0  5 02 06 15 13 09
  20138633.957    -2848048.993 7     19148.449 3
  19184554.848   -15341402.111 7 -11879647.017 3
  22290293.613   -11575310.129 6  -8275054.069 1
  19884435.816   -23906621.897 7 -18208775.765 2
  21013414.613   -15867130.311 6 -11793572.687 1
 90 10 15 12 47 14.9960000  0  5 02 06 15 13 09
  20138916.504    -2846562.024 7     20307.114 3
  19179692.777   -15366955.703 7 -11899558.908 3
  22289166.371   -11581230.358 6  -8279667.247 1
  19874932.918   -23956561.573 7 -18247689.803 2
  21002403.020   -15925009.756 6 -11838673.542 1
 90 10 15 12 47 29.9960000  0  5 02 06 15 13 09
  20139208.316    -2845033.276 7     21498.336 3
  19174850.785   -15392400.889 7 -11919386.325 3
  22288064.965   -11587011.114 6  -8284171.748 1
  19865453.871   -24006374.563 7 -18286505.122 2
  20991395.606   -15982846.152 6 -11883740.857 1
 90 10 15 12 47 44.9960000  0  5 02 06 15 13 09
  20139506.887    -2843465.041 7     22720.328 3
  19170028.473   -15417739.758 6 -11939130.903 3
  22286993.090   -11592654.587 6  -8288569.275 1
  19855999.613   -24056062.917 7 -18325223.318 2
  20980397.598   -16040641.655 6 -11928776.304 1
 90 10 15 12 47 59.9960000  0  5 02 06 15 13 09
  20139811.512    -2841860.379 7     23970.706 3
  19165226.231   -15442975.285 6 -11958794.948 3
  22285943.973   -11598163.601 6  -8292862.028 1
  19846567.551   -24105629.388 7 -18363846.536 2
  20969407.590   -16098398.887 6 -11973781.931 1
 90 10 15 12 48 14.9960000  0  5 02 06 15 13 09
  20140126.332    -2840209.779 7     25256.876 3
  19160446.996   -15468097.301 7 -11978370.544 3
  22284922.754   -11603528.546 6  -8297042.522 1
  19837158.981   -24155064.269 7 -18402367.216 2
  20958425.762   -16156108.063 6 -12018750.121 1
 90 10 15 12 48 29.9960000  0  5 02 06 15 13 09
  20140447.559    -2838522.097 7     26571.948 3
  19155684.793   -15493114.758 6 -11997864.668 3
  22283930.535   -11608758.580 6  -8301117.886 1
  19827776.066   -24204376.253 7 -18440792.136 2
  20947449.441   -16213777.643 6 -12063687.448 1
 90 10 15 12 48 44.9960000  0  5 02 06 15 13 09
  20140775.793    -2836792.220 7     27919.892 3
  19150945.824   -15518022.238 7 -12017273.093 3
  22282958.535   -11613848.605 6  -8305084.144 1
  19818416.137   -24253560.121 7 -18479117.221 2
  20936485.473   -16271402.432 6 -12108589.869 1
 90 10 15 12 48 59.9960000  0  5 02 06 15 13 09
  20141114.340    -2835017.562 7     29302.730 3
  19146227.621   -15542816.897 7 -12036593.607 3
  22282018.215   -11618796.397 6  -8308939.575 1
  19809082.504   -24302613.318 7 -18517340.485 2
  20925527.020   -16328979.450 6 -12153455.074 1
 90 10 15 12 49 14.9960000  0  5 02 06 15 13 09
  20141457.957    -2833205.525 7     30714.698 3
  19141529.348   -15567506.083 7 -12055831.933 3
  22281103.738   -11623609.534 6  -8312690.082 1
  19799768.637   -24351543.113 7 -18555467.592 2
  20914580.105   -16386515.905 6 -12198288.671 1
 90 10 15 12 49 29.9960000  0  5 02 06 15 13 09
  20141810.621    -2831356.745 7     32155.288 3
  19136852.090   -15592089.959 7 -12074988.201 3
  22280211.215   -11628288.351 6  -8316335.931 1
  19790483.691   -24400349.770 7 -18593498.750 2
  20903639.090   -16444012.049 6 -12243090.849 1
 90 10 15 12 49 44.9960000  0  5 02 06 15 13 09
  20142171.754    -2829463.094 7     33630.851 3
  19132194.957   -15616559.999 7 -12094055.766 3
  22279347.582   -11632824.354 6  -8319870.492 1
  19781221.254   -24449024.827 7 -18631427.361 2
  20892706.949   -16501459.211 6 -12287854.870 1
 90 10 15 12 49 59.9950000  0  5 02 06 15 13 09
  20142539.898    -2827532.371 7     35135.305 3
  19127558.827   -15640922.259 7 -12113039.347 3
  22278509.772   -11637225.134 6  -8323299.683 1
  19771982.546   -24497572.663 7 -18669256.836 2
  20881784.866   -16558861.216 6 -12332583.693 1
 90 10 15 12 50 14.9950000  0  5 02 06 15 13 09
  20142914.421    -2825555.972 7     36675.344 3
  19122944.937   -15665171.256 7 -12131934.672 3
  22277699.405   -11641483.171 6  -8326617.649 1
  19762767.491   -24545991.410 7 -18706985.727 2
  20870869.976   -16616216.783 6 -12377276.342 1
 90 10 15 12 50 29.9950000  0  5 02 06 15 13 09
  20143299.304    -2823537.530 7     38248.150 3
  19118351.944   -15689308.626 7 -12150743.010 3
  22276915.976   -11645601.428 6  -8329826.694 1
  19753579.374   -24594280.999 7 -18744613.973 2
  20859964.108   -16673525.471 6 -12421932.453 1
 90 10 15 12 50 44.9950000  0  5 02 06 15 13 09
  20143689.273    -2821483.101 7     39848.992 3
  19113777.890   -15713339.893 7 -12169468.677 3
  22276159.030   -11649586.044 6  -8332931.598 1
  19744413.062   -24642447.260 7 -18782146.122 2
  20849066.780   -16730792.803 6 -12466556.340 1
 90 10 15 12 50 59.9950000  0  5 02 06 15 13 09
  20144088.562    -2819386.500 7     41482.697 3
  19109227.546   -15737259.036 7 -12188106.966 3
  22275426.460   -11653431.212 6  -8335927.847 1
  19735272.788   -24690483.837 7 -18819577.214 2
  20838177.413   -16788012.402 6 -12511143.037 1
 90 10 15 12 51 14.9950000  0  5 02 06 15 13 09
  20144494.413    -2817250.533 7     43147.075 3
  19104695.226   -15761068.608 7 -12206659.886 3
  22274723.351   -11657139.711 6  -8338817.598 1
  19726156.444   -24738393.529 7 -18856909.437 2
  20827297.772   -16845186.833 6 -12555694.538 1
 90 10 15 12 51 29.9950000  0  5 02 06 15 13 09
  20144907.991    -2815076.288 7     44841.282 3
  19100185.773   -15784769.332 7 -12225127.980 3
  22274041.952   -11660712.572 6  -8341601.652 1
  19717063.319   -24786177.156 7 -18894143.428 2
  20816427.304   -16902316.954 6 -12600211.508 1
 90 10 15 12 51 44.9950000  0  5 02 06 15 13 09
  20145330.085    -2812861.787 7     46566.859 3
  19095696.382   -15808358.950 7 -12243509.502 3
  22273386.866   -11664147.961 6  -8344278.597 1
  19707994.007   -24833832.752 7 -18931277.651 2
  20805563.874   -16959400.462 6 -12644692.163 1
 90 10 15 12 51 59.9950000  0  5 02 06 15 13 09
  20145760.898    -2810602.953 7     48326.974 3
  19091229.155   -15831833.293 7 -12261801.195 2
  22272761.718   -11667441.810 6  -8346845.269 1
  19698951.023   -24881355.919 7 -18968308.687 2
  20794711.468   -17016432.759 6 -12689132.909 1
 90 10 15 12 52 14.9950000  0  5 02 06 15 13 09
  20146198.062    -2808302.684 7     50119.382 3
  19086783.952   -15855194.936 7 -12280005.075 3
  22272161.405   -11670596.771 6  -8349303.701 1
  19689931.858   -24928749.573 7 -19005238.801 2
  20783867.640   -17073416.621 6 -12733535.919 1
 90 10 15 12 52 29.9950000  0  5 02 06 15 13 09
  20146643.468    -2805964.085 7     51941.657 3
  19082358.694   -15878446.813 7 -12298123.421 2
  22271586.296   -11673616.416 6  -8351656.689 1
  19680938.694   -24976016.537 7 -19042070.197 2
  20773031.960   -17130354.902 6 -12777903.404 1
 90 10 15 12 52 44.9950000  0  5 02 06 15 13 09
  20147096.312    -2803582.019 7     53797.799 3
  19077956.944   -15901583.659 7 -12316152.134 3
  22271038.702   -11676495.686 6  -8353900.300 1
  19671967.804   -25023151.588 7 -19078798.797 2
  20762207.491   -17187242.061 6 -12822231.055 1
 90 10 15 12 52 59.9950000  0  5 02 06 15 13 09
  20147556.554    -2801164.652 7     55681.448 3
  19073573.187   -15924613.192 7 -12334097.228 3
  22270518.069   -11679242.910 6  -8356041.004 1
  19663022.148   -25070162.933 7 -19115431.009 2
  20751390.335   -17244086.010 6 -12866525.035 1
 90 10 15 12 53 14.9950000  0  5 02 06 15 13 09
  20148023.468    -2798705.628 7     57597.561 3
  19069213.288   -15947528.822 7 -12351953.562 2
  22270019.132   -11681851.650 6  -8358073.808 1
  19654100.702   -25117043.772 7 -19151961.531 2
  20740581.999   -17300879.953 6 -12910780.049 1
 90 10 15 12 53 29.9950000  0  5 02 06 15 13 09
  20148500.296    -2796205.907 7     59545.383 3
  19064874.171   -15970331.400 7 -12369721.801 3
  22269548.460   -11684323.005 6  -8359999.562 1
  19645204.351   -25163794.980 7 -19188391.039 2
  20729784.366   -17357624.732 6 -12954996.751 1
 90 10 15 12 53 44.9950000  0  5 02 06 15 13 09
  20148983.538    -2793665.003 7     61525.294 3
  19060556.546   -15993020.189 7 -12387401.379 2
  22269105.640   -11686656.418 6  -8361817.820 1
  19636333.796   -25210416.063 7 -19224719.147 2
  20718995.937   -17414319.394 6 -12999174.404 1
 90 10 15 12 53 59.9950000  0  5 02 06 15 13 09
  20149476.257    -2791078.387 7     63540.827 3
  19056263.202   -16015590.285 7 -12404988.467 3
  22268685.671   -11688847.305 6  -8363525.021 1
  19627487.155   -25256902.265 7 -19260942.155 2
  20708216.593   -17470959.094 6 -13043309.215 1
 90 10 15 12 54 14.9950000  0  5 02 06 15 13 09
  20149976.054    -2788451.097 7     65588.050 3
  19051988.546   -16038046.810 7 -12422487.062 2
  22268297.374   -11690900.939 6  -8365125.266 1
  19618664.874   -25303258.587 7 -19297063.956 2
  20697449.233   -17527548.616 6 -13087404.943 1
 90 10 15 12 54 29.9950000  0  5 02 06 15 13 09
  20150483.507    -2785783.925 7     67666.356 3
  19047736.913   -16060390.279 7 -12439897.557 2
  22267934.069   -11692818.355 6  -8366619.369 1
  19609868.452   -25349485.740 7 -19333085.112 2
  20686688.952   -17584088.551 6 -13131462.038 1
 90 10 15 12 54 44.9950000  0  5 02 06 15 13 09
  20150998.585    -2783080.164 7     69773.167 3
  19043505.413   -16082623.642 7 -12457222.256 2
  22267594.233   -11694602.790 6  -8368009.861 1
  19601095.827   -25395586.642 7 -19369007.886 2
  20675938.663   -17640581.825 6 -13175482.760 1
 90 10 15 12 54 59.9950000  0  5 02 06 15 13 09
  20151521.476    -2780333.725 7     71913.236 3
  19039297.210   -16104740.379 7 -12474456.077 3
  22267277.827   -11696248.002 6  -8369291.868 1
  19592347.882   -25441555.037 7 -19404827.409 2
  20665198.554   -17697021.779 6 -13219461.933 1
 90 10 15 12 55 14.9950000  0  5 02 06 15 13 09
  20152051.015    -2777546.554 7     74085.040 3
  19035110.015   -16126742.409 7 -12491600.515 2
  22266989.155   -11697756.324 6  -8370467.198 1
  19583625.023   -25487393.059 7 -19440545.343 2
  20654468.569   -17753410.398 6 -13263401.116 1
 90 10 15 12 55 29.9950000  0  5 02 06 15 13 09
  20152589.187    -2774715.808 7     76290.803 3
  19030946.226   -16148626.778 7 -12508653.269 3
  22266732.796   -11699124.692 6  -8371533.488 1
  19574927.179   -25533097.589 7 -19476159.255 2
  20643749.265   -17809744.464 6 -13307297.787 1
 90 10 15 12 55 44.9950000  0  5 02 06 15 13 09
  20153136.155    -2771844.159 7     78528.436 3
  19026802.679   -16170395.761 7 -12525616.118 3
  22266497.905   -11700356.092 6  -8372493.043 1
  19566256.101   -25578671.034 7 -19511671.027 2
  20633038.249   -17866026.241 6 -13351153.711 1
 90 10 15 12 55 59.9950000  0  5 02 06 15 13 09
  20153688.960    -2768935.667 7     80794.778 3
  19022682.616   -16192053.259 7 -12542492.091 3
  22266287.757   -11701454.626 6  -8373349.077 1
  19557608.335   -25624117.553 7 -19547083.889 2
  20622338.148   -17922259.478 6 -13394971.807 1
 90 10 15 12 56 14.9950000  0  5 02 06 15 13 09
  20154250.858    -2765985.801 7     83093.363 3
  19018582.655   -16213594.339 7 -12559277.353 3
  22266107.726   -11702415.909 6  -8374098.154 1
  19548984.069   -25669432.429 7 -19582394.177 2
  20611647.468   -17978439.269 6 -13438748.264 1
 90 10 15 12 56 29.9950000  0  5 02 06 15 13 09
  20154820.218    -2762996.461 7     85422.705 3
  19014505.569   -16235020.921 7 -12575973.389 3
  22265949.312   -11703241.533 6  -8374741.533 1
  19540385.999   -25714617.298 7 -19617603.158 2
  20600966.155   -18034567.166 6 -13482484.288 1
 90 10 15 12 56 44.9950000  0  5 02 06 15 13 09
  20155397.702    -2759960.887 7     87788.069 3
  19010450.874   -16256325.877 7 -12592574.659 2
  22265818.515   -11703925.114 6  -8375274.219 1
  19531813.257   -25759665.297 7 -19652705.491 2
  20590296.132   -18090636.232 6 -13526174.458 1
 90 10 15 12 56 59.9950000  0  5 02 06 15 13 09
  20155982.413    -2756883.149 7     90186.292 3
  19006419.132   -16277513.270 7 -12609084.318 3
  22265714.351   -11704471.165 6  -8375699.736 1
  19523267.718   -25804580.668 7 -19687704.473 2
  20579638.358   -18146650.156 6 -13569821.667 1
 90 10 15 12 57 14.9950000  0  5 02 06 15 13 09
  20156576.741    -2753766.775 7     92614.622 3
  19002410.218   -16298586.037 7 -12625504.660 2
  22265632.671   -11704882.797 6  -8376020.509 1
  19514744.437   -25849366.537 7 -19722602.547 2
  20568989.679   -18202612.165 6 -13613428.424 1
 90 10 15 12 57 29.9950000  0  5 02 06 15 13 09
  20157176.343    -2750609.326 7     95074.955 3
  18998422.390   -16319541.703 7 -12641833.754 3
  22265585.437   -11705157.937 6  -8376234.926 1
  19506246.304   -25894020.356 7 -19757397.727 2
  20558349.851   -18258519.414 6 -13656992.510 1
 90 10 15 12 57 44.9950000  0  5 02 06 15 13 09
  20157785.835    -2747410.358 7     97567.640 3
  18994456.304   -16340379.975 7 -12658071.369 2
  22265560.343   -11705296.539 6
  19497774.733   -25938541.759 7 -19792089.719 2
  20547721.413   -18314371.484 6 -13700513.592 1
 90 10 15 12 57 59.9950000  0  5 02 06 15 13 09
  20158402.405    -2744167.415 7    100094.589 3
  18990514.851   -16361097.742 7 -12674215.089 2
  22265559.444   -11705295.811 6
  19489327.483   -25982928.017 7 -19826676.409 2
  20537105.101   -18370165.304 6 -13743989.293 1
 90 10 15 12 58 14.9950000  0  5 02 06 15 13 09
  20159027.265    -2740884.132 7    102652.974 3
  18986593.694   -16381698.663 7 -12690267.757 3
  22265585.452   -11705159.493 6
  19480906.944   -26027183.023 7 -19861160.821 2
  20526496.187   -18425904.286 6 -13787422.260 1
 90 10 15 12 58 29.9950000  0  5 02 06 15 13 09
  20159660.405    -2737557.638 7    105245.033 3
  18982696.898   -16402179.681 7 -12706226.998 2
  22265637.069   -11704884.649 6
  19472510.765   -26071303.589 7 -19895540.479 2
  20515901.343   -18481585.378 6 -13830810.124 1
 90 10 15 12 58 44.9950000  0  5 02 06 15 13 09
  20160302.546    -2734187.882 7    107870.800 3
  18978821.499   -16422540.429 7 -12722092.515 3
  22265716.335   -11704471.806 6        -0.40611
  19464141.390   -26115289.478 7 -19929815.186 2
  20505316.905   -18537208.102 6 -13874152.499 1
 90 10 15 12 58 59.9950000  0  5 02 06 15 13 09
  20160950.757    -2730775.026 7    110530.148 3
  18974969.601   -16442780.973 7 -12737864.370 3
  22265819.898   -11703921.246 6       428.586 1
  19455796.265   -26159140.727 7 -19963984.986 2
  20494743.507   -18592772.280 6 -13917449.257 1
 90 10 15 12 59 14.9950000  0  5 02 06 15 13 09
  20161609.866    -2727320.601 7    113221.897 3
  18971141.132   -16462902.461 7 -12753543.459 2
  22265948.749   -11703234.399 6       963.771 1
  19447477.046   -26202858.701 7 -19998050.929 2
  20484179.397   -18648279.244 6 -13960701.429 2
 90 10 15 12 59 29.9950000  0  5 02 06 15 13 09
  20162273.155    -2723823.100 7    115947.204 3
  18967335.132   -16482903.070 7 -12769128.353 2
  22266105.796   -11702409.694 6      1606.369 1
  19439182.733   -26246441.632 7 -20032011.648 2
  20473630.116   -18703726.850 6 -14003907.360 1
 90 10 15 12 59 44.9950000  0  5 02 06 15 13 09
  20162948.351    -2720283.103 7    118705.629 3
  18963551.374   -16502783.361 7 -12784619.493 2
  22266290.546   -11701447.589 6      2356.044 1
  19430916.194   -26289890.246 7 -20065867.705 2
  20463088.046   -18759115.618 6 -14047067.438 2
 90 10 15 12 59 59.9950000  0  5 02 06 15 13 09
  20163629.874    -2716703.189 7    121495.155 3
  18959791.460   -16522545.723 7 -12800018.739 2
  22266496.663   -11700351.341 6      3210.250 1
  19422672.616   -26333206.943 7 -20099620.970 2
  20452559.179   -18814447.729 6 -14090183.355 1
 90 10 15 13  0 14.9950000  0  5 02 06 15 13 09
  20164317.718    -2713079.241 7    124318.995 2
  18956053.843   -16542185.786 7 -12815322.692 2
  22266738.804   -11699116.591 6      4172.369 1
  19414455.054   -26376387.538 7 -20133268.181 2
  20442042.108   -18869718.731 6 -14133251.672 1
 90 10 15 13  0 29.9950000  0  5 02 06 15 13 09
  20165017.179    -2709412.630 7    127176.075 3
  18952340.718   -16561704.593 7 -12830532.160 3
  22266993.069   -11697745.070 6      5241.058 1
  19406264.515   -26419433.301 7 -20166810.330 2
  20431535.468   -18924929.537 6 -14176273.076 2
 90 10 15 13  0 44.9950000  0  5 02 06 15 13 09
  20165721.577    -2705703.616 7    130066.207 2
  18948649.460   -16581102.332 7 -12845647.287 2
  22267284.812   -11696237.140 6      6416.029 1
  19398099.108   -26462344.469 7 -20200247.598 2
  20421041.171   -18980080.508 6 -14219247.854 2
 90 10 15 13  0 59.9950000  0  5 02 06 15 13 09
  20166437.366    -2701951.326 7    132990.054 3
  18944980.835   -16600378.039 7 -12860667.326 2
  22267592.819   -11694592.078 6      7697.871 1
  19389958.155   -26505120.060 7 -20233579.220 2
  20410558.491   -19035170.247 6 -14262174.922 2
 90 10 15 13  1 14.9950000  0  5 02 06 15 13 09
  20167158.679    -2698157.626 7    135946.165 3
  18941335.405   -16619533.276 7 -12875593.490 2
  22267932.757   -11692812.043 6      9084.877 1
  19381844.202   -26547761.944 7 -20266806.657 2
  20400084.640   -19090200.232 6 -14305055.429 2
 90 10 15 13  1 29.9950000  0  5 02 06 15 13 09
  20167889.843    -2694319.132 7    138937.182 2
  18937713.233   -16638564.423 7 -12890422.953 2
  22268300.882   -11690893.097 6     10580.134 1
  19373756.351   -26590266.452 7 -20299927.045 2
  20389625.796   -19145166.540 6 -14347886.312 1
 90 10 15 13  1 44.9950000  0  5 02 06 15 13 09
  20168625.421    -2690441.400 7    141958.776 2
  18934113.726   -16657476.828 7 -12905159.900 2
  22268692.358   -11688841.112 6     12179.043 1
  19365692.132   -26632639.012 7 -20332944.620 2
  20379177.562   -19200074.942 6 -14390672.077 1
 90 10 15 13  1 59.9950000  0  5 02 06 15 13 09
  20169373.304    -2686518.530 7    145015.536 2
  18930540.624   -16676264.388 7 -12919799.561 2
  22269106.476   -11686650.631 6     13885.873 1
  19357655.608   -26674873.814 7 -20365854.845 2
  20368741.140   -19254918.863 6 -14433407.598 2
 90 10 15 13  2 14.9950000  0  5 02 06 15 13 09
  20170126.124    -2682555.726 7    148103.419 2
  18926987.601   -16694932.276 7 -12934345.970 2
  22269547.429   -11684326.792 6     15696.622 1
  19349644.132   -26716975.956 7 -20398661.704 2
  20358316.148   -19309703.289 6 -14476096.764 2
 90 10 15 13  2 29.9950000  0  5 02 06 15 13 09
  20170889.874    -2678553.522 7    151222.002 2
  18923457.007   -16713480.642 7 -12948799.249 2
  22270015.866   -11681870.360 6     17610.704 1
  19341656.155   -26758945.771 7 -20431365.448 2
  20347902.062   -19364428.196 6 -14518739.538 2
 90 10 15 13  2 44.9950000  0  5 02 06 15 13 09
  20171657.968    -2674506.341 7    154375.629 2
  18919952.444   -16731903.771 7 -12963154.938 2
  22270512.897   -11679275.958 6     19632.287 1
  19333697.085   -26800777.682 7 -20463961.739 2
  20337499.585   -19419088.064 6 -14561331.640 2
 90 10 15 13  2 59.9950000  0  5 02 06 15 13 09
  20172437.671    -2670415.386 7    157563.372 2
  18916469.812   -16750202.688 7 -12977413.840 3
  22271028.390   -11676544.673 6     21760.538 1
  19325763.741   -26842472.812 7 -20496451.443 2
  20327111.593   -19473683.697 6 -14603873.689 2
 90 10 15 13  3 14.9950000  0  5 02 06 15 13 09
  20173223.468    -2666279.977 7    160785.745 2
  18913011.694   -16768376.797 7 -12991575.484 2
  22271576.827   -11673676.121 6     23995.738 1
  19317853.773   -26884030.611 7 -20528834.138 2
  20316734.749   -19528213.967 6 -14646364.810 1
 90 10 15 13  3 29.9950000  0  5 02 06 15 13 09
  20174020.968    -2662107.017 7    164037.393 2
  18909574.851   -16786432.496 7 -13005644.865 2
  22272146.265   -11670677.498 6     26332.310 1
  19309971.944   -26925457.695 7 -20561114.972 2
  20306368.694   -19582685.475 6 -14688810.144 2
 90 10 15 13  3 44.9950000  0  5 02 06 15 13 09
  20174819.913    -2657893.883 7    167320.332 2
  18906163.655   -16804366.903 7 -13019619.734 3
  22272741.663   -11667546.253 6     28772.212 1
  19302112.257   -26966751.290 7 -20593291.793 2
  20296015.101   -19637095.451 6 -14731207.524 2
 90 10 15 13  3 59.9950000  0  5 02 06 15 13 09
  20175629.976    -2653637.110 7    170637.283 2
  18902773.515   -16822176.413 7 -13033497.281 2
  22273366.562   -11664278.984 6     31318.120 1
  19294281.007   -27007907.918 7 -20625361.888 2
  20285674.062   -19691439.860 6 -14773553.825 2
 90 10 15 13  4 14.9950000  0  5 02 06 15 13 09
  20176450.124    -2649334.771 7    173989.732 2
  18899407.796   -16839859.000 7 -13047275.929 2
  22274010.358   -11660873.784 6     33971.483 1
  19286475.562   -27048925.762 7 -20657323.834 2
  20275345.819   -19745716.558 6 -14815847.349 2
 90 10 15 13  4 29.9950000  0  5 02 06 15 13 09
  20177274.601    -2644989.395 7    177375.720 2
  18896068.030   -16857417.201 7 -13060957.648 2
  22274686.163   -11657333.420 6     36730.189 1
  19278696.343   -27089807.256 7 -20689179.538 2
  20265029.632   -19799927.824 6 -14858089.892 2
 90 10 15 13  4 44.9950000  0  5 02 06 15 13 09
  20178110.718    -2640605.984 7    180791.343 2
  18892749.647   -16874855.664 7 -13074546.069 2
  22275384.358   -11653663.335 6     39589.952 1
  19270941.554   -27130557.036 7 -20720932.605 2
  20254725.577   -19854078.407 6 -14900285.147 2
 90 10 15 13  4 59.9950000  0  5 02 06 15 13 09
  20178951.405    -2636178.062 7    184241.654 2
  18889455.624   -16892167.629 7 -13088035.920 2
  22276109.288   -11649856.823 6     42556.038 1
  19263212.835   -27171168.787 7 -20752578.124 2
  20244433.757   -19908161.358 6 -14942427.703 2
 90 10 15 13  5 14.9950000  0  5 02 06 15 13 09
  20179802.640    -2631710.132 7    187723.133 2
  18886185.046   -16909357.504 7 -13101430.633 2
  22276855.304   -11645918.854 6     45624.558 1
  19255510.218   -27211646.927 7 -20784119.521 2
  20234154.265   -19962180.953 6 -14984520.887 2
 90 10 15 13  5 29.9950000  0  5 02 06 15 13 09
  20180661.116    -2627197.210 7    191239.681 2
  18882936.538   -16926420.235 7 -13114726.275 3
  22277633.132   -11641844.319 6     48799.493 1
  19247834.507   -27251986.395 7 -20815552.867 2
  20223887.390   -20016131.862 6 -15026560.556 2
 90 10 15 13  5 44.9950000  0  5 02 06 15 13 09
  20181528.522    -2622643.258 7    194788.195 2
  18879713.679   -16943359.462 7 -13127925.674 3
  22278435.499   -11637637.358 6     52077.596 1
  19240183.858   -27292191.158 7 -20846881.248 2
  20213632.296   -20070017.647 6 -15068549.475 2
 90 10 15 13  5 59.9950000  0  5 02 06 15 13 09
  20182401.968    -2618048.174 7    198368.760 2
  18876514.069   -16960174.800 7 -13141028.547 3
  22279260.319   -11633297.884 6     55458.978 1
  19232558.733   -27332260.812 7 -20878104.351 2
  20203392.405   -20123837.761 6 -15110487.229 2
 90 10 15 13  6 14.9950000  0  5 02 06 15 13 09
  20183285.648    -2613411.941 7    201981.391 2
  18873336.952   -16976866.075 7 -13154034.741 2
  22280111.171   -11628826.154 6     58943.413 1
  19224958.960   -27372195.284 7 -20909222.115 2
  20193161.491   -20177591.956 6 -15152373.610 2
 90 10 15 13  6 29.9950000  0  5 02 06 15 13 09
  20184175.937    -2608731.509 7
  18870184.476   -16993430.261 7 -13166941.903 3
  22280991.397   -11624219.301 6
  19217386.062   -27411991.775 7 -20940232.359 2
  20182946.202   -20231277.089 6 -15194206.182 1
 90 10 15 13  6 44.9950000  0  5 02 06 15 13 09
  20185074.663    -2604005.970 7
  18867057.577   -17009866.295 7 -13179749.213 2
  22281891.218   -11619476.861 6
  19209839.890   -27451649.238 7 -20971134.275 2
  20172743.608   -20284891.866 6 -15235983.932 2
 90 10 15 13  6 59.9950000  0  5 02 06 15 13 09
  20185982.194    -2599239.105 7    213025.095 2
  18863953.796   -17026177.563 7 -13192459.298 3
  22282819.523   -11614602.058 6     70027.004 1
  19202317.835   -27491171.111 7 -21001930.532 2
  20162553.452   -20338439.574 6 -15277709.415 2
 90 10 15 13  7 14.9950000  0  5 02 06 15 13 09
  20186897.007    -2594428.332 7    216773.726 2
  18860873.273   -17042361.383 7 -13205070.076 2
  22283771.718   -11609592.855 6     73930.259 1
  19194824.812   -27530554.818 7 -21032619.129 2
  20152377.608   -20391917.388 6 -15319380.439 2
 90 10 15 13  7 29.9950000  0  5 02 06 15 13 09
  20187822.562    -2589572.914 7    220557.145 2
  18857819.085   -17058417.042 7 -13217580.983 2
  22284750.897   -11604448.745 6     77938.615 1
  19187355.874   -27569799.775 7 -21063199.608 2
  20142214.483   -20445324.319 6 -15360996.230 2
 90 10 15 13  7 44.9950000  0  5 02 06 15 13 09
  20188753.140    -2584680.585 7    224369.328 2
  18854787.007   -17074351.834 7 -13229997.712 2
  22285751.702   -11599177.504 6     82046.044 1
  19179913.843   -27608913.649 7 -21093677.947 2
  20132062.788   -20498667.610 6 -15402562.430 2
 90 10 15 13  7 59.9950000  0  5 02 06 15 13 09
  20189692.265    -2579745.800 7    228214.591 2
  18851778.226   -17090160.295 7 -13242316.004 3
  22286782.460   -11593774.162 6     86256.418 1
  19172496.124   -27647891.143 7 -21124050.013 2
  20121925.632   -20551941.697 6 -15444074.700 2
 90 10 15 13  8 14.9950000  0  5 02 06 15 13 09
  20190638.249    -2574768.272 7    232093.161 2
  18848793.780   -17105841.922 7 -13254535.457 3
  22287836.476   -11588238.565 6     90569.830 1
  19165104.593   -27686731.909 7 -21154315.537 2
  20111801.632   -20605145.930 6 -15485532.547 2
 90 10 15 13  8 29.9950000  0  5 02 06 15 13 09
  20191595.023    -2569742.727 7    236009.150 2
  18845835.866   -17121391.252 7 -13266651.828 3
  22288913.023   -11582565.293 6     94990.513 1
  19157740.233   -27725430.343 7 -21184470.158 2
  20101691.671   -20658274.500 6 -15526931.429 2
 90 10 15 13  8 44.9950000  0  5 02 06 15 13 09
  20192559.187    -2564673.944 7    239958.827 2
  18842901.233   -17136812.801 7 -13278668.627 2
  22290020.327   -11576759.122 6     99514.763 1
  19150402.804   -27763991.275 7 -21214517.630 2
  20091595.491   -20711331.942 6 -15568274.888 2
 90 10 15 13  8 59.9950000  0  5 02 06 15 13 09
  20193532.671    -2559565.516 7    243939.400 2
  18839989.343   -17152110.043 7 -13290588.561 3
  22291146.499   -11570823.946 6    104139.556 1
  19143090.999   -27802418.179 7 -21244460.666 2
  20081510.460   -20764321.448 6 -15609565.411 2
 90 10 15 13  9 14.9950000  0  5 02 06 15 13 09
  20194512.015    -2554413.210 7    247954.159 2
  18837103.968   -17167278.681 7 -13302408.292 3
  22292306.358   -11564755.961 6    108867.815 1
  19135803.608   -27840707.042 7 -21274296.137 2
  20071441.718   -20817238.672 6 -15650799.604 1
 90 10 15 13  9 29.9950000  0  5 02 06 15 13 09
  20195501.007    -2549218.559 7    252001.917 2
  18834241.273   -17182320.152 7 -13314128.924 2
  22293481.640   -11558556.956 6    113698.179 1
  19128544.593   -27878859.274 7 -21304025.148 2
  20061384.405   -20870084.903 6 -15691978.482 2
 90 10 15 13  9 44.9950000  0  5 02 06 15 13 09
  20196498.437    -2543981.307 7    256082.866 2
  18831403.319   -17197233.797 7 -13325749.953 3
  22294688.444   -11552226.273 6    118631.147 1
  19121309.827   -27916874.147 7 -21333647.124 2
  20051341.827   -20922859.199 6 -15733101.313 2
 90 10 15 13  9 59.9950000  0  5 02 06 15 13 09
  20197501.968    -2538702.656 7    260196.079 2
  18828589.483   -17212020.686 7 -13337272.213 3
  22295918.085   -11545765.529 6    123665.459 1
  19114102.335   -27954753.091 7 -21363163.176 2
  20041312.952   -20975562.483 6 -15774168.799 2
 90 10 15 13 10 14.9950000  0  5 02 06 15 13 09
  20198515.046    -2533383.518 7    264340.838 2
  18825799.523   -17226681.623 7 -13348696.328 3
  22297170.780   -11539176.027 5    128800.093 1
  19106920.163   -27992497.091 7 -21392574.080 2
  20031297.843   -21028195.562 6 -15815181.588 2
 90 10 15 13 10 29.9950000  0  5 02 06 15 13 09
  20199534.257    -2528024.940 7    268516.330 2
  18823033.640   -17241217.584 7 -13360023.060 3
  22298450.296   -11532458.938 5    134034.141 1
  19099763.069   -28030107.030 7 -21421880.520 2
  20021295.280   -21080758.904 6 -15856140.030 2
 90 10 15 13 10 44.9950000  0  5 02 06 15 13 09
  20200562.499    -2522618.308 7    272729.270 2
  18820292.648   -17255619.705 7 -13371245.501 3
  22299756.437   -11525605.601 5    139374.378 1
  19092632.226   -28067574.263 7 -21451075.758 2
  20011307.101   -21133243.813 6 -15897037.362 2
 90 10 15 13 10 59.9950000  0  5 02 06 15 13 09
  20201599.913    -2517173.338 7    276972.077 2
  18817575.288   -17269897.543 7 -13382371.102 3
  22301084.108   -11518626.009 5    144812.970 1
  19085528.452   -28104908.500 7 -21480167.370 2
  20001333.054   -21185659.597 7 -15937880.822 2
 90 10 15 13 11 14.9950000  0  5 02 06 15 13 09
  20202643.327    -2511679.712 7    281252.799 2
  18814884.569   -17284040.827 7 -13393391.851 3
  22302437.069   -11511510.183 5    150357.746 1
  19078451.616   -28142099.458 7 -21509147.328 2
  19991373.952   -21237995.687 7 -15978662.189 2
 90 10 15 13 11 29.9950000  0  5 02 06 15 13 09
  20203696.569    -2506143.428 7    285566.755 2
  18812217.476   -17298055.300 7 -13404312.230 3
  22303818.210   -11504264.240 5    156003.903 1
  19071400.022   -28179152.909 7 -21538020.145 2
  19981428.108   -21290257.697 7 -16019385.830 2
 90 10 15 13 11 44.9950000  0  5 02 06 15 13 09
  20204760.413    -2500566.989 7    289912.013 2
  18809574.374   -17311943.283 7 -13415134.048 3
  22305215.905   -11496890.969 5    161749.270 1
  19064374.983   -28216071.685 7 -21566788.016 2
  19971497.640   -21342447.903 7 -16060053.520 2
 90 10 15 13 11 59.9950000  0  5 02 06 15 13 09
  20205828.312    -2494948.426 7    294290.083 2
  18806956.546   -17325702.603 7 -13425855.604 3
  22306645.116   -11489388.141 5    167595.595 1
  19057375.773   -28252853.810 7 -21595449.406 2
  19961579.452   -21394563.818 7 -16100663.324 2
 90 10 15 13 12 14.9950000  0  5 02 06 15 13 09
  20206905.296    -2489287.208 7    298701.396 2
  18804361.624   -17339332.631 7 -13436476.418 2
  22308096.499   -11481755.513 5    173543.075 1
  19050402.952   -28289498.541 7 -21624003.732 2
  19951675.233   -21446604.633 7 -16141214.600 2
 90 10 15 13 12 29.9950000  0  5 02 06 15 13 09
  20207990.546    -2483585.549 7    303144.219 2
  18801792.452   -17352835.418 7 -13446998.081 3
  22309577.827   -11473995.840 5    179589.535 1
  19043454.499   -28326008.169 7 -21652452.788 2
  19941787.374   -21498572.472 7 -16181709.019 2
 90 10 15 13 12 44.9950000  0  5 02 06 15 13 09
  20209083.640    -2477844.286 7    307617.905 2
  18799247.140   -17366211.726 7 -13457421.185 3
  22311074.108   -11466110.303 5    185734.082 1
  19036533.726   -28362383.510 7 -21680797.207 2
  19931911.608   -21550467.582 7 -16222146.765 2
 90 10 15 13 12 59.9950000  0  5 02 06 15 13 09
  20210183.382    -2472061.108 7    312124.249 2
  18796726.390   -17379458.950 7 -13467743.711 3
  22312602.788   -11458096.279 5    191978.744 1
  19029637.304   -28398622.136 7 -21709035.090 2
  19922052.077   -21602287.382 7 -16262525.831 2
 90 10 15 13 13 14.9950000  0  5 02 06 15 13 09
  20211292.335    -2466234.233 7    316664.644 2
  18794231.179   -17392575.172 7 -13477964.155 3
  22314149.015   -11449952.197 5    198324.756 1
  19022767.202   -28434722.044 7 -21737164.887 2
  19912205.194   -21654029.849 7 -16302844.634 2
 90 10 15 13 13 29.9950000  0  5 02 06 15 13 09
  20212410.030    -2460364.396 7    321238.514 2
  18791759.069   -17405561.325 7 -13488083.249 3
  22315726.937   -11441679.198 5    204771.214 1
  19015923.741   -28470684.353 7 -21765187.459 2
  19902374.710   -21705695.271 7 -16343103.406 2
 90 10 15 13 13 44.9950000  0  5 02 06 15 13 09
  20213535.288    -2454451.045 7    325846.293 2
  18789313.921   -17418416.534 7 -13498100.304 3
  22317323.601   -11433277.266 5    211318.145 1
  19009107.358   -28506508.599 7 -21793102.453 2
  19892557.952   -21757283.014 7 -16383301.646 2
 90 10 15 13 13 59.9950000  0  5 02 06 15 13 09
  20214669.335    -2448492.916 7    330488.962 2
  18786892.413   -17431139.296 7 -13508014.153 3
  22318945.749   -11424745.263 5    217966.408 1
  19002315.921   -28542193.259 7 -21820908.677 2
  19882754.851   -21808791.441 7 -16423438.082 2
 90 10 15 13 14 14.9950000  0  5 02 06 15 13 09
  20215810.077    -2442491.594 7    335165.282 2
  18784496.788   -17443731.241 7 -13517826.072 3
  22320596.163   -11416084.651 5    224714.901 1
  18995551.757   -28577739.740 7 -21848607.230 2
  19872968.788   -21860221.585 7 -16463513.524 2
 90 10 15 13 14 29.9950000  0  5 02 06 15 13 09
  20216960.202    -2436447.811 7    339874.699 2
  18782126.132   -17456192.583 7 -13527536.221 2
  22322267.663   -11407296.241 5    231562.978 1
  18988812.999   -28613149.036 7 -21876198.883 2
  19863195.780   -21911573.942 7 -16503528.353 2
 90 10 15 13 14 44.9950000  0  5 02 06 15 13 09
  20218118.718    -2430362.606 7    344616.384 2
  18779778.101   -17468524.693 7 -13537145.666 3
  22323962.069   -11398381.754 5    238509.278 1
  18982101.194   -28648422.346 7 -21903684.577 2
  19853439.366   -21962849.367 7 -16543483.232 2
 90 10 15 13 14 59.9950000  0  5 02 06 15 13 09
  20219285.210    -2424235.789 7    349390.499 2
  18777456.960   -17480727.210 7 -13546654.130 3
  22325681.851   -11389340.856 5    245554.103 1
  18975414.882   -28683559.179 7 -21931063.925 2
  19843696.429   -22014047.363 7 -16583377.775 2
 90 10 15 13 15 14.9940000  0  5 02 06 15 13 09
  20220459.885    -2418065.683 7    354198.340 2
  18775158.635   -17492796.880 7 -13556059.084 3
  22327427.775   -11380172.239 5    252698.455 1
  18968756.197   -28718555.271 7 -21958333.604 2
  19833968.822   -22065161.916 7 -16623207.304 2
 90 10 15 13 15 29.9940000  0  5 02 06 15 13 09
  20221641.135    -2411852.884 7    359039.448 2
  18772886.486   -17504736.528 7 -13565362.715 3
  22329198.627   -11370876.449 5    259941.877 1
  18962120.986   -28753416.576 7 -21985498.252 2
  19824257.752   -22116200.955 7 -16662977.994 2
 90 10 15 13 15 44.9940000  0  5 02 06 15 13 09
  20222831.096    -2405596.537 7    363914.497 2
  18770640.158   -17516544.259 7 -13574563.555 3
  22330989.510   -11361452.851 5    267284.904 1
  18955513.479   -28788139.737 7 -22012555.255 2
  19814559.252   -22167159.565 7 -16702686.001 2
 90 10 15 13 15 59.9940000  0  5 02 06 15 13 09
  20224029.150    -2399299.096 7    368821.556 2
  18768418.072   -17528222.079 7 -13583663.168 3
  22332804.611   -11351904.201 5    274725.381 1
  18948931.541   -28822726.865 7 -22039506.259 2
  19804879.033   -22218039.706 7 -16742332.860 2
 90 10 15 13 16 14.9940000  0  5 02 06 15 13 09
  20225237.690    -2392960.855 7    373760.417 2
  18766220.322   -17539770.323 7 -13592661.816 3
  22334652.455   -11342231.028 5    282262.885 1
  18942376.166   -28857178.558 7 -22066351.733 2
  19795210.361   -22268841.655 7 -16781918.801 2
 90 10 15 13 16 29.9940000  0  5 02 06 15 13 09
  20226450.205    -2386576.863 7    378734.926 2
  18764049.455   -17551183.937 7 -13601555.551 3
  22336514.979   -11332428.532 5    289901.158 1
  18935846.205   -28891489.658 7 -22093087.652 2
  19785558.846   -22319559.972 7 -16821439.570 2
 90 10 15 13 16 44.9940000  0  5 02 06 15 13 09
  20227674.260    -2380152.192 7    383741.129 2
  18761901.080   -17562467.804 7 -13610348.189 3
  22338402.752   -11322502.302 5    297635.849 1
  18929343.025   -28925665.209 7 -22119717.948 2
  19775923.189   -22370199.269 7 -16860898.764 2
 90 10 15 13 16 59.9940000  0  5 02 06 15 13 09
  20228904.455    -2373684.450 7    388780.897 2
  18759779.268   -17573619.666 7 -13619037.967 3
  22340316.338   -11312449.976 5    305468.813 1
  18922866.283   -28959703.047 7 -22146240.937 2
  19766301.682   -22420757.137 7 -16900294.510 2
 90 10 15 13 17 14.9940000  0  5 02 06 15 13 09
  20230143.557    -2367175.123 7    393853.068 2
  18757681.549   -17584640.662 7 -13627625.770 3
  22342255.861   -11302273.364 5    313398.585 1
  18916414.682   -28993604.719 7 -22172657.819 2
  19756696.736   -22471234.721 7 -16939627.693 2
 90 10 15 13 17 29.9940000  0  5 02 06 15 13 09
  20231390.658    -2360622.115 7    398959.272 2
  18755609.900   -17595528.581 7 -13636109.879 2
  22344210.182   -11291970.310 5    321426.885 1
  18909990.408   -29027368.053 7 -22198966.909 2
  19747107.291   -22521629.245 7 -16978896.157 2
 90 10 15 13 17 44.9940000  0  5 02 06 15 13 09
  20232645.619    -2354023.680 7    404100.876 2
  18753563.885   -17606281.492 7 -13644488.780 3
  22346202.018   -11281539.603 5    329554.662 1
  18903590.479   -29060991.232 7 -22225166.786 2
  19737534.080   -22571938.881 7 -17018098.465 2
 90 10 15 13 17 59.9940000  0  5 02 06 15 13 09
  20233909.791    -2347383.745 7    409274.814 2
  18751543.166   -17616903.242 7 -13652765.485 3
  22348205.736   -11270985.367 5    337778.691 1
  18897218.877   -29094478.030 7 -22251260.392 2
  19727975.596   -22622167.185 7 -17057237.406 2
 90 10 15 13 18 14.9940000  0  5 02 06 15 13 09
  20235180.729    -2340701.227 7    414481.934 2
  18749546.463   -17627392.773 7 -13660939.159 3
  22350239.729   -11260306.338 5    346099.966 1
  18890872.221   -29127827.478 7 -22277246.972 2
  19718433.275   -22672312.697 7 -17096311.834 2
 90 10 15 13 18 29.9940000  0  5 02 06 15 13 09
  20236462.119    -2333973.906 7    419723.968 2
  18747575.572   -17637747.604 7 -13669007.875 3
  22352294.463   -11249500.972 5    354519.711 1
  18884553.932   -29161037.529 7 -22303124.932 2
  19708906.143   -22722373.143 7 -17135319.978 2
 90 10 15 13 18 44.9940000  0  5 02 06 15 13 09
  20237750.346    -2327201.065 7    425001.470 2
  18745630.861   -17647967.063 7 -13676971.101 3
  22354372.799   -11238568.341 5    363038.592 1
  18878260.783   -29194107.587 7 -22328893.809 2
  19699397.229   -22772347.208 7 -17174260.804 2
 90 10 15 13 18 59.9940000  0  5 02 06 15 13 09
  20239048.158    -2320387.860 7    430310.426 2
  18743710.549   -17658056.197 7 -13684832.780 3
  22356481.783   -11227514.323 5    371652.073 1
  18871992.932   -29227042.982 7 -22354557.745 2
  19689902.979   -22822239.990 7 -17213138.306 2
 90 10 15 13 19 14.9940000  0  5 02 06 15 13 09
  20240349.627    -2313534.488 7    435650.681 2
  18741816.908   -17668014.936 7 -13692592.852 3
  22358605.908   -11216338.850 5    380360.190 1
  18865751.807   -29259843.621 7 -22380116.677 2
  19680423.369   -22872050.996 7 -17251952.081 2
 90 10 15 13 19 29.9940000  0  5 02 06 15 13 09
  20241662.830    -2306638.079 7    441024.469 2
  18739946.940   -17677840.250 7 -13700248.957 3
  22360757.135   -11205039.516 5    389164.843 1
  18859535.330   -29292506.858 7 -22405568.550 2
  19670961.854   -22921777.230 7 -17290699.797 2
 90 10 15 13 19 44.9940000  0  5 02 06 15 13 09
  20242983.549    -2299694.487 7    446435.023 2
  18738103.869   -17687528.245 7 -13707798.057 3
  22362929.213   -11193612.637 5    398068.873 1
  18853346.541   -29325028.473 7 -22430910.063 2
  19661516.322   -22971414.361 7 -17329378.081 2
 90 10 15 13 19 59.9940000  0  5 02 06 15 13 09
  20244314.486    -2292706.473 7    451880.191 2
  18736284.932   -17697081.430 7 -13715242.111 3
  22365132.111   -11182060.820 5    407070.245 1
  18847184.604   -29357411.342 7 -22456143.465 2
  19652085.885   -23020964.878 7 -17367988.880 2
 90 10 15 13 20 14.9940000  0  5 02 06 15 13 09
  20245651.643    -2285677.521 7    457357.258 2
  18734491.963   -17706502.937 7 -13722583.561 3
  22367344.611   -11170388.030 5    416165.876 1
  18841048.611   -29389658.732 7 -22481271.299 2
  19642673.283   -23070431.699 7 -17406534.455 2
 90 10 15 13 20 29.9940000  0  5 02 06 15 13 09
  20246998.955    -2278601.727 7    462870.823 2
  18732725.822   -17715786.965 7 -13729817.884 3
  22369599.330   -11158588.406 5    425360.333 1
  18834939.893   -29421764.735 7 -22506288.961 2
  19633276.299   -23119808.558 7 -17445009.931 2
 90 10 15 13 20 44.9940000  0  5 02 06 15 13 09
  20248352.799    -2271487.767 7    468414.132 2
  18730983.135   -17724941.969 7 -13736951.663 3
  22371860.494   -11146671.339 5    434646.352 1
  18828854.205   -29453738.438 7 -22531203.536 2
  19623896.190   -23169103.997 7 -17483421.969 2
 90 10 15 13 20 59.9940000  0  6 02 12 06 15 13 09
  20249714.197    -2264327.373 7    473993.621 2
  23144990.049          -0.91913
  18729268.205   -17733959.745 7 -13743978.515 3
  22374158.400   -11134628.457 5    444030.371 1
  18822796.619   -29485571.590 7 -22556008.586 2
  19614533.854   -23218309.077 7 -17521763.586 2
 90 10 15 13 21 14.9940000  0  6 02 12 06 15 13 09
  20251087.244    -2257121.917 7    479608.220 2
  23132601.760      -65097.886 3
  18727578.299   -17742841.510 7 -13750899.385 3
  22376468.346   -11122461.290 5    453511.253 1
  18816764.893   -29517265.532 7 -22580705.166 2
  19605186.244   -23267425.335 7 -17560035.996 2
 90 10 15 13 21 29.9940000  0  6 02 12 06 15 13 09
  20252464.932    -2249874.272 7    485255.700 2
  23120212.104     -130203.147 4
  18725913.338   -17751590.089 7 -13757716.474 3
  22378809.854   -11110173.106 5    463086.395 1
  18810759.713   -29548823.116 7 -22605295.492 2
  19595856.572   -23316455.107 7 -17598241.018 2
 90 10 15 13 21 44.9940000  0  6 02 12 06 15 13 09
  20253852.236    -2242585.570 7    490935.167 2
  23107821.682     -195317.630 4
  18724272.971   -17760206.418 7 -13764430.511 3
  22381172.588   -11097764.960 5    472755.071 1
  18804781.057   -29580245.514 7 -22629780.477 2
  19586542.924   -23365399.152 7 -17636379.236 2
 90 10 15 13 21 59.9940000  0  6 02 12 06 15 13 09
  20255247.658    -2235251.972 7    496649.613 2
  23095430.213     -260437.429 4
  18722659.775   -17768686.742 7 -13771038.568 3
  22383553.205   -11085233.628 5    482519.678 1
  18798828.494   -29611528.948 7 -22654157.177 2
  19577245.768   -23414253.529 7 -17674447.589 2
 90 10 15 13 22 14.9940000  0  6 02 12 06 15 13 09
  20256651.940    -2227875.427 7    502397.529 2
  23083036.846     -325564.151 5
  18721071.494   -17777032.820 7 -13777542.026 3
  22385963.346   -11072581.299 5    492378.598 1
  18792900.525   -29642675.327 7 -22678427.080 2
  19567965.979   -23463019.884 7 -17712447.354 2
 90 10 15 13 22 29.9940000  0  6 02 12 06 15 13 09
  20258063.525    -2220457.527 7    508177.672 2
  23070642.525     -390699.001 5
  18719507.940   -17785245.989 7 -13783941.917 3
  22388391.955   -11059809.439 5    502330.671 1
  18786999.838   -29673686.152 7 -22702591.361 2
  19558702.408   -23511698.970 7 -17750379.111 2
 90 10 15 13 22 44.9940000  0  6 02 12 06 15 13 09
  20259483.315    -2212996.198 7    513991.651 2
  23058248.010     -455839.740 5        -0.06311
  18717971.525   -17793324.117 7 -13790236.584 3
  22390847.252   -11046916.350 5    512377.177 1
  18781124.010   -29704559.597 7 -22726648.590 2
  19549457.213   -23560288.557 7 -17788241.136 2
 90 10 15 13 22 59.9940000  0  6 02 12 06 15 13 09
  20260910.869    -2205491.105 7    519839.730 2
  23045851.072     -520985.953 5    -50763.381 1
  18716459.971   -17801266.801 7 -13796425.707 3
  22393323.252   -11033902.106 5    522518.126 1
  18775277.002   -29735295.416 7 -22750598.577 2
  19540226.705   -23608788.230 7 -17826033.090 2
 90 10 15 13 23 14.9940000  0  6 02 12 06 15 13 09
  20262347.783    -2197939.111 7    525724.358 2
  23033450.268     -586134.400 4
  18714974.971   -17809071.012 7 -13802506.923 3
  22395823.268   -11020763.739 5    532755.788 1
  18769453.400   -29765890.479 7 -22774438.884 2
  19531016.236   -23657194.426 7 -17863752.210 2
 90 10 15 13 23 29.9940000  0  6 02 12 06 15 13 09
  20263793.299    -2190343.676 7    531642.834 2
  23021055.346     -651288.266 4
  18713515.486   -17816740.110 7 -13808482.864 3
  22398344.635   -11007505.049 5    543087.209 1
  18763657.760   -29796348.502 7 -22798172.409 2
  19521821.416   -23705510.301 7 -17901400.947 2
 90 10 15 13 23 44.9940000  0  6 02 12 06 15 13 09
  20265247.400    -2182704.134 7    537595.678 2
  23008654.666     -716446.773 4
  18712082.268   -17824273.273 7 -13814352.882 3
  22400891.627   -10994125.717 5    553512.623 1
  18757887.838   -29826668.784 7 -22821798.605 2
  19512644.940   -23753735.284 7 -17938978.861 2
 90 10 15 13 23 59.9940000  0  6 02 12 06 15 13 09
  20266708.635    -2175023.960 7    543580.184 2
  22996252.275     -781613.081 4        -0.47211
  18710674.463   -17831673.926 7 -13820119.639 3
  22403461.549   -10980629.092 5    564029.435 1
  18752144.119   -29856854.654 7 -22845320.060 2
  19503484.604   -23801871.921 7 -17976487.940 2
 90 10 15 13 24 14.9940000  0  6 02 12 06 15 13 09
  20268178.869    -2167296.950 7    549601.188 2
  22983854.158     -846780.758 4    -50780.439 1
  18709291.799   -17838935.670 7 -13825778.156 3
  22406053.361   -10967009.458 5    574642.093 1
  18746426.736   -29886899.926 7 -22868731.960 2
  19494342.619   -23849913.902 7 -18013923.252 2
 90 10 15 13 24 29.9940000  0  6 02 12 06 15 13 09
  20269656.744    -2159528.700 7    555654.322 2
  22971451.010     -911955.373 4
  18707935.596   -17846064.212 7 -13831332.879 3
  22408668.565   -10953272.741 5    585346.003 1
  18740734.424   -29916810.402 7 -22892038.825 2
  19485217.104   -23897866.766 7 -18051289.133 2
 90 10 15 13 24 44.9940000  0  6 02 12 06 15 13 09
  20271144.643    -2151716.086 7    561742.032 2
  22959047.369     -977133.319 4
  18706603.705   -17853056.152 7 -13836781.168 3
  22411301.299   -10939415.899 5    596143.509 1
  18735068.221   -29946583.126 7 -22915238.350 2
  19476110.533   -23945726.615 7 -18088582.528 2
 90 10 15 13 24 59.9940000  0  6 02 12 06 15 13 09
  20272639.377    -2143862.279 7    567861.836 2
  22946644.330    -1042317.615 4        -0.39711
  18705300.361   -17859914.640 7 -13842125.459 3
  22413963.940   -10925442.279 5    607031.999 1
  18729428.940   -29976221.261 7 -22938333.003 2
  19467020.072   -23993496.391 7 -18125805.730 2
 90 10 15 13 25 14.9940000  0  6 02 12 06 15 13 09
  20274144.361    -2135960.379 7    574019.112 2
  22934236.807    -1107501.077 4    -50792.721 1
  18704020.924   -17866632.628 7 -13847360.277 3
  22416644.400   -10911345.514 5    618016.454 1
  18723816.463   -30005718.101 7 -22961317.552 2
  19457947.299   -24041169.109 7 -18162953.309 2
 90 10 15 13 25 29.9940000  0  6 02 12 06 15 13 09
  20275654.033    -2128017.009 7    580208.706 2
  22921831.690    -1172690.190 4   -101589.459 1
  18702768.760   -17873216.777 7 -13852490.804 3
  22419352.729   -10897132.275 5    629091.656 1
  18718229.619   -30035080.254 7 -22984197.154 2
  19448891.940   -24088750.731 7 -18200029.903 2
 90 10 15 13 25 44.9940000  0  6 02 12 06 15 13 09
  20277175.432    -2120030.853 7    586431.641 2
  22909429.471    -1237883.391 4   -152389.350 1
  18701541.822   -17879665.552 7 -13857515.843 3
  22422077.932   -10882801.472 5    640258.462 1
  18712667.174   -30064306.477 7 -23006970.832 2
  19439855.854   -24136239.787 7 -18237034.367 2
 90 10 15 13 25 59.9940000  0  6 02 12 06 15 13 09
  20278702.416    -2111997.169 7    592691.604 2
  22897025.111    -1303075.835 4   -203188.666 1
  18700340.275   -17885974.271 7 -13862431.746 3
  22424828.510   -10868348.810 5    651520.215 1
  18707131.260   -30093392.078 7 -23029634.939 2
  19430838.221   -24183631.452 7 -18273962.945 2
 90 10 15 13 26 14.9940000  0  6 02 12 06 15 13 09
  20280241.369    -2103917.430 7    598987.459 2
  22884615.658    -1368268.803 4   -253988.387 1
  18699167.221   -17892144.526 7 -13867239.757 3
  22427599.565   -10853775.931 5    662875.642 1
  18701623.502   -30122338.497 7 -23052190.592 2
  19421838.471   -24230926.579 7 -18310816.296 2
 90 10 15 13 26 29.9940000  0  6 02 12 06 15 13 09
  20281785.869    -2095792.125 7    605318.818 2
  22872215.479    -1433462.532 3   -304788.684 1
  18698018.494   -17898176.484 7 -13871940.004 3
  22430395.783   -10839083.471 5    674324.279 1
  18696142.150   -30151146.432 7 -23074638.335 2
  19412857.072   -24278125.397 7 -18347594.602 2
 90 10 15 13 26 44.9940000  0  6 02 12 06 15 13 09
  20283339.877    -2087629.830 7    611678.996 2
  22859804.697    -1498665.448 4   -355596.115 1
  18696894.869   -17904078.809 7 -13876539.234 3
  22433215.361   -10824280.434 5    685859.100 1
  18690684.119   -30179824.597 7 -23096984.960 2
  19403892.768   -24325236.322 7 -18384304.421 2
 90 10 15 13 26 59.9940000  0  6 02 12 06 15 13 09
  20284901.979    -2079422.180 7    618074.520 2
  22847397.315    -1563868.967 3   -406404.104 1
  18695798.580   -17909843.068 7 -13881030.886 3
  22436051.096   -10809358.789 5    697486.306 1
  18685253.150   -30208364.647 7 -23119223.963 2
  19394946.752   -24372250.742 7 -18420939.043 2
 90 10 15 13 27 14.9940000  0  6 02 12 06 15 13 09
  20286472.877    -2071169.435 7    624505.178 2
  22834981.260    -1629072.979 3   -457212.407 1
  18694728.244   -17915469.437 7 -13885415.089 3
  22438916.752   -10794319.140 5    709205.477 1
  18679848.682   -30236766.991 7 -23141355.663 2
  19386017.408   -24419168.451 7 -18457498.306 2
 90 10 15 13 27 29.9940000  0  6 02 12 06 15 13 09
  20288052.104    -2062870.590 7    630971.758 2
  22822578.260    -1694276.404 3   -508020.255 1
  18693683.869   -17920956.756 7 -13889690.941 3
  22441798.830   -10779160.539 5    721017.321 1
  18674469.955   -30265030.488 7 -23163379.169 2
  19377108.619   -24465988.118 7 -18493981.172 2
 90 10 15 13 27 44.9940000  0  6 02 12 06 15 13 09
  20289639.541    -2054527.516 7    637472.808 2
  22810172.510    -1759480.955 3   -558829.020 1
  18692665.486   -17926306.978 7 -13893859.963 3
  22444707.064   -10763885.091 5    732920.208 1
  18669117.033   -30293157.232 7 -23185296.117 2
  19368216.393   -24512711.123 7 -18530388.711 2
 90 10 15 13 27 59.9940000  0  6 02 12 06 15 13 09
  20291236.033    -2046136.916 7    644010.890 2
  22797764.705    -1824683.010 3   -609635.801 1
  18691674.908   -17931516.596 7 -13897919.428 3
  22447636.510   -10748489.708 5    744916.563 1
  18663793.088   -30321144.166 7 -23207104.118 2
  19359343.775   -24559334.026 7 -18566718.254 2
 90 10 15 13 28 14.9940000  0  6 02 12 06 15 13 09
  20292841.525    -2037702.112 7    650583.412 2
  22785353.846    -1889885.775 3   -660443.155 1
  18690709.080   -17936588.884 7 -13901871.887 3
  22450587.979   -10732978.173 5    757003.399 1
  18658492.854   -30348994.342 7 -23228805.553 2
  19350490.463   -24605860.131 7 -18602972.371 2
 90 10 15 13 28 29.9940000  0  6 02 12 06 15 13 09
  20294454.979    -2029223.406 7    657190.149 2
  22772947.502    -1955089.084 3   -711250.923 1
  18689769.432   -17941524.220 7 -13905717.627 3
  22453559.689   -10717350.884 5    769180.461 1
  18653218.900   -30376707.964 7 -23250400.590 2
  19341655.369   -24652288.911 7 -18639150.653 2
 90 10 15 13 28 44.9940000  0  6 02 12 06 15 13 09
  20296075.940    -2020699.495 7    663832.105 2
  22760536.291    -2020291.414 3   -762057.932 1
  18688857.346   -17946320.922 7 -13909455.342 3
  22456557.510   -10701607.060 5    781448.323 1
  18647971.846   -30404284.154 7 -23271888.527 2
  19332839.150   -24698618.716 7 -18675251.805 2
 90 10 15 13 28 59.9940000  0  6 02 12 06 15 13 09
  20297706.979    -2012134.451 7    670506.116 2
  22748125.666    -2085496.668 3   -812867.205 1
  18687970.111   -17950983.208 7 -13913088.322 3
  22459575.346   -10685750.930 5    793803.692 1
  18642749.611   -30431726.899 7 -23293272.492 2
  19324041.721   -24744853.448 7 -18711278.880 2
 90 10 15 13 29 14.9940000  0  6 02 12 06 15 13 09
  20299345.916    -2003521.905 6    677217.140 2
  22735722.471    -2150698.331 3   -863673.695 1
  18687109.846   -17955504.827 7 -13916611.684 3
  22462613.158   -10669776.227 5    806251.458 1
  18637553.549   -30459030.154 7 -23314547.757 2
  19315262.502   -24790986.763 7 -18747226.922 2
 90 10 15 13 29 29.9940000  0  6 02 12 06 15 13 09
  20300993.400    -1994864.381 6    683963.209 2
  22723316.440    -2215898.801 3   -914479.246 1
  18686275.596   -17959888.158 7 -13920027.290 3
  22465679.088   -10653685.818 5    818789.406 1
  18632384.244   -30486196.537 7 -23335716.375 2
  19306502.377   -24837020.603 7 -18783097.460 2
 90 10 15 13 29 44.9940000  0  6 02 12 06 15 13 09
  20302649.385    -1986163.271 6    690743.242 2
  22710913.815    -2281099.182 3   -965284.750 1
  18685467.221   -17964134.657 7 -13923336.277 3
  22468757.361   -10637481.412 5    831416.179 1
  18627239.721   -30513227.452 7 -23356779.422 2
  19297761.010   -24882956.196 7 -18818891.436 2
 90 10 15 13 29 59.9940000  0  6 02 12 06 15 13 09
  20304313.533    -1977418.489 6    697557.309 2
  22698505.369    -2346299.210 3  -1016089.955 1
  18684685.854   -17968243.936 7 -13926538.335 3
  22471867.213   -10621163.436 5    844131.430 1
  18622122.158   -30540122.924 7 -23377736.937 2
  19289039.447   -24928792.908 7 -18854608.365 2
 90 10 15 13 30 14.9940000  0  6 02 12 06 15 13 09
  20305985.822    -1968627.816 6    704407.132 2
  22686093.940    -2411496.408 3  -1066892.966 1
  18683929.588   -17972213.946 7 -13929631.878 3
  22474993.049   -10604729.806 5    856936.802 1
  18617030.104   -30566880.740 7 -23398587.189 2
  19280335.916   -24974528.049 7 -18890246.149 2
 90 10 15 13 30 29.9940000  0  6 02 12 06 15 13 09
  20307667.088    -1959792.102 6    711292.055 2
  22673689.393    -2476691.255 4  -1117694.125 1
  18683201.494   -17976045.331 7 -13932617.397 3
  22478144.861   -10588181.549 5    869831.483 1
  18611964.822   -30593501.699 7 -23419330.800 2
  19271651.947   -25020162.727 7 -18925805.649 2
 90 10 15 13 30 44.9940000  0  6 02 12 06 15 13 09
  20309359.072    -1950909.007 6    718213.895 2
  22661289.908    -2541881.270 4  -1168491.557 1
  18682499.869   -17979735.699 7 -13935493.030 3
  22481313.643   -10571516.505 5    882817.180 1
  18606925.432   -30619983.892 7 -23439966.278 2
  19262987.596   -25065693.835 7 -18961284.440 2
 90 10 15 13 30 59.9940000  0  6 02 12 06 15 13 09
  20311056.557    -1941984.922 6    725167.672 2
  22648878.682    -2607072.641 4  -1219290.039 1
  18681822.338   -17983291.539 7 -13938263.842 3
  22484503.135   -10554741.602 5    895888.476 1
  18601910.182   -30646333.716 7 -23460498.610 2
  19254340.916   -25111127.603 7 -18996687.386 2
 90 10 15 13 31 14.9940000  0  6 02 12 06 15 13 09
  20312763.643    -1933017.277 6    732155.401 2
  22636475.447    -2672262.749 5  -1270087.527 1
  18681171.947   -17986710.341 7 -13940927.867 3
  22487719.494   -10537854.505 5    909047.185 1
  18596921.783   -30672548.784 7 -23480925.944 2
  19245715.315   -25156461.420 7 -19032012.448 2
 90 10 15 13 31 29.9940000  0  6 02 12 06 15 13 09
  20314478.346    -1924004.311 6    739178.433 2
  22624071.502    -2737449.585 5  -1320882.503 1
  18680548.127   -17989990.203 7 -13943483.628 3
  22490952.096   -10520853.788 5    922294.433 1
  18591959.830   -30698627.501 7 -23501247.028 2
  19237108.096   -25201692.755 7 -19067257.653 2
 90 10 15 13 31 44.9940000  0  6 02 12 06 15 13 09
  20316201.518    -1914946.828 6    746236.159 2
  22611668.361    -2802633.549 5  -1371675.198 1
  18679949.549   -17993131.812 7 -13945931.661 3
  22494212.783   -10503740.382 5    935629.522 1
  18587023.033   -30724570.836 7 -23521462.621 2
  19228519.869   -25246822.233 7 -19102423.489 2
 90 10 15 13 31 59.9940000  0  6 02 12 06 15 13 09
  20317934.994    -1905844.980 6    753328.450 2
  22599262.736    -2867814.470 5  -1422465.540 1
  18679377.736   -17996135.272 7 -13948272.047 3
  22497485.822   -10486514.644 5    949052.120 1
  18582111.611   -30750378.840 7 -23541572.760 2
  19219951.385   -25291849.737 7 -19137509.866 2
 90 10 15 13 32 14.9940000  0  6 02 12 06 15 13 09
  20319674.127    -1896695.640 6    760457.754 2
  22586859.877    -2932989.150 5  -1473251.033 1
  18678832.291   -17998997.524 7 -13950502.403 3
  22500789.627   -10469174.095 5    962564.183 1
  18577227.135   -30776048.468 7 -23561575.070 2
  19211402.229   -25336771.973 7 -19172514.221 2
 90 10 15 13 32 29.9940000  0  6 02 12 06 15 13 09
  20321422.065    -1887507.449 6    767617.328 2
  22574453.119    -2998165.874 4  -1524038.083 1
  18678314.697   -18001727.027 7 -13952629.316 3
  22504106.393   -10451727.428 4    976158.957 1
  18572366.150   -30801588.660 7 -23581476.519 2
  19202873.549   -25381596.998 7 -19207442.820 2
 90 10 15 13 32 44.9940000  0  6 02 12 06 15 13 09
  20323180.955    -1878268.816 6    774816.207 2
  22562057.697    -3063332.698 5  -1574817.443 1
  18677821.658   -18004312.131 7 -13954643.707 3
  22507450.947   -10434163.153 5    989845.359 1
  18567534.025   -30826987.530 7 -23601267.850 2
  19194363.510   -25426312.919 7 -19242286.407 2
 90 10 15 13 32 59.9940000  0  6 02 12 06 15 13 09
  20324948.674    -1868984.524 6    782050.670 2
  22549654.682    -3128494.257 4  -1625592.695 1
  18677357.463   -18006757.795 7 -13956549.446 3
  22510813.627   -10416486.513 4   1003619.335 1
  18562726.002   -30852250.315 7 -23620953.146 2
  19185873.916   -25470924.271 7 -19277048.509 2
 90 10 15 13 33 14.9940000  0  6 02 12 06 15 13 09
  20326723.604    -1859654.268 6    789320.943 2
  22537259.330    -3193650.154 5  -1676363.541 1
  18676918.533   -18009063.641 7 -13958346.231 3
  22514196.236   -10398697.534 4   1017480.821 1
  18557944.111   -30877376.650 7 -23640532.114 2
  19177406.268   -25515430.721 7 -19311728.871 2
 90 10 15 13 33 29.9940000  0  6 02 12 06 15 13 09
  20328507.057    -1850280.551 6    796625.086 2
  22524863.346    -3258802.675 5  -1727131.768 1
  18676505.666   -18011232.085 7 -13960035.960 3
  22517606.994   -10380799.065 4   1031427.626 1
  18553189.596   -30902369.372 7 -23660006.970 2
  19168955.213   -25559834.128 7 -19346328.939 2
 90 10 15 13 33 44.9940000  0  6 02 12 06 15 13 09
  20330300.846    -1840861.323 6    803964.688 2
  22512461.619    -3323949.609 5  -1777895.664 1
  18676120.119   -18013261.198 7 -13961617.112 3
  22521029.557   -10362789.309 4   1045461.174 1
  18548458.166   -30927226.571 7 -23679376.226 2
  19160526.627   -25604132.215 7 -19380846.936 2
 90 10 15 13 33 59.9940000  0  6 02 12 06 15 13 09
  20332100.486    -1831395.641 6    811340.485 2
  22500067.197    -3389089.856 5  -1828654.318 1
  18675758.744   -18015149.990 7 -13963088.928 3
  22524481.799   -10344667.780 4   1059581.788 1
  18543754.041   -30951947.242 7 -23698639.093 2
  19152116.721   -25648323.918 7 -19415282.045 2
 90 10 15 13 34 14.9940000  0  6 02 12 06 15 13 09
  20333911.354    -1821881.708 6    818753.885 2
  22487672.643    -3454221.107 5  -1879405.968 1
  18675427.822   -18016896.383 7 -13964449.778 3
  22527946.768   -10326432.808 4   1073790.788 1
  18539077.486   -30976529.613 7 -23717794.194 2
  19143727.854   -25692406.841 7 -19449632.385 2
 90 10 15 13 34 29.9940000  0  6 02 12 06 15 13 09
  20335729.799    -1812322.633 6    826202.462 1
  22475282.150    -3519346.427 5  -1930152.978 1
  18675121.330   -18018503.706 7 -13965702.259 3
  22531441.033   -10308087.826 4   1088085.537 1
  18534425.268   -31000977.205 7 -23736844.274 2
  19135360.119   -25736383.966 7 -19483900.287 2
 90 10 15 13 34 44.9940000  0  6 02 12 06 15 13 09
  20337555.549    -1802722.554 6    833682.987 2
  22462886.643    -3584469.631 5  -1980898.377 1
  18674841.822   -18019976.073 7 -13966849.590 3
  22534954.736   -10289636.922 4   1102462.863 1
  18529797.635   -31025294.247 7 -23755792.625 2
  19127011.221   -25780258.948 7 -19518088.596 2
 90 10 15 13 34 59.9940000  0  6 02 12 06 15 13 09
  20339393.736    -1793074.413 6    841200.964 2
  22450494.994    -3649583.425 4  -2031636.400 1
  18674589.072   -18021306.482 7 -13967886.299 3
  22538484.815   -10271073.605 4   1116927.725 1
  18525195.502   -31049473.666 7 -23774633.740 2
  19118681.627   -25824024.651 7 -19552191.750 2
 90 10 15 13 35 14.9940000  0  6 02 12 06 15 13 09
  20341237.822    -1783380.760 6    848754.403 2
  22438107.908    -3714689.939 5  -2082368.751 1
  18674361.854   -18022497.160 7 -13968814.127 3
  22542041.322   -10252400.947 4   1131477.794 1
  18520620.400   -31073517.928 7 -23793369.537 2
  19110374.400   -25867683.151 7 -19586211.376 2
 90 10 15 13 35 29.9940000  0  6 02 12 06 15 13 09
  20343092.229    -1773641.966 6    856343.018 1
  22425714.955    -3779789.506 5  -2133095.713 1
  18674161.869   -18023548.668 7 -13969633.517 3
  22545612.244   -10233619.432 4   1146112.678 1
  18516069.979   -31097427.723 7 -23812000.551 2
  19102087.268   -25911234.666 7 -19620147.635 2
 90 10 15 13 35 44.9940000  0  6 02 12 06 15 13 09
  20344954.158    -1763856.744 6    863967.808 1
  22413331.369    -3844880.529 5  -2183816.040 1
  18673987.510   -18024459.524 7 -13970343.304 3
  22549209.791   -10214727.717 4   1160833.441 1
  18511546.697   -31121201.641 7 -23830525.696 2
  19093819.854   -25954677.400 7 -19653999.133 2
 90 10 15 13 35 59.9940000  0  6 02 12 06 15 13 09
  20346823.408    -1754027.738 6    871626.717 1
  22400948.377    -3909965.562 5  -2234531.686 1
  18673840.111   -18025232.774 7 -13970945.869 3
  22552824.752   -10195729.169 5   1175637.427 1
  18507047.979   -31144842.797 7 -23848947.382 2
  19085572.619   -25998013.835 7 -19687767.796 2
 90 10 15 13 36 14.9940000  0  6 02 12 06 15 13 09
  20348703.377    -1744154.656 6    879319.971 1
  22388566.416    -3975043.988 5  -2285242.144 1
  18673721.143   -18025867.788 7 -13971440.719 3
  22556458.861   -10176624.033 5   1190524.506 1
  18502575.166   -31168350.918 7 -23867265.403 2
  19077346.205   -26041243.647 7 -19721453.381 2
 90 10 15 13 36 29.9940000  0  6 02 12 06 15 13 09
  20350592.213    -1734231.373 6    887052.343 1
  22376179.861    -4040109.312 5  -2335942.440 1
  18673627.252   -18026358.400 7 -13971823.045 3
  22560117.861   -10157406.189 5   1205499.408 1
  18498127.025   -31191719.956 7 -23885475.051 2
  19069141.463   -26084359.885 7 -19755050.469 2
 90 10 15 13 36 44.9940000  0  6 02 12 06 15 13 09
  20352487.619    -1724264.477 6    894818.703 1
  22363804.440    -4105168.026 5  -2386637.550 1
  18673560.182   -18026711.375 7 -13972098.121 3
  22563793.104   -10138082.291 5   1220556.938 1
  18493703.783   -31214956.895 7 -23903581.766 2
  19060958.721   -26127368.796 7 -19788563.911 2
 90 10 15 13 36 59.9940000  0  6 02 12 06 15 13 09
  20354392.658    -1714252.914 6    902619.859 2
  22351422.893    -4170218.958 5  -2437326.601 1
  18673518.510   -18026925.658 7
  22567490.822   -10118651.946 5   1235697.453 1
  18489308.338   -31238060.752 7 -23921584.781 2
  19052794.166   -26170269.425 7 -19821992.988 2
 90 10 15 13 37 14.9940000  0  6 02 12 06 15 13 09
  20356307.080    -1704193.102 6    910458.615 1
  22339048.072    -4235258.067 4  -2488006.422 1
  18673504.018   -18026997.653 7
  22571209.244   -10099111.797 5   1250923.495 1
  18484938.065   -31261027.933 7 -23939481.301 2
  19044651.650   -26213057.853 7 -19855334.637 2
 90 10 15 13 37 29.9940000  0  6 02 12 06 15 13 09
  20358229.439    -1694089.871 6    918331.204 1
  22326672.190    -4300289.796 4  -2538680.531 1
  18673518.924   -18026931.951 7
  22574949.588   -10079466.522 5   1266231.455 1
  18480594.666   -31283863.486 7 -23957275.242 2
  19036530.627   -26255738.430 7 -19888592.245 2
 90 10 15 13 37 44.9940000  0  6 02 12 06 15 13 09
  20360162.150    -1683940.511 6    926239.741 1
  22314297.002    -4365311.075 4  -2589346.473 1
  18673557.752   -18026725.672 7
  22578705.947   -10059714.204 5   1281622.819 1
  18476273.127   -31306564.420 7 -23974964.292 2
  19028429.252   -26298307.806 7 -19921763.205 2
 90 10 15 13 37 59.9940000  0  6 02 12 06 15 13 09
  20362101.283    -1673743.080 6    934185.733 2
  22301928.627    -4430320.048 5  -2640002.842 1
  18673623.658   -18026377.308 7
  22582486.963   -10039852.782 5   1297099.213 1
  18471979.369   -31329129.305 7 -23992547.331 2
  19020349.010   -26340764.064 7 -19954846.023 2
 90 10 15 13 38 14.9940000  0  6 02 12 06 15 13 09
  20364051.338    -1663499.185 6    942167.936 2
  22289559.893    -4495318.061 5  -2690650.662 1
  18673717.588   -18025888.345 7        -0.48613
  22586284.815   -10019884.526 5   1312658.884 1
  18467711.463   -31351559.910 7 -24010025.737 2
  19012291.268   -26383108.573 7 -19987841.762 2
 90 10 15 13 38 29.9940000  0  6 02 12 06 15 13 09
  20366009.432    -1653210.421 6    950185.095 1
  22277194.994    -4560306.436 5  -2741290.971 1
  18673834.471   -18025260.441 7       488.758 3
  22590104.158    -9999811.434 5   1328300.233 1
  18463468.041   -31373857.984 7 -24027400.875 2
  19004254.354   -26425342.602 7 -20020751.408 2
 90 10 15 13 38 44.9940000  0  6 02 12 06 15 13 09
  20367974.830    -1642879.290 6    958235.269 1
  22264826.119    -4625287.625 4  -2791925.673 1
  18673981.158   -18024496.289 7      1084.173 3
  22593945.463    -9979636.062 5   1344021.242 1
  18459249.955   -31396026.144 7 -24044674.775 2
  18996238.533   -26467468.477 7 -20053576.783 2
 90 10 15 13 38 59.9940000  0  6 02 12 06 15 13 09
  20369950.361    -1632503.906 6    966319.927 1
  22252465.783    -4690259.380 5  -2842553.011 1
  18674154.361   -18023593.609 7      1787.525 3
  22597803.065    -9959357.081 5   1359823.005 1
  18455056.432   -31418062.556 7 -24061846.019 2
  18988243.760   -26509483.782 7 -20086315.995 2
 90 10 15 13 39 14.9940000  0  6 02 12 06 15 13 09
  20371932.213    -1622085.125 6    974438.398 1
  22240098.947    -4755222.058 4  -2893173.265 1
  18674350.807   -18022553.321 7      2598.107 3
  22601682.557    -9938975.626 5   1375704.570 1
  18450886.799   -31439968.218 7 -24078915.379 2
  18980269.049   -26551389.257 7 -20118969.629 2
 90 10 15 13 39 29.9940000  0  6 02 12 06 15 13 09
  20373923.088    -1611621.094 6    982592.128 1
  22227739.494    -4820173.851 4  -2943785.039 1
  18674575.643   -18021373.837 7      3517.152 3
  22605581.268    -9918489.903 5   1391667.474 1
  18446745.111   -31461741.778 7 -24095881.798 2
  18972316.260   -26593182.689 7 -20151535.961 2
 90 10 15 13 39 44.9940000  0  6 02 12 06 15 13 09
  20375923.572    -1601109.894 6    990782.614 1
  22215386.783    -4885112.407 5  -2994386.495 1
  18674827.760   -18020052.991 7      4546.350 3
  22609497.025    -9897898.473 5   1407712.704 1
  18442627.010   -31483381.253 7 -24112743.743 2
  18964384.283   -26634861.686 7 -20184013.125 2
 90 10 15 13 39 59.9940000  0  6 02 12 06 15 13 09
  20377933.361    -1590550.903 6    999010.336 1
  22203030.533    -4950036.951 5  -3044977.057 1
  18675105.346   -18018590.489 7      5685.930 3
  22613439.690    -9877201.258 5   1423840.311 1
  18438534.252   -31504886.126 7 -24129500.804 2
  18956475.815   -26676425.606 7 -20216400.605 2
 90 10 15 13 40 14.9940000  0  6 02 12 06 15 13 09
  20379951.440    -1579943.225 6   1007275.996 1
  22190676.096    -5014946.359 5  -3095555.848 1
  18675411.260   -18016985.400 7      6936.612 3
  22617398.611    -9856397.298 5   1440051.161 1
  18434467.658   -31526255.657 7 -24146152.395 2
  18948588.682   -26717873.356 7 -20248697.574 2
 90 10 15 13 40 29.9930000  0  6 02 12 06 15 13 09
  20381980.435    -1569293.343 6   1015574.547 2
  22178326.849    -5079841.842 5  -3146123.743 1
  18675741.989   -18015243.448 7      8293.945 3
  22621373.302    -9835494.298 5   1456339.153 1
  18430426.442   -31547494.557 7 -24162702.204 2
  18940722.724   -26759207.521 7 -20280906.035 2
 90 10 15 13 40 44.9930000  0  6 02 12 06 15 13 09
  20384013.435    -1558597.307 6   1023909.060 1
  22165980.161    -5144729.293 5  -3196685.383 1
  18676101.692   -18013362.082 7      9759.913 3
  22625372.372    -9814487.157 5   1472708.298 1
  18426409.153   -31568603.222 7 -24179150.528 2
  18932877.794   -26800430.614 7 -20313027.946 2
 90 10 15 13 40 59.9930000  0  6 02 12 06 15 13 09
  20386058.231    -1547857.494 6   1032277.684 1
  22153633.153    -5209605.503 5  -3247238.261 1
  18676485.505   -18011342.797 7     11333.345 3
  22629389.349    -9793378.952 5   1489156.176 1
  18422416.942   -31589581.646 7 -24195497.368 2
  18925055.200   -26841541.154 7 -20345062.153 2
 90 10 15 13 41 14.9930000  0  6 02 12 06 15 13 09
  20388112.146    -1537067.666 6   1040685.281 1
  22141290.208    -5274464.165 4  -3297777.515 1
  18676896.231   -18009179.490 7     13019.004 3
  22633426.700    -9772164.083 5   1505687.175 1
  18418449.708   -31610423.999 7 -24211738.179 2
  18917254.802   -26882532.824 7 -20377003.733 2
 90 10 15 13 41 29.9930000  0  6 02 12 06 15 13 09
  20390172.505    -1526231.035 6   1049129.346 1
  22128955.474    -5339308.179 5  -3348305.302 1
  18677335.192   -18006875.256 7     14814.477 3
  22637483.028    -9750846.188 5   1522298.490 1
  18414510.294   -31631133.636 7 -24227875.577 2
  18909476.419   -26923408.406 7 -20408854.854 2
 90 10 15 13 41 44.9930000  0  6 02 12 06 15 13 09
  20392245.052    -1515347.259 6   1057610.148 1
  22116618.130    -5404137.065 5  -3398821.330 1
  18677800.083   -18004430.158 7     16719.714 3
  22641560.208    -9729425.160 5   1538990.189 1
  18410594.075   -31651710.599 7 -24243909.592 2
  18901720.028   -26964167.486 7 -20440615.193 2
 90 10 15 13 41 59.9930000  0  6 02 12 06 15 13 09
  20394325.075    -1504418.976 6   1066125.637 1
  22104281.614    -5468953.240 5  -3449327.467 1
  18678292.771   -18001846.790 7     18732.691 3
  22645653.833    -9707903.868 5   1555759.977 1
  18406703.349   -31672157.722 7 -24259842.425 2
  18893986.731   -27004812.323 7 -20472286.510 2
 90 10 15 13 42 14.9930000  0  6 02 12 06 15 13 09
  20396412.138    -1493443.433 6   1074677.936 1
  22091950.396    -5533753.579 5  -3499821.246 1
  18678810.927   -17999122.165 7     20855.746 3
  22649772.560    -9686279.506 5   1572610.068 1
  18402837.216   -31692472.065 7 -24275671.800 2
  18886273.911   -27045339.652 7 -20503866.257 2
 90 10 15 13 42 29.9930000  0  6 02 12 06 15 13 09
  20398510.880    -1482423.631 6   1083264.741 1
  22079624.661    -5598540.925 5  -3550304.962 1
  18679355.427   -17996259.339 7     23086.485 3
  22653903.935    -9664556.011 5   1589537.401 1
  18398996.661   -31712656.885 7 -24291400.240 2
  18878583.856   -27085752.385 7 -20535356.720 2
 90 10 15 13 42 44.9930000  0  6 02 12 06 15 13 09
  20400615.817    -1471354.761 6   1091889.773 1
  22067297.661    -5663310.165 5  -3600774.486 1
  18679927.622   -17993253.738 7     25428.481 3
  22658057.747    -9642728.737 5   1606545.642 1
  18395181.239   -31732707.467 7 -24307024.091 2
  18870915.763   -27126045.298 7 -20566753.811 2
 90 10 15 13 42 59.9930000  0  6 02 12 06 15 13 09
  20402729.497    -1460239.753 6   1100550.756 1
  22054976.638    -5728064.016 5  -3651232.075 1
  18680526.450   -17990108.302 7     27879.433 3
  22662231.052    -9620800.819 5   1623632.333 1
  18391391.067   -31752626.959 7 -24322545.790 2
  18863268.958   -27166221.251 7 -20598059.774 2
 90 10 15 13 43 14.9930000  0  6 02 12 06 15 13 09
  20404854.817    -1449080.430 6   1109246.266 1
  22042656.067    -5792804.013 5  -3701678.832 1
  18681151.810   -17986824.655 7     30438.082 3
  22666423.130    -9598774.467 5   1640795.665 1
  18387624.841   -31772417.186 7 -24337966.764 2
  18855647.771   -27206281.394 7 -20629275.488 2
 90 10 15 13 43 29.9930000  0  6 02 12 06 15 13 09
  20406988.005    -1437874.706 6   1117977.935 1
  22030340.099    -5857527.727 5  -3752112.936 1
  18681802.919   -17983400.844 7     33105.953 3
  22670631.731    -9576647.927 5   1658037.061 1
  18383883.380   -31792076.323 7 -24353285.587 2
  18848046.950   -27246223.689 7 -20660399.368 2
 90 10 15 13 43 44.9930000  0  6 02 12 06 15 13 09
  20409128.013    -1426624.509 6   1126744.257 1
  22018025.856    -5922236.875 5  -3802535.648 1
  18682480.310   -17979838.873 7     35881.482 3
  22674861.185    -9554423.581 5   1675354.700 1
  18380166.724   -31811606.506 7 -24368503.927 2
  18840468.810   -27286049.649 7 -20691432.595 2
 90 10 15 13 43 59.9930000  0  6 02 12 06 15 13 09
  20411277.778    -1415328.532 6   1135546.254 1
  22005716.583    -5986929.783 5  -3852945.732 1
  18683184.661   -17976137.482 7     38765.644 3
  22679109.138    -9532100.090 5   1692749.588 1
  18376475.067   -31831006.736 7 -24383621.006 2
  18832912.224   -27325757.666 7 -20722373.930 2
 90 10 15 13 44 14.9930000  0  5 02 12 06 13 09
  20413434.153    -1403988.147 6   1144382.850 1
  21993407.560    -6051607.622 5  -3903344.075 1
  18683915.286   -17972297.984 7     41757.424 3
  18372808.661   -31850278.334 7 -24398637.856 2
  18825378.575   -27365348.720 7 -20753224.112 2
 90 10 15 13 44 29.9930000  0  5 02 12 06 13 09
  20415602.419    -1392602.283 6   1153254.886 2
  21981102.005    -6116269.198 5  -3953729.730 1
  18684672.911   -17968319.385 7     44857.597 3
  18369165.489   -31869420.680 7 -24413553.983 2
  18817866.591   -27404821.585 7 -20783982.208 2
 90 10 15 13 44 44.9930000  0  5 02 12 06 13 09
  20417779.146    -1381171.294 6   1162162.089 1
  21968802.028    -6180914.495 5  -4004102.734 1
  18685455.919   -17964202.206 7     48065.749 3
  18365547.013   -31888434.340 7 -24428369.840 2
  18810378.161   -27444176.276 7 -20814648.221 2
 90 10 15 13 44 59.9930000  0  5 02 12 06 13 09
  20419962.489    -1369694.220 6   1171105.193 1
  21956504.544    -6245542.366 5  -4054462.127 1
  18686265.614   -17959945.519 7     51382.611 3
  18361953.294   -31907318.255 7 -24443084.596 2
  18802912.200   -27483411.744 7 -20845221.326 2
 90 10 15 13 45 14.9930000  0  5 02 12 06 13 09
  20422154.739    -1358166.314 6   1180087.910 1
  21944211.927    -6310147.667 5  -4104803.933 1
  18687103.950   -17955544.473 7     54811.963 3
  18358385.583   -31926067.988 7 -24457694.799 2
  18795469.099   -27522522.721 7 -20875697.426 2
 90 10 15 13 45 29.9930000  0  5 02 12 06 13 09
  20424359.857    -1346588.951 6   1189109.159 2
  21931919.036    -6374731.513 5  -4155129.036 1
  18687967.778   -17951000.665 7     58352.558 3
  18354843.880   -31944684.898 7 -24472201.495 2
  18788049.122   -27561510.309 7 -20906077.386 2
 90 10 15 13 45 44.9930000  0  5 02 12 06 13 09
  20426570.185    -1334964.248 6   1198167.305 1
  21919630.778    -6439295.696 5  -4205438.805 1
  18688860.731   -17946316.162 7     62002.785 3
  18351325.919   -31963171.428 7 -24486606.602 2
  18780654.013   -27600376.368 7 -20936362.640 2
 90 10 15 13 45 59.9930000  0  5 02 12 06 13 09
  20428791.989    -1323293.851 6   1207261.055 1
  21907350.622    -6503841.593 5  -4255734.315 1
  18689777.974   -17941492.551 7     65761.406 3
  18347831.497   -31981529.398 7 -24500911.531 2
  18773281.794   -27639122.322 7 -20966554.306 2
 90 10 15 13 46 14.9930000  0  5 02 12 06 13 09
  20431022.060    -1311576.556 6   1216391.346 1
  21895072.536    -6568367.945 5  -4306014.585 1
  18690721.513   -17936528.854 7     69629.183 3
  18344362.435   -31999757.927 7 -24515115.598 2
  18765931.114   -27677746.673 7 -20996651.222 2
 90 10 15 13 46 29.9930000  0  5 02 12 06 13 09
  20433257.810    -1299813.704 6   1225557.138 1
  21882797.325    -6632875.874 5  -4356280.523 1
  18691693.841   -17931426.507 7     73605.002 3
  18340920.153   -32017858.481 7 -24529219.946 2
  18758603.083   -27716250.400 7 -21026654.141 2
 90 10 15 13 46 44.9930000  0  5 02 12 06 13 09
  20435508.458    -1288003.706 6   1234759.670 1
  21870523.224    -6697363.314 5  -4406530.490 1
  18692690.106   -17926183.876 7     77690.127 3
  18337498.903   -32035829.514 7 -24543223.367 2
  18751300.310   -27754631.669 7 -21056561.639 2
 90 10 15 13 46 59.9930000  0  5 02 12 06 13 09
  20437765.036    -1276146.573 6   1243998.931 1
  21858255.849    -6761829.955 5  -4456764.275 1
  18693714.724   -17920800.952 7     81884.577 3
  18334104.286   -32053671.245 7 -24557126.036 2
  18744020.622   -27792890.427 7 -21086373.676 2
 90 10 15 13 47 14.9930000  0  5 02 12 06 13 09
  20440029.763    -1264241.787 6   1253275.324 1
  21845993.591    -6826275.347 5  -4506981.455 1
  18694764.981   -17915277.423 7     86188.584 3
  18330733.247   -32071383.604 7 -24570927.888 2
  18736762.177   -27831025.566 7 -21116089.384 2
 90 10 15 13 47 29.9930000  0  5 02 12 06 13 09
  20442303.013    -1252291.377 6   1262587.264 1
  21833735.028    -6890701.057 5  -4557183.340 1
  18695844.153   -17909615.237 7     90600.641 3
  18327387.731   -32088968.609 7 -24584630.508 2
  18729529.200   -27869038.924 7 -21145710.200 2
 90 10 15 13 47 44.9930000  0  5 02 12 06 13 09
  20444586.208    -1240292.633 6   1271936.866 1
  21821479.521    -6955103.987 5  -4607367.446 1
  18696948.271   -17903811.787 7     95122.772 3
  18324066.106   -32106423.541 7 -24598231.774 2
  18722319.552   -27906927.448 7 -21175233.743 2
 90 10 15 13 47 59.9930000  0  5 02 12 06 13 09
  20446879.067    -1228249.031 6   1281321.423 1
  21809225.903    -7019487.435 5  -4657536.395 1
  18698079.903   -17897870.612 7     99752.225 3
  18320767.333   -32123752.226 7 -24611734.662 2
  18715132.786   -27944694.394 7 -21204662.552 2
 90 10 15 13 48 14.9930000  0  5 02 12 06 13 09
  20449180.458    -1216160.850 6   1290740.723 1
  21796978.997    -7083851.181 5  -4707689.958 1
  18699234.411   -17891791.900 7    104488.840 3
  18317493.825   -32140954.900 7 -24625139.357 2
  18707969.536   -27982339.629 7 -21233996.517 2
 90 10 15 13 48 29.9930000  0  5 02 12 06 13 09
  20451491.263    -1204024.447 6   1300197.593 1
  21784735.919    -7148191.502 5  -4757825.290 1
  18700418.989   -17885572.149 7    109335.361 3
  18314246.731   -32158028.235 7 -24638443.276 2
  18700828.646   -28019859.331 7 -21263232.668 2
 90 10 15 13 48 44.9930000  0  5 02 12 06 13 09
  20453807.372    -1191836.001 6   1309695.020 1
  21772495.677    -7212504.424 5  -4807939.265 1
  18701630.903   -17879207.709 7    114294.625 3
  18311021.567   -32174969.024 7 -24651643.906 2
  18693714.997   -28057249.344 7 -21292367.759 2
 90 10 15 13 48 59.9930000  0  5 02 12 06 13 09
  20456135.466    -1179601.745 6   1319228.148 1
  21760262.888    -7276795.932 5  -4858036.577 1
  18702868.450   -17872704.983 7    119361.642 3
  18307822.396   -32191783.484 7 -24664746.095 2
  18686623.177   -28094515.964 7 -21321406.705 2
 90 10 15 13 49 14.9930000  0  5 02 12 06 13 09
  20458471.833    -1167325.029 6   1328794.344 1
  21748029.130    -7341069.013 5  -4908119.504 1
  18704130.231   -17866067.470 7    124533.692 3
  18304646.653   -32208475.136 7 -24677752.602 2
  18679553.849   -28131662.013 7 -21350351.696 2
 90 10 15 13 49 29.9930000  0  5 02 12 06 13 09
  20460819.341    -1154995.592 6   1338401.637 1
  21735806.372    -7405313.027 5  -4958179.788 1
  18705421.349   -17859284.525 7    129819.065 3
  18301495.825   -32225033.719 7 -24690655.414 2
  18672510.763   -28168676.813 7 -21379194.408 2
 90 10 15 13 49 44.9930000  0  5 02 12 06 13 09
  20463173.778    -1142615.603 6   1348048.313 1
  21723586.903    -7469529.976 5  -5008218.989 1
  18706739.849   -17852358.514 7    135215.915 3
  18298368.661   -32241461.678 7 -24703456.440 2
  18665491.317   -28205562.558 7 -21407936.565 2
 90 10 15 13 49 59.9930000  0  5 02 12 06 13 09
  20465539.161    -1130186.938 6   1357732.927 1
  21711372.403    -7533721.345 5  -5058238.260 1
  18708083.872   -17845291.663 7    140722.513 3
  18295267.333   -32257761.027 7 -24716157.250 2
  18658497.138   -28242320.369 7 -21436579.029 2
 90 10 15 13 50 14.9930000  0  5 02 12 06 13 09
  20467913.442    -1117713.512 6   1367452.407 1
  21699159.646    -7597890.852 5  -5108240.500 1
  18709455.935   -17838087.703 7    146335.949 3
  18292189.427   -32273936.048 7 -24728761.180 2
  18651524.606   -28278954.361 7 -21465125.012 2
 90 10 15 13 50 29.9930000  0  5 02 12 06 13 09
  20470295.231    -1105192.961 6   1377208.620 1
  21686954.208    -7662035.781 5  -5158223.589 1
  18710852.630   -17830744.382 7    152057.981 3
  18289135.146   -32289984.446 7 -24741266.446 2
  18644578.794   -28315461.777 7 -21493572.370 2
 90 10 15 13 50 44.9930000  0  5 02 12 06 13 09
  20472686.864    -1092630.217 6   1386997.695 1
  21674749.411    -7726160.933 5  -5208191.254 1
  18712275.606   -17823266.833 7    157884.604 3
  18286105.231   -32305911.644 7 -24753677.271 2
  18637654.169   -28351847.350 7 -21521924.789 2
 90 10 15 13 50 59.9930000  0  5 02 12 06 13 09
  20475088.505    -1080018.633 6   1396824.840 1
  21662554.802    -7790259.332 5  -5258138.087 1
  18713724.646   -17815648.603 7    163820.846 3
  18283099.114   -32321711.048 7 -24765988.512 2
  18630753.888   -28388104.005 7 -21550176.743 2
 90 10 15 13 51 14.9930000  0  5 02 12 06 13 09
  20477495.153    -1067359.123 6   1406689.323 1
  21650362.247    -7854331.491 5  -5308064.469 1
  18715202.028   -17807890.434 7    169866.137 3
  18280115.146   -32337383.839 7 -24778201.097 2
  18623879.755   -28424232.471 7 -21578328.819 2
 90 10 15 13 51 29.9930000  0  5 02 12 06 13 09
  20479913.146    -1054653.984 6   1416589.370 1
  21638175.638    -7918379.403 5  -5357971.950 1
  18716705.544   -17799994.658 7    176018.648 3
  18277156.630   -32352932.345 7 -24790316.835 2
  18617030.192   -28460234.759 7 -21606382.568 2
 90 10 15 13 51 44.9930000  0  5 02 12 06 13 09
  20482339.755    -1041897.551 6   1426529.379 1
  21625989.685    -7982397.146 5  -5407855.955 1
  18718234.286   -17791955.678 7    182282.746 3
  18274222.708   -32368350.865 7 -24802331.285 2
  18610202.864   -28496104.654 7 -21634333.155 2
 90 10 15 13 51 59.9930000  0  5 02 12 06 13 09
  20484777.271    -1029092.835 6   1436507.011 1
  21613815.044    -8046387.594 5  -5457718.647 1
  18719791.247   -17783776.842 7    188655.825 3
  18271312.880   -32383642.968 7 -24814247.232 2
  18603401.825   -28531844.952 7 -21662182.755 2
 90 10 15 13 52 14.9930000  0  5 02 12 06 13 09
  20487221.716    -1016241.518 6   1446520.957 1
  21601643.271    -8110352.100 5  -5507561.124 1
  18721374.778   -17775459.747 7    195136.638 3
  18268425.739   -32398810.449 7 -24826066.068 2
  18596624.333   -28567457.436 7 -21689932.764 2
 90 10 15 13 52 29.9930000  0  5 02 12 06 13 09
  20489675.880    -1003346.261 6   1456569.137 1
  21589474.427    -8174293.005 5  -5557385.226 1
  18722982.622   -17767007.174 7    201723.021 3
  18265563.231   -32413856.209 7 -24837790.055 2
  18589872.786   -28602944.277 7 -21717584.874 2
 90 10 15 13 52 44.9930000  0  5 02 12 06 13 09
  20492141.177     -990403.559 6   1466654.290 1
  21577309.771    -8238206.541 5  -5607187.998 1
  18724616.075   -17758415.659 7    208417.663 3
  18262724.575   -32428776.836 7 -24849416.540 2
  18583144.341   -28638301.857 7 -21745136.257 2
 90 10 15 13 52 59.9930000  0  5 02 12 06 13 09
  20494614.067     -977413.928 6   1476776.015 1
  21565155.380    -8302092.843 5  -5656969.549 1
  18726276.435   -17749686.002 7    215219.955 3
  18259909.067   -32443573.086 7 -24860946.105 2
  18576439.692   -28673530.285 7 -21772587.002 2
 90 10 15 13 53 14.9930000  0  5 02 12 06 13 09
  20497092.966     -964371.771 6   1486938.661 1
  21553003.419    -8365945.945 5  -5706725.244 1
  18727967.200   -17740812.205 7    222134.561 3
  18257117.911   -32458239.521 7 -24872374.516 2
  18569763.294   -28708623.491 7 -21799932.379 2
 90 10 15 13 53 29.9930000  0  5 02 12 06 13 09
  20499584.341     -951281.681 6   1497138.661 1
  21540858.622    -8429770.299 5  -5756458.510 1
  18729681.677   -17731799.449 7    229157.447 3
  18254349.888   -32472781.053 7 -24883705.602 2
  18563109.036   -28743586.103 7 -21827175.996 2
 90 10 15 13 53 44.9930000  0  5 02 12 06 13 09
  20502084.872     -938145.920 6   1507374.254 1
  21528719.606    -8493567.787 5  -5806170.856 1
  18731422.560   -17722649.934 7    236286.897 3
  18251606.903   -32487200.210 7 -24894941.333 2
  18556479.513   -28778420.166 7 -21854319.442 2
 90 10 15 13 53 59.9930000  0  5 02 12 06 13 09
  20504592.013     -924963.048 6   1517646.545 1
  21516582.927    -8557336.802 5  -5855861.024 1
  18733191.271   -17713362.437 7    243523.869 3
  18248886.333   -32501495.784 7 -24906080.764 2
  18549876.653   -28813123.941 7 -21881361.367 2
 90 10 15 13 54 14.9930000  0  5 02 12 06 13 09
  20507113.521     -911728.783 6   1527958.893 1
  21504456.278    -8621072.508 5  -5905525.227 1
  18734983.919   -17703932.577 7    250871.770 3
  18246189.974   -32515663.580 7 -24917120.618 2
  18543299.294   -28847692.525 7 -21908297.940 2
 90 10 15 13 54 29.9930000  0  5 02 12 06 13 09
  20509637.317     -898453.343 6   1538303.319 1
  21492330.747    -8684785.075 5  -5955171.396 1
  18736805.005   -17694370.661 7    258322.569 3
  18243516.778   -32529713.931 7 -24928068.967 2
  18536743.919   -28882136.167 7 -21935137.164 2
 90 10 15 13 54 44.9930000  0  5 02 12 06 13 09
  20512171.927     -885127.934 6   1548686.689 1
  21480213.747    -8748465.395 5  -6004792.447 1
  18738651.396   -17684667.976 7    265883.066 3
  18240866.630   -32543638.275 7 -24938919.127 2
  18530215.130   -28916445.864 7 -21961872.012 2
 90 10 15 13 54 59.9930000  0  5 02 12 06 13 09
  20514721.114     -871751.024 6   1559110.183 1
  21468102.669    -8812111.667 5  -6054386.959 1
  18740523.052   -17674823.059 7    273554.390 3
  18238241.630   -32557435.311 7 -24949670.083 2
  18523711.942   -28950619.676 7 -21988500.977 2
 90 10 15 13 55 14.9930000  0  5 02 12 06 13 09
  20517275.239     -858329.409 6   1569568.511 1
  21455995.231    -8875730.369 5  -6103960.000 1
  18742422.575   -17664843.073 7    281330.958 3
  18235639.192   -32571112.250 7 -24960327.457 2
  18517234.427   -28984664.154 7 -22015029.162 2
 90 10 15 13 55 29.9930000  0  5 02 12 06 13 09
  20519837.099     -844856.896 6   1580066.508 1
  21443895.942    -8939315.075 5  -6153506.514 1
  18744350.755   -17654721.858 7    289217.575 3
  18233059.896   -32584663.084 7 -24970886.570 2
  18510781.536   -29018572.911 7 -22041451.589 2
 90 10 15 13 55 44.9930000  0  5 02 12 06 13 09
  20522406.919     -831336.583 6   1590601.739 1
  21431802.747    -9002868.700 5  -6203028.850 1
  18746302.708   -17644462.515 7    297211.827 3
  18230504.700   -32598091.203 7 -24981350.061 2
  18504353.060   -29052349.108 7 -22067770.727 2
 90 10 15 13 55 59.9930000  0  5 02 12 06 13 09
  20524989.958     -817770.802 6   1601172.404 1
  21419713.911    -9066392.968 6  -6252528.287 1
  18748278.958   -17634067.508 7    305311.789 3
  18227972.919   -32611398.866 7 -24991719.689 2
  18497950.474   -29085994.258 7 -22093987.748 2
 90 10 15 13 56 14.9930000  0  5 02 12 06 13 09
  20527581.278     -804151.021 6   1611785.142 1
  21407633.372    -9129879.243 5  -6301998.141 1
  18750285.271   -17623528.450 7    313524.001 3
  18225463.942   -32624577.948 7 -25001989.125 2
  18491575.028   -29119499.758 7 -22120095.945 2
 90 10 15 13 56 29.9930000  0  5 02 12 06 13 09
  20530183.224     -790483.014 6   1622435.462 1
  21395557.278    -9193332.897 5  -6351442.562 1
  18752317.544   -17612851.152 7    321843.930 3
  18222980.513   -32637634.316 7 -25012162.939 2
  18485224.575   -29152871.278 7 -22146099.752 2
 90 10 15 13 56 44.9930000  0  5 02 12 06 13 09
  20532794.239     -776768.924 6   1633121.690 1
  21383489.825    -9256755.810 5  -6400863.031 1
  18754374.919   -17602037.806 7    330269.869 3
  18220518.130   -32650570.446 7 -25022243.060 2
  18478899.583   -29186110.539 7 -22172000.498 2
 90 10 15 13 56 59.9930000  0  5 02 12 06 13 09
  20535414.599     -763007.719 6   1643844.636 1
  21371426.052    -9320146.638 5  -6450258.507 1
  18756458.747   -17591087.415 7    338802.599 3
  18218079.622   -32663385.456 7 -25032228.792 2
  18472599.989   -29219216.116 7 -22197797.072 2
 90 10 15 13 57 14.9930000  0  5 02 12 06 13 09
  20538041.177     -749194.743 6   1654607.914 1
  21359371.833    -9383500.482 5  -6499625.147 1
  18758568.263   -17579995.811 7    347445.363 3
  18215665.231   -32676075.162 7 -25042116.899 2
  18466325.942   -29252183.355 7 -22223485.850 2
 90 10 15 13 57 29.9930000  0  5 02 12 06 13 09
  20540678.849     -735335.302 6   1665407.403 1
  21347321.044    -9446822.501 5  -6548967.004 1
  18760707.067   -17568768.249 7    356194.070 3
  18213273.255   -32688645.065 7 -25051911.652 2
  18460076.310   -29285017.477 7 -22249070.896 2
 90 10 15 13 57 44.9930000  0  5 02 12 06 13 09
  20543325.606     -721428.201 6   1676244.030 1
  21335276.372    -9510111.122 5  -6598282.825 1
  18762869.653   -17557403.449 7    365049.718 3
  18210904.872   -32701094.004 7 -25061612.142 2
  18453856.208   -29317716.780 7 -22274550.896 2
 90 10 15 13 57 59.9930000  0  5 02 12 06 13 09
  20545982.224     -707474.658 6   1687116.841 1
  21323239.841    -9573367.121 5  -6647573.239 1
  18765056.286   -17545902.864 7    374011.169 3
  18208557.677   -32713423.396 7 -25071219.481 2
  18447659.067   -29350282.103 7 -22299926.500 2
 90 10 15 13 58 14.9930000  0  5 02 12 06 13 09
  20548644.403     -693475.269 6   1698025.383 1
  21311208.771    -9636590.768 5  -6696838.445 1
  18767272.271   -17534267.148 7    383077.926 3
  18206233.794   -32725634.107 7 -25080734.345 2
  18441487.599   -29382713.910 7 -22325198.059 2
 90 10 15 13 58 29.9930000  0  5 02 12 06 13 09
  20551318.442     -679430.823 6   1708969.025 1
  21299185.380    -9699782.800 5  -6746079.007 1
  18769510.208   -17522497.337 7    392249.155 3
  18203932.786   -32737727.301 7 -25090157.635 2
  18435341.692   -29415012.826 7 -22350366.060 2
 90 10 15 13 58 44.9930000  0  5 02 12 06 13 09
  20553999.669     -665334.112 6   1719953.396 1
  21287165.497    -9762935.406 5  -6795288.840 1
  18771778.106   -17510586.326 7    401530.423 3
  18201655.849   -32749695.771 7 -25099483.733 2
  18429221.567   -29447171.403 7 -22375424.718 2
 90 10 15 13 58 59.9930000  0  5 02 12 06 13 09
  20556689.974     -651190.771 6   1730974.106 1
  21275154.849    -9826054.078 5  -6844472.252 1
  18774070.685   -17498539.871 7    410917.231 3
  18199400.489   -32761545.571 7 -25108717.367 2
  18423126.466   -29479195.020 7 -22400378.209 2
 90 10 15 13 59 14.9930000  0  5 02 12 06 13 09
  20559394.302     -636998.858 6   1742032.662 1
  21263151.403    -9889136.655 5  -6893627.522 1
  18776387.294   -17486356.292 7    420410.883 3
  18197169.560   -32773274.891 7 -25117857.119 2
  18417059.005   -29511081.605 7 -22425224.925 2
 90 10 15 13 59 29.9930000  0  5 02 12 06 13 09
  20562103.161     -622757.132 6   1753130.034 1
  21251155.263    -9952181.320 5  -6942753.255 1
  18778733.739   -17474034.075 7    430012.567 3
  18194960.177   -32784882.777 7 -25126902.248 2
  18411017.606   -29542829.349 7 -22449963.451 2
 90 10 15 13 59 44.9930000  0  5 02 12 06 13 09
  20564820.677     -608468.000 6   1764264.343 1
  21239162.989   -10015190.341 6  -6991851.209 1
  18781104.606   -17461576.222 7    439719.941 3
  18192773.419   -32796371.975 7 -25135854.891 2
  18405001.896   -29574440.584 7 -22474595.605 2
 90 10 15 13 59 59.9930000  0  5 02 12 06 13 09
  20567550.685     -594130.504 6   1775436.342 1
  21227180.380   -10078162.390 5  -7040920.378 1
  18783502.278   -17448981.533 7    449533.943 3
  18190610.841   -32807741.623 7 -25144714.376 2
  18399014.177   -29605914.265 7 -22499120.570 2
 90 10 15 14  0 14.9930000  0  5 02 12 06 13 09
  20570284.802     -579748.725 6   1786642.838 1
  21215204.591   -10141101.212 5  -7089963.637 1
  18785922.903   -17436254.331 7    459451.197 3
  18188468.786   -32818995.951 7 -25153484.000 2
  18393049.231   -29637254.089 7 -22523541.234 2
 90 10 15 14  0 29.9930000  0  5 02 12 06 13 09
  20573031.294     -565317.656 6   1797887.753 1
  21203233.958   -10204001.413 5  -7138976.795 1
  18788371.481   -17423389.699 7    469475.544 3
  18186349.575   -32830130.115 7 -25162159.997 2
  18387112.669   -29668454.575 7 -22547853.327 2
 90 10 15 14  0 44.9930000  0  5 02 12 06 13 09
  20575787.817     -550836.331 6   1809171.826 1
  21191272.591   -10266861.989 5  -7187959.073 1
  18790845.544   -17410386.883 7    479607.563 3
  18184254.575   -32841143.495 7 -25170741.881 2
  18381202.950   -29699514.595 7 -22572055.960 2
 90 10 15 14  0 59.9930000  0  5 02 12 06 13 09
  20578551.028     -536309.227 6   1820491.571 1
  21179317.661   -10329686.741 6  -7236913.444 1
  18793346.513   -17397250.384 7    489843.761 3
  18182180.466   -32852040.667 7 -25179233.203 2
  18375317.786   -29730438.522 7 -22596152.552 2
 90 10 15 14  1 14.9930000  0  5 02 12 06 13 09
  20581325.614     -521733.634 6   1831849.094 1
  21167370.669   -10392472.881 6  -7285837.730 1
  18795871.247   -17383977.521 7    500186.201 3
  18180129.396   -32862819.320 7 -25187632.178 2
  18369459.833   -29761223.415 7 -22620140.802 2
 90 10 15 14  1 29.9930000  0  5 02 12 06 13 09
  20584111.177     -507112.681 6   1843241.964 1
  21155426.669   -10455223.308 6  -7334734.186 1
  18798422.099   -17370571.705 7    510632.253 3
  18178099.536   -32873482.701 7 -25195941.336 2
  18363627.521   -29791872.056 7 -22644022.878 2
 90 10 15 14  1 44.9930000  0  5 02 12 06 13 09
  20586901.544     -492444.871 6   1854671.349 1
  21143493.849   -10517936.080 6  -7383601.296 1
  18800996.950   -17357031.693 7    521182.867 3
  18176093.239   -32884029.509 7 -25204159.650 2
  18357820.419   -29822382.857 7 -22667797.550 2
 90 10 15 14  1 59.9930000  0  5 02 12 06 13 09
  20589700.419     -477728.721 6   1866138.397 1
  21131569.489   -10580609.366 6  -7432437.631 1
  18803601.622   -17343355.890 7    531839.293 3
  18174108.567   -32894458.571 7 -25212286.210 2
  18352041.364   -29852753.975 7 -22691463.378 2
 90 10 15 14  2 14.9930000  0  5 02 12 06 13 09
  20592511.614     -462960.444 6   1877646.069 1
  21119649.388   -10643239.324 6  -7481240.208 1
  18806229.935   -17329540.929 7    542604.155 3
  18172147.114   -32904766.374 7 -25220318.293 2
  18346289.208   -29882981.505 7 -22715017.320 2
 90 10 15 14  2 29.9930000  0  5 02 12 06 13 09
  20595332.044     -448144.969 6   1889190.518 1
  21107740.536   -10705830.403 6  -7530012.495 1
  18808884.942   -17315591.689 7    553473.648 3
  18170208.208   -32914958.037 7 -25228259.874 2
  18340563.903   -29913070.019 7 -22738462.938 2
 90 10 15 14  2 44.9930000  0  5 02 12 06 13 09
  20598159.396     -433282.527 6   1900771.559 1
  21095834.888   -10768382.655 6  -7578754.525 1
  18811564.896   -17301508.700 7    564447.364 3
  18168290.560   -32925034.266 7 -25236111.509 2
  18334864.216   -29943019.627 7 -22761800.316 2
 90 10 15 14  2 59.9930000  0  5 02 12 06 13 09
  20600997.536     -418371.573 6   1912390.401 1
  21083942.919   -10830894.190 6  -7627464.834 1
  18814270.708   -17287290.291 7    575526.598 3
  18166394.856   -32934993.545 7 -25243872.011 2
  18329192.114   -29972828.572 7 -22785028.087 2
 90 10 15 14  3 14.9930000  0  5 02 12 06 13 09
  20603842.927     -403414.560 6   1924045.135 1
  21072053.528   -10893367.129 6  -7676145.068 1
  18817000.841   -17272939.341 7    586709.109 3
  18164521.646   -32944838.572 7 -25251543.489 2
  18323547.005   -30002498.964 7 -22808147.891 2
 90 10 15 14  3 29.9930000  0  5 02 12 06 13 09
  20606696.294     -388412.742 6   1935734.782 1
  21060171.356   -10955802.434 6  -7724795.983 1
  18819757.919   -17258457.106 7    597993.925 3
  18162669.692   -32954570.848 7 -25259127.104 2
  18317927.263   -30032031.869 7 -22831160.570 2
 90 10 15 14  3 44.9930000  0  5 02 12 06 13 09
  20609562.075     -373357.852 6   1947465.784 1
  21048298.208   -11018191.525 6  -7773410.880 1
  18822539.419   -17243835.458 7    609387.378 3
  18160839.966   -32964182.569 7 -25266616.784 2
  18312334.950   -30061418.865 7 -22854059.543 2
 90 10 15 14  3 59.9930000  0  5 02 12 06 13 09
  20612438.724     -358254.350 6   1959234.669 1
  21036436.966   -11080538.255 6  -7821992.751 1
  18825347.966   -17229079.024 7    620885.853 3
  18159033.450   -32973678.250 7 -25274016.042 2
  18306768.403   -30090664.063 7 -22876848.032 2
 90 10 15 14  4 14.9930000  0  5 02 12 06 13 09
  20615323.200     -343102.757 6   1971041.026 1
  21024577.552   -11142842.976 6  -7870541.928 1
  18828180.739   -17214188.477 7    632488.834 3
  18157249.591   -32983058.779 7 -25281325.566 2
  18301230.021   -30119767.757 7 -22899526.255 2
 90 10 15 14  4 29.9930000  0  5 02 12 06 13 09
  20618212.310     -327904.401 6   1982883.816 1
  21012731.239   -11205106.736 6  -7919059.166 1
  18831039.786   -17199165.090 7    644195.325 3
  18155484.888   -32992325.465 7 -25288546.386 2
  18295719.216   -30148731.112 7 -22922095.126 2
 90 10 15 14  4 44.9930000  0  5 02 12 06 13 09
  20621115.013     -312656.885 6
  21000890.505   -11267326.962 6  -7967542.474 1
  18833925.692   -17184007.004 7
  18153744.216   -33001476.336 7 -25295676.960 2
  18290235.700   -30177551.652 7 -22944552.712 2
 90 10 15 14  4 59.9930000  0  5 02 12 06 13 09
  20624024.419     -297360.734 6
  20989059.583   -11329503.676 6  -8015991.882 1
  18836835.403   -17168714.718 7
  18152025.122   -33010512.126 7 -25302717.861 2
  18284777.474   -30206229.497 7 -22966899.105 2
 90 10 15 14  5 14.9930000  0  5 02 12 06 13 09
  20626945.669     -282017.110 6   2018639.893 1
  20977235.255   -11391637.759 6  -8064408.074 1
  18839769.950   -17153289.502 7    679942.408 3
  18150326.825   -33019434.438 7 -25309670.341 2
  18279346.989   -30234765.569 7 -22989135.024 2
 90 10 15 14  5 29.9920000  0  5 02 12 06 13 09
  20629874.508     -266628.354 6   2030631.060 1
  20965419.539   -11453726.064 6  -8112788.607 1
  18842730.016   -17137733.899 7    692063.609 3
  18148650.258   -33028244.082 7 -25316535.027 2
  18273945.039   -30263159.017 7 -23011259.813 2
 90 10 15 14  5 44.9920000  0  5 02 12 06 13 09
  20632812.492     -251187.074 6   2042663.138 1
  20953613.195   -11515771.142 6  -8161135.434 1
  18845715.242   -17122040.566 7    704292.134 3
  18146995.922   -33036937.097 7 -25323308.827 2
  18268569.328   -30291408.272 7 -23033272.242 2
 90 10 15 14  5 59.9920000  0  5 02 12 06 13 09
  20635756.852     -235701.850 6   2054729.467 1
  20941815.688   -11577776.202 6  -8209451.093 1
  18848726.820   -17106218.414 7    716621.038 3
  18145363.563   -33045520.732 7 -25329997.401 2
  18263219.773   -30319518.635 7 -23055176.440 2
 90 10 15 14  6 14.9920000  0  5 02 12 06 13 09
  20638712.352     -220169.911 6   2066832.193 1
  20930024.234   -11639738.361 6  -8257733.309 1
  18851764.344   -17090264.934 7    729052.276 3
  18143749.883   -33053992.567 7 -25336598.859 2
  18257897.789   -30347487.262 7 -23076970.196 2
 90 10 15 14  6 29.9920000  0  5 02 12 06 13 09
  20641678.391     -204593.009 6   2078969.956 1
  20918239.609   -11701658.770 6  -8305983.008 1
  18854823.305   -17074181.759 7    741584.573 3
  18142158.992   -33062354.635 7 -25343114.780 2
  18252602.219   -30375315.658 7 -23098654.684 2
 90 10 15 14  6 44.9920000  0  5 02 12 06 13 09
  20644651.453     -188967.929 6   2091145.260 1
  20906466.938   -11763533.883 6  -8354197.403 1
  18857910.227   -17057965.872 7    754220.283 3
  18140590.461   -33070603.711 7 -25349542.653 2
  18247332.945   -30403000.157 7 -23120227.042 2
 90 10 15 14  6 59.9920000  0  5 02 12 06 13 09
  20647634.195     -173293.394 6   2103359.097 1
  20894699.227   -11825362.014 6  -8402375.191 1
  18861021.133   -17041616.033 7    766960.371 3
  18139041.188   -33078738.764 7 -25355881.677 2
  18242093.328   -30430539.286 7 -23141686.126 2
 90 10 15 14  7 14.9920000  0  5 02 12 06 13 09
  20650626.945     -157568.617 6   2115612.084 1
  20882944.414   -11887142.276 6  -8450515.678 1
  18864158.477   -17025131.903 7    779805.105 3
  18137515.586   -33086759.472 7 -25362131.604 2
  18236880.813   -30457932.182 7 -23163031.260 2
 90 10 15 14  7 29.9920000  0  5 02 12 06 13 09
  20653628.500     -141794.855 6   2127903.247 1
  20871197.453   -11948875.517 6  -8498619.535 1
  18867320.656   -17008514.788 7    792753.460 3
  18136010.641   -33094667.050 7 -25368293.380 2
  18231695.172   -30485179.917 7 -23184263.288 2
 90 10 15 14  7 44.9920000  0  5 02 12 06 13 09
  20656637.250     -125972.205 6   2140232.496 1
  20859457.688   -12010561.354 6  -8546686.442 1
  18870507.430   -16991764.783 7    805805.367 3
  18134527.367   -33102462.105 7 -25374367.478 2
  18226538.078   -30512282.306 7 -23205382.052 2
 90 10 15 14  7 59.9920000  0  5 02 12 06 13 09
  20659660.172     -110105.154 6   2152596.350 1
  20847728.563   -12072204.292 6  -8594719.921 1
  18873718.422   -16974886.921 7    818956.902 3
  18133064.203   -33110149.440 7 -25380357.635 2
  18221407.383   -30539243.694 7 -23226390.950 2
 90 10 15 14  8 14.9920000  0  5 02 12 06 13 09
  20662687.117      -94189.540 6   2164998.042 1
  20836007.125   -12133799.609 6  -8642716.308 1
  18876956.977   -16957876.949 7    832211.379 3
  18131622.750   -33117725.178 7 -25386260.835 2
  18216305.148   -30566059.789 7 -23247286.631 2
 90 10 15 14  8 29.9920000  0  5 02 12 06 13 09
  20665722.774      -78225.688 6   2177437.323 1
  20824294.688   -12195347.406 6  -8690675.656 1
  18880219.688   -16940735.538 7    845568.279 3
  18130202.000   -33125189.863 7 -25392077.496 2
  18211229.703   -30592730.718 7 -23268069.193 2
 90 10 15 14  8 44.9920000  0  5 02 12 06 13 09
  20668771.039      -62214.907 6   2189913.180 1
  20812591.719   -12256848.638 6  -8738598.715 1
  18883504.508   -16923464.041 7    859026.543 3
  18128803.391   -33132544.902 7 -25397808.722 2
  18206181.945   -30619257.508 7 -23288739.444 2
 90 10 15 14  8 59.9920000  0  5 02 12 06 13 09
  20671829.930      -46158.151 6   2202424.849 1
  20800897.352   -12318303.819 6  -8786485.892 1
  18886815.461   -16906063.433 7    872585.415 3
  18127424.430   -33139791.318 7 -25403455.301 2
  18201161.102   -30645640.699 7 -23309297.797 2
 90 10 15 14  9 14.9920000  0  5 02 12 06 13 09
  20674894.844      -30052.761 6   2214974.426 1
  20789210.922   -12379710.034 6  -8834334.915 1
  18890152.078   -16888531.439 7    886246.661 3
  18126066.578   -33146927.041 7 -25409015.627 2
  18196168.016   -30671877.523 7 -23329742.103 2
 90 10 15 14  9 29.9920000  0  5 02 12 06 13 09
  20677970.500      -13900.186 6   2227560.756 1
  20777537.156   -12441068.384 6  -8882146.658 1
  18893512.328   -16870869.610 7    900009.079 3
  18124727.633   -33153953.709 7 -25414490.982 2
  18191203.727   -30697969.447 7 -23350073.493 2
 90 10 15 14  9 44.9920000  0  5 02 12 06 13 09
  20681050.383        2305.898 6   2240188.784 1
  20765870.899   -12502372.131 6  -8929915.836 1
  18896899.781   -16853071.672 7    913877.556 3
  18123413.750   -33160865.042 7 -25419876.460 2
  18186266.383   -30723909.607 7 -23370286.626 2
 90 10 15 14  9 59.9920000  0  5 02 12 06 13 09
  20684142.008       18556.671 6   2252851.648 1
  20754213.227   -12563629.761 6  -8977649.070 1
  18900310.844   -16835146.669 7    927845.047 3
  18122118.992   -33167670.096 7 -25425179.131 2
  18181358.141   -30749706.626 7 -23390388.225 2
 90 10 15 14 10 14.9920000  0  5 02 12 06 13 09
  20687243.570       34855.919 6   2265552.272 1
  20742565.414   -12624837.254 6  -9025343.242 1
  18903747.367   -16817091.097 7    941914.276 3
  18120844.117   -33174365.691 7 -25430396.496 2
  18176477.313   -30775356.748 7 -23410375.351 2
 90 10 15 14 10 29.9920000  0  5 02 12 06 13 09
  20690354.024       51203.353 6   2278290.444 1
  20730927.805   -12685994.481 6  -9072998.257 1
  18907207.000   -16798905.418 7    956084.891 3
  18119591.141   -33180952.164 7 -25435528.834 2
  18171623.813   -30800859.942 7 -23430247.993 2
 90 10 15 14 10 44.9920000  0  5 02 12 06 13 09
  20693477.148       67603.048 6   2291069.342 1
  20719301.008   -12747096.993 6  -9120610.635 1
  18910694.391   -16780585.545 7    970360.071 3
  18118360.141   -33187425.552 7 -25440573.059 2
  18166799.000   -30826211.947 7 -23450002.829 2
 90 10 15 14 10 59.9920000  0  5 02 12 06 13 09
  20696606.844       84050.621 6   2303885.547 1
  20707682.883   -12808148.905 6  -9168183.571 1
  18914204.156   -16762136.236 7    984736.107 3
  18117148.594   -33193790.733 7 -25445532.966 2
  18162003.016   -30851417.080 7 -23469643.213 2
 90 10 15 14 11 14.9920000  0  5 02 12 06 13 09
  20699743.297      100546.114 6   2316739.098 1
  20696075.273   -12869149.913 6  -9215716.846 1
  18917740.000   -16743557.514 7    999212.988 3
  18115956.828   -33200047.711 7 -25450408.560 2
  18157234.922   -30876474.902 7 -23489168.805 2
 90 10 15 14 11 29.9920000  0  5 02 12 06 13 09
  20702894.977      117089.354 6   2329629.850 1
  20684475.953   -12930099.889 6  -9263210.352 1
  18921300.399   -16724849.919 7   1013790.291 3
  18114787.055   -33206197.147 7 -25455200.355 2
  18152495.273   -30901385.581 7 -23508579.745 2
 90 10 15 14 11 44.9920000  0  5 02 12 06 13 09
  20706049.758      133677.784 6   2342555.813 1
  20672887.852   -12991001.318 6  -9310666.052 1
  18924883.836   -16706016.241 7   1028465.838 3
  18113637.008   -33212241.964 7 -25459910.626 2
  18147781.750   -30926151.532 7 -23527877.915 2
 90 10 15 14 11 59.9920000  0  5 02 12 06 13 09
  20709216.008      150315.524 6   2355520.205 1
  20661307.742   -13051849.603 6  -9358080.326 1
  18928493.898   -16687052.477 7   1043242.752 3
  18112507.555   -33218178.216 7 -25464536.306 2
  18143097.484   -30950768.516 7 -23547059.994 2
 90 10 15 14 12 14.9920000  0  5 02 12 06 13 09
  20712389.922      167003.442 6   2368523.688 1
  20649739.938   -13112643.169 6  -9405451.960 1
  18932127.063   -16667957.767 7   1058121.696 3
  18111399.516   -33224005.112 7 -25469076.774 2
  18138441.438   -30975235.176 7 -23566124.949 2
 90 10 15 14 12 29.9920000  0  5 02 12 06 13 09
  20715578.664      183738.509 6   2381563.921 1
  20638181.336   -13173384.830 6  -9452783.151 1
  18935784.242   -16648735.363 7   1073100.150 3
  18110310.398   -33229726.241 7 -25473534.817 2
  18133813.867   -30999554.292 7 -23585074.929 2
 90 10 15 14 12 44.9920000  0  5 02 12 06 13 09
  20718768.773      200522.739 6   2394642.456 1
  20626632.984   -13234072.400 6  -9500072.195 1
  18939466.742   -16629383.589 7   1088179.411 3
  18109242.359   -33235339.728 7 -25477908.988 2
  18129213.844   -31023723.821 7 -23603908.352 2
 90 10 15 14 12 59.9920000  0  5 02 12 06 13 09
  20721973.086      217358.489 6   2407761.138 1
  20615095.492   -13294703.167 6  -9547316.978 1
  18943175.008   -16609900.164 7   1103361.256 3
  18108194.555   -33240843.407 7 -25482197.592 2
  18124644.852   -31047741.426 7 -23622623.388 2
 90 10 15 14 13 14.9920000  0  5 02 12 06 13 09
  20725188.992      234243.985 6   2420918.584 1
  20603566.430   -13355278.462 6  -9594518.529 1
  18946906.789   -16590287.162 7   1118644.071 3
  18107167.930   -33246239.311 7 -25486402.214 2
  18120102.141   -31071608.333 7 -23641221.007 2
 90 10 15 14 13 29.9920000  0  5 02 12 06 13 09
  20728410.227      251174.520 6   2434111.121 1
  20592051.594   -13415802.449 6  -9641680.100 1
  18950662.211   -16570549.130 7   1134024.309 3
  18106161.609   -33251532.136 7 -25490526.515 2
  18115587.961   -31095329.061 7 -23659704.711 2
 90 10 15 14 13 44.9920000  0  5 02 12 06 13 09
  20731640.219      268154.759 6   2447342.393 1
  20580543.664   -13476270.473 6  -9688798.082 1
  18954443.734   -16550681.941 7   1149505.192 3
  18105174.383   -33256717.755 7 -25494567.283 2
  18111102.773   -31118899.034 7 -23678070.942 2
 90 10 15 14 13 59.9920000  0  5 02 12 06 13 09
  20734880.531      285184.865 6   2460612.514 1
  20569047.414   -13536681.875 6  -9735871.923 1
  18958248.180   -16530685.373 7   1165086.885 3
  18104206.875   -33261796.084 7 -25498524.443 2
  18106646.500   -31142317.629 7 -23696319.218 2
 90 10 15 14 14 14.9920000  0  5 02 12 06 13 09
  20738133.070      302264.246 6   2473921.043 1
  20557561.195   -13597036.897 6  -9782901.845 1
  18962079.734   -16510560.250 7   1180768.752 3
  18103261.477   -33266768.153 7 -25502398.812 2
  18102219.336   -31165585.288 7 -23714449.882 2
 90 10 15 14 14 29.9920000  0  5 02 12 06 13 09
  20741391.750      319391.878 6   2487267.176 1
  20546088.422   -13657336.297 6  -9829888.417 1
  18965932.156   -16490307.877 7   1196549.774 3
  18102334.594   -33271635.242 7 -25506191.369 2
  18097820.164   -31188702.946 7 -23732463.658 2
 90 10 15 14 14 44.9920000  0  5 02 12 06 13 09
  20744659.078      336564.105 6   2500648.045 1
  20534623.109   -13717583.404 6  -9876834.243 1
  18969810.063   -16469932.323 7   1212426.787 3
  18101427.930   -33276401.717 7 -25509905.539 2
  18093448.703   -31211674.317 7 -23750363.447 2
 90 10 15 14 14 59.9920000  0  5 02 12 06 13 09
  20747938.109      353787.060 6   2514068.441 1
  20523171.524   -13777771.678 6  -9923734.232 1
  18973710.563   -16449427.497 7   1228404.524 3
  18100541.289   -33281061.318 7 -25513536.419 2
  18089106.648   -31234492.869 7 -23768144.164 2
 90 10 15 14 15 14.9920000  0  5 02 12 06 13 09
  20751223.461      371060.845 6   2527528.443 1
  20511727.320   -13837900.649 6  -9970588.003 1
  18977637.383   -16428793.373 7   1244483.019 3
  18099675.563   -33285614.009 7 -25517083.999 2
  18084792.602   -31257158.181 7 -23785805.466 2
 90 10 15 14 15 29.9920000  0  5 02 12 06 13 09
  20754520.234      388383.193 6   2541026.288 1
  20500296.945   -13897972.317 6 -10017397.116 1
  18981589.367   -16408032.490 7   1260660.280 3
  18098828.742   -33290062.419 7 -25520550.319 2
  18080508.773   -31279672.564 7 -23803349.160 2
 90 10 15 14 15 44.9920000  0  5 02 12 06 13 09
  20757824.953      405753.469 6   2554561.484 1
  20488876.523   -13957986.980 6 -10064161.804 1
  18985564.086   -16387145.795 7   1276935.579 3
  18098001.609   -33294407.671 7 -25523936.255 2
  18076253.328   -31302036.404 7 -23820775.551 2
 90 10 15 14 15 59.9920000  0  5 02 12 06 13 09
  20761141.539      423172.448 6   2568134.620 1
  20477465.797   -14017943.508 6 -10110881.208 1
  18989562.352   -16366132.619 7   1293309.436 3
  18097195.000   -33298649.067 7 -25527241.264 2
  18072026.125   -31324248.825 7 -23838083.950 2
 90 10 15 14 16 14.9920000  0  5 02 12 06 13 09
  20764461.859      440635.692 6   2581742.259 1
  20466068.125   -14077845.905 6 -10157558.425 1
  18993584.773   -16344997.488 7   1309778.318 3
  18096406.484   -33302791.122 7 -25530468.868 2
  18067827.570   -31346314.015 7 -23855277.629 2
 90 10 15 14 16 29.9920000  0  5 02 12 06 13 09
  20767796.500      458148.821 6   2595388.757 1
  20454680.570   -14137688.104 6 -10204188.723 1
  18997631.313   -16323734.881 7   1326346.539 3
  18095638.055   -33306828.535 7 -25533614.930 2
  18063659.227   -31368225.937 7 -23872351.878 2
 90 10 15 14 16 44.9920000  0  5 02 12 06 13 09
  20771138.391      475709.188 6   2609072.069 1
  20443304.016   -14197472.602 6 -10250774.065 1
  19001700.250   -16302347.970 7   1343011.611 3
  18094889.570   -33310764.427 7 -25536681.883 2
  18059516.164   -31389987.373 7 -23889308.859 2
 90 10 15 14 16 59.9920000  0  5 02 12 06 13 09
  20774488.781      493317.685 6   2622792.890 1
  20431939.398   -14257198.256 6 -10297313.561 1
  19005793.477   -16280836.063 7   1359774.088 3
  18094159.117   -33314598.125 7 -25539669.204 2
  18055406.227   -31411597.276 7 -23906147.767 2
 90 10 15 14 17 14.9920000  0  5 02 12 06 13 09
  20777848.797      510981.097 6   2636556.495 1
  20420586.063   -14316857.681 6 -10343801.445 1
  19009912.805   -16259192.421 7   1376639.218 3
  18093450.930   -33318322.838 7 -25542571.611 2
  18051322.141   -31433048.543 7 -23922863.063 2
 90 10 15 14 17 29.9920000  0  5 02 12 06 13 09
  20781221.539      528690.765 6   2650356.145 1
  20409243.508   -14376459.220 6 -10390244.218 1
  19014053.453   -16237425.918 7   1393600.079 2
  18092761.531   -33321947.775 7 -25545396.262 2
  18047269.797   -31454349.737 7 -23939461.415 2
 90 10 15 14 17 44.9920000  0  5 02 12 06 13 09
  20784598.422      546446.641 6   2664191.810 1
  20397913.359   -14436002.545 6 -10436641.634 1
  19018220.602   -16215536.726 7   1410656.543 3
  18092090.891   -33325473.110 7 -25548143.306 2
  18043244.055   -31475500.626 7 -23955942.649 2
 90 10 15 14 17 59.9920000  0  5 02 12 06 13 09
  20787983.703      564251.603 6   2678065.716 1
  20386592.797   -14495484.730 6 -10482991.407 1
  19022410.063   -16193522.435 7   1427810.484 3
  18091439.344   -33328896.584 7 -25550810.972 2
  18039249.344   -31496498.317 7 -23972304.510 2
 90 10 15 14 18 14.9920000  0  5 02 12 06 13 09
  20791383.703      582107.557 5   2691979.359 1
  20375286.219   -14554903.391 6 -10529291.682 1
  19026621.961   -16171381.202 7   1445063.352 2
  18090807.289   -33332216.408 7 -25553397.876 2
  18035282.109   -31517340.928 7 -23988545.528 2
 90 10 15 14 18 29.9920000  0  5 02 12 06 13 09
  20794793.359      600009.177 5   2705928.579 1
  20363991.102   -14614263.434 6 -10575546.277 1
  19030858.516   -16149118.494 7   1462410.858 3
  18090194.414   -33335437.853 7 -25555908.120 2
  18031344.383   -31538033.258 7 -24004669.441 2
 90 10 15 14 18 44.9920000  0  5 02 12 06 13 09
  20798210.023      617962.465 6   2719918.058 1
  20352707.914   -14673558.417 6 -10621750.184 1
  19035119.281   -16126728.576 7   1479857.496 3
  18089600.094   -33338555.275 7 -25558337.307 2
  18027436.836   -31558569.292 7 -24020671.566 2
 90 10 15 14 18 59.9920000  0  5 02 12 06 13 09
  20801634.836      635961.795 5   2733943.412 1
  20341435.023   -14732793.582 6 -10667907.469 1
  19039404.211   -16104217.213 7   1497398.769 3
  18089026.266   -33341574.427 7 -25560689.920 2
  18023558.328   -31578954.566 7 -24036556.215 2
 90 10 15 14 19 14.9920000  0  5 02 12 06 13 09
  20805069.445      654015.905 6   2748011.456 1
  20330175.555   -14791960.111 6 -10714011.278 1
  19043711.078   -16081576.063 7   1515041.172 3
  18088472.844   -33344487.350 7 -25562959.757 2
  18019708.609   -31599179.972 7 -24052316.290 2
 90 10 15 14 19 29.9920000  0  5 02 12 06 13 09
  20808516.609      672119.739 6   2762118.251 1
  20318929.672   -14851062.455 6 -10760065.070 1
  19048043.578   -16058810.254 7   1532780.712 2
  18087937.539   -33347299.383 7 -25565150.977 2
  18015889.094   -31619250.613 7 -24067955.767 2
 90 10 15 14 19 44.9920000  0  5 02 12 06 13 09
  20811967.313      690268.476 5   2776260.024 1
  20307695.203   -14910105.229 6 -10806072.456 1
  19052398.891   -16035924.934 7   1550613.376 2
  18087420.469   -33350015.497 7 -25567267.459 2
  18012099.492   -31639170.989 7 -24083478.159 2
 90 10 15 14 19 59.9920000  0  5 02 12 06 13 09
  20815432.617      708468.788 5   2790441.999 1
  20296472.844   -14969081.474 6 -10852027.983 1
  19056777.445   -16012913.632 7   1568544.206 2
  18086922.570   -33352629.210 7 -25569304.146 2
  18008338.422   -31658934.515 7 -24098878.332 2
 90 10 15 14 20 14.9920000  0  5 02 12 06 13 09
  20818904.945      726716.417 5   2804660.842 1
  20285261.891   -15027994.988 6 -10897934.635 1
  19061180.055   -15989780.785 7   1586569.748 2
  18086444.672   -33355144.909 7 -25571264.460 2
  18004607.250   -31678545.222 7 -24114159.420 2
 90 10 15 14 20 29.9920000  0  5 02 12 06 13 09
  20822383.734      745016.204 5   2818920.319 1
  20274062.453   -15086840.468 6 -10943788.280 1
  19065607.117   -15966521.690 7   1604693.663 2
  18085985.461   -33357558.264 7 -25573145.022 2
  18000905.195   -31697997.936 7 -24129317.402 2
 90 10 15 14 20 44.9920000  0  5 02 12 06 13 09
  20825879.125      763364.463 5   2833217.577 1
  20262876.906   -15145621.358 6 -10989591.583 1
  19070057.531   -15943140.481 7   1622912.733 2
  18085544.922   -33359873.288 7 -25574948.964 2
  17997232.641   -31717296.465 7 -24144355.237 2
 90 10 15 14 20 59.9920000  0  5 02 12 06 13 09
  20829378.695      781758.179 5   2847550.242 1
  20251703.078   -15204340.251 6 -11035346.595 1
  19074527.844   -15919640.144 7   1641224.628 2
  18085121.602   -33362092.922 7 -25576678.570 2
  17993588.586   -31736443.399 7 -24159274.950 2
 90 10 15 14 21 14.9920000  0  5 02 12 06 13 09
  20832886.492      800202.073 5   2861922.010 1
  20240541.633   -15262992.156 6 -11081049.402 1
  19079023.070   -15896016.187 7   1659632.852 2
  18084717.500   -33364212.770 7 -25578330.428 2
  17989975.594   -31755434.042 7 -24174072.875 1
 90 10 15 14 21 29.9920000  0  5 02 12 06 13 09
  20836407.367      818695.467 5   2876332.354 1
  20229393.305   -15321577.566 6 -11126700.377 1
  19083542.656   -15872269.851 7   1678136.436 2
  18084334.211   -33366234.132 7 -25579905.544 2
  17986390.797   -31774269.106 7 -24188749.572 1
 90 10 15 14 21 44.9920000  0  5 02 12 06 13 09
  20839932.969      837237.151 5   2890780.314 1
  20218256.758   -15380097.202 6 -11172300.114 1
  19088084.555   -15848402.319 7   1696734.458 2
  18083968.297   -33368158.089 7 -25581404.749 2
  17982835.961   -31792949.484 7 -24203305.732 2
 90 10 15 14 21 59.9920000  0  5 02 12 06 13 09
  20843475.313      855825.503 5   2905264.648 1
  20207135.633   -15438552.137 6 -11217849.440 1
  19092648.297   -15824415.374 7   1715425.528 2
  18083619.984   -33369986.484 7 -25582829.499 2
  17979310.516   -31811476.421 7 -24217742.333 1
 90 10 15 14 22 14.9920000  0  5 02 12 06 13 09
  20847021.891      874463.067 5   2919787.336 1
  20196022.633   -15496939.637 6 -11263346.214 1
  19097236.453   -15800306.653 7   1734211.493 2
  18083291.773   -33371717.324 7 -25584178.229 2
  17975814.008   -31829847.352 7 -24232057.368 2
 90 10 15 14 22 29.9920000  0  5 02 12 06 13 09
  20850577.023      893152.999 5   2934350.822 1
  20184926.445   -15555256.246 6 -11308787.743 1
  19101847.516   -15776073.477 7   1753094.430 2
  18082980.852   -33373347.634 7 -25585448.622 2
  17972348.805   -31848059.175 7 -24246248.425 2
 90 10 15 14 22 44.9920000  0  5 02 12 06 13 09
  20854140.391      911889.044 5   2948950.250 1
  20173841.727   -15613507.778 6 -11354178.579 1
  19106482.531   -15751722.076 7   1772069.492 2
  18082688.789   -33374883.599 7 -25586645.498 2
  17968912.758   -31866117.903 7 -24260320.183 2
 90 10 15 14 22 59.9920000  0  5 02 12 06 13 09
  20857715.164      930669.983 5   2963584.654 1
  20162768.727   -15671694.846 6 -11399519.172 1
  19111137.750   -15727253.806 7   1791135.624 2
  18082414.172   -33376327.039 7 -25587770.280 2
  17965505.547   -31884024.163 7 -24274273.137 1
 90 10 15 14 23 14.9920000  0  5 02 12 06 13 09
  20861300.445      949500.706 5   2978257.847 1
  20151710.352   -15729812.536 6 -11444805.702 1
  19115816.797   -15702664.221 7   1810296.283 2
  18082157.328   -33377673.427 7 -25588819.438 2
  17962126.867   -31901773.495 7 -24288103.807 1
 90 10 15 14 23 29.9920000  0  5 02 12 06 13 09
  20864890.047      968379.829 5   2992968.756 1
  20140663.617   -15787861.922 6 -11490039.005 1
  19120520.352   -15677954.890 7   1829550.256 2
  18081919.625   -33378924.297 7 -25589794.167 2
  17958780.414   -31919367.223 7 -24301813.231 2
 90 10 15 14 23 44.9920000  0  5 02 12 06 13 09
  20868492.734      987310.809 5   3007720.065 1
  20129630.797   -15845838.985 6 -11535215.952 1
  19125246.133   -15653122.645 7   1848899.999 2
  18081700.398   -33380076.491 7 -25590692.006 2
  17955461.578   -31936801.374 7 -24315398.306 1
 90 10 15 14 23 59.9920000  0  5 02 12 06 13 09
  20872107.383     1006296.814 5   3022514.263 1
  20118612.281   -15903740.187 6 -11580333.781 1
  19129994.039   -15628164.523 7   1868347.831 2
  18081499.422   -33381127.130 7 -25591510.711 2
  17952175.258   -31954072.773 7 -24328856.564 2
 90 10 15 14 24 14.9920000  0  5 02 12 06 13 09
  20875729.094     1025332.602 5   3037347.251 1
  20107607.641   -15961570.568 6 -11625396.439 1
  19134766.805   -15603085.992 7   1887889.490 2
  18081319.219   -33382081.997 7 -25592254.787 2
  17948918.914   -31971186.627 7 -24342192.055 1
 90 10 15 14 24 29.9920000  0  5 02 12 06 13 09
  20879362.313     1044418.215 5   3052219.054 1
  20096617.453   -16019329.588 6 -11670403.491 1
  19139561.555   -15577887.236 7   1907524.827 2
  18081156.109   -33382941.006 7 -25592924.168 2
  17945692.680   -31988142.871 7 -24355404.739 1
 90 10 15 14 24 44.9920000  0  5 02 12 06 13 09
  20883000.969     1063547.994 5   3067125.289 1
  20085638.305   -16077022.659 6 -11715359.143 1
  19144379.274   -15552574.262 7   1927249.171 2
  18081009.258   -33383710.161 7 -25593523.532 2
  17942494.500   -32004946.800 7 -24368498.727 2
 90 10 15 14 24 59.9920000  0  5 02 12 06 13 09
  20886650.242     1082724.896 5   3082068.231 1
  20074672.195   -16134646.316 6 -11760260.715 1
  19149218.852   -15527144.166 7   1947064.771 2
  18080879.422   -33384386.616 7 -25594050.668 2
  17939327.047   -32021595.350 7 -24381471.646 1
 90 10 15 14 25 14.9920000  0  5 02 12 06 13 09
  20890309.703     1101950.897 5   3097049.430 1
  20063720.594   -16192198.110 6 -11805106.286 1
  19154080.258   -15501595.122 7   1966973.063 2
  18080768.406   -33384968.629 7 -25594504.207 2
  17936188.234   -32038086.342 7 -24394321.791 1
 90 10 15 14 25 29.9920000  0  5 02 12 06 13 09
  20893976.399     1121224.797 5   3112067.959 1
  20052781.789   -16249678.907 6 -11849896.537 1
  19158964.102   -15475928.698 7   1986972.822 2
  18080677.719   -33385457.789 7 -25594885.393 2
  17933079.781   -32054420.941 7 -24407050.064 2
 90 10 15 14 25 44.9920000  0  5 02 12 06 13 09
  20897656.586     1140547.356 5   3127124.403 1
  20041857.930   -16307087.885 6 -11894630.823 1
  19163871.430   -15450144.432 7   2007064.405 2
  18080601.641   -33385853.769 7 -25595193.976 2
  17930001.227   -32070598.371 7 -24419655.875 1
 90 10 15 14 25 59.9920000  0  5 02 12 06 13 09
  20901339.891     1159920.394 5   3142220.181 1
  20030947.813   -16364422.740 6 -11939307.352 1
  19168799.711   -15424240.752 7   2027249.034 2
  18080545.164   -33386154.605 7 -25595428.420 2
  17926953.969   -32086616.842 7 -24432137.813 2
 90 10 15 14 26 14.9920000  0  5 02 12 06 13 09
  20905036.664     1179344.799 5   3157355.979 1
  20020051.813   -16421682.230 6 -11983925.150 1
  19173752.594   -15398217.052 7   2047527.188 2
  18080505.813   -33386360.133 7
  17923935.070   -32102475.077 7 -24444494.905 1
 90 10 15 14 26 29.9920000  0  5 02 12 06 13 09
  20908743.922     1198816.500 5   3172528.639 1
  20009169.242   -16478869.893 6 -12028486.984 1
  19178727.234   -15372077.432 7   2067895.669 2
  18080480.609   -33386474.682 7
  17920947.906   -32118177.119 7 -24456730.280 1
 90 10 15 14 26 44.9920000  0  5 02 12 06 13 09
  20912457.703     1218336.764 5   3187739.136 1
  19998300.539   -16535984.269 6 -12072991.711 1
  19183723.774   -15345821.026 7   2088355.154 2
  18080477.305   -33386497.115 7
  17917989.891   -32133721.583 7 -24468842.871 2
 90 10 15 14 26 59.9920000  0  5 02 12 06 13 09
  20916180.578     1237901.997 5   3202984.689 1
  19987445.570   -16593028.431 6 -12117441.721 1
  19188741.367   -15319451.451 7   2108902.821 2
  18080493.586   -33386431.222 7
  17915060.820   -32149111.849 7 -24480835.301 1
 90 10 15 14 27 14.9920000  0  5 02 12 06 13 09
  20919913.742     1257512.816 5   3218265.739 1
  19976603.852   -16650001.546 6 -12161836.384 1
  19193780.969   -15292968.454 7   2129538.871 2
  18080519.102   -33386276.671 7
  17912161.875   -32164347.076 7 -24492706.924 1
 90 10 15 14 27 29.9920000  0  5 02 12 06 13 09
  20923655.570     1277179.259 5   3233590.144 1
  19965777.664   -16706893.220 6 -12206167.570 1
  19198843.461   -15266362.307 7   2150270.879 2
  18080570.141   -33386023.677 7
  17909294.188   -32179417.426 7 -24504450.074 1
 90 10 15 14 27 44.9920000  0  5 02 12 06 13 09
  20927406.453     1296891.825 5   3248950.493 1
  19954965.008   -16763712.395 6 -12250442.270 1
  19203927.188   -15239642.778 7   2171091.238 2
  18080632.883   -33385682.119 7
  17906456.063   -32194332.139 7 -24516071.950 1
 90 10 15 14 27 59.9920000  0  5 02 12 06 13 09
  20931165.727     1316652.440 5   3264348.271 1
  19944167.625   -16820456.811 6 -12294658.719 1
  19209034.148   -15212808.045 7   2192001.365 2
  18080717.266   -33385250.330 7        -0.48512
  17903647.734   -32209088.986 7 -24527570.814 1
 90 10 15 14 28 14.9920000  0  5 02 12 06 13 09
  20934936.336     1336462.430 5   3279784.537 1
  19933384.070   -16877124.866 6 -12338815.665 1
  19214162.992   -15185857.082 7   2213002.063 2
  18080814.328   -33384727.292 7       407.057 2
  17900869.445   -32223686.771 7 -24538945.729 1
 90 10 15 14 28 29.9920000  0  5 02 12 06 13 09
  20938716.844     1356323.687 5   3295260.752 1
  19922615.023   -16933714.435 6 -12382911.444 1
  19219313.016   -15158788.298 6   2234094.569 2
  18080934.219   -33384111.118 7       887.170 2
  17898121.852   -32238123.511 7 -24550195.155 1
 90 10 15 14 28 44.9920000  0  5 02 12 06 13 09
  20942505.469     1376234.783 5   3310775.795 1
  19911861.273   -16990226.455 6 -12426946.802 1
  19224487.359   -15131603.330 7   2255277.611 2
  18081066.484   -33383403.465 7      1438.558 2
  17895405.594   -32252400.327 7 -24561319.969 1
 90 10 15 14 28 59.9920000  0  5 02 12 06 13 09
  20946303.719     1396193.702 5   3326328.100 1
  19901122.024   -17046662.658 6 -12470923.081 1
  19229682.734   -15104304.472 7   2276549.391 2
  18081218.195   -33382606.879 7      2059.250 2
  17892720.008   -32266519.308 7 -24572321.793 1
 90 10 15 14 29 14.9920000  0  5 02 12 06 13 09
  20950108.719     1416196.354 5   3341914.478 1
  19890396.117   -17103026.621 6 -12514843.068 1
  19234898.727   -15076895.917 6   2297906.654 2
  18081386.914   -33381725.710 7      2745.849 2
  17890061.969   -32280484.489 7 -24583203.774 1
 90 10 15 14 29 29.9920000  0  5 02 12 06 13 09
  20953926.141     1436248.258 5   3357539.239 1
  19879685.031   -17159312.479 6 -12558702.188 1
  19240135.492   -15049372.443 6   2319353.463 2
  18081571.484   -33380754.692 7      3502.465 2
  17887435.055   -32294290.051 7 -24593961.377 1
 90 10 15 14 29 44.9920000  0  5 02 12 06 13 09
  20957751.922     1456347.199 5   3373200.650 1
  19868988.039   -17215522.076 6 -12602501.887 1
  19245393.883   -15021736.630 6   2340887.809 2
  18081773.414   -33379696.195 7      4327.243 2
  17884837.406   -32307938.180 7 -24604596.301 1
 90 10 15 14 29 59.9920000  0  5 02 12 06 13 09
  20961585.031     1476496.568 5   3388901.359 1
  19858307.219   -17271651.753 6 -12646239.307 1
  19250674.078   -14993985.316 6   2362512.155 2
  18081992.523   -33378547.285 7      5222.469 2
  17882270.648   -32321425.467 7 -24615105.897 1
 90 10 15 14 30 14.9920000  0  5 02 12 06 13 09
  20965429.859     1496699.450 5   3404643.770 1
  19847643.063   -17327697.910 6 -12689911.651 1
  19255979.047   -14966115.637 6   2384228.733 2
  18082228.227   -33377304.959 7      6190.496 2
  17879735.742   -32334748.763 7 -24625487.710 1
 90 10 15 14 30 29.9910000  0  5 02 12 06 13 09
  20969284.159     1516951.400 5   3420424.415 1
  19836993.964   -17383659.633 6 -12733518.202 2
  19261304.573   -14938132.748 6   2406033.528 2
  18082481.683   -33375972.687 7      7228.604 2
  17877230.823   -32347910.201 7 -24635743.396 1
 90 10 15 14 30 44.9910000  0  5 02 12 06 13 09
  20973146.112     1537252.344 5   3436243.227 1
  19826357.956   -17439546.866 6 -12777066.712 1
  19266650.198   -14910036.102 6   2427926.958 2
  18082751.323   -33374553.479 7      8334.452 2
  17874756.831   -32360914.089 7 -24645876.314 1
 90 10 15 14 30 59.9910000  0  5 02 12 06 13 09
  20977019.964     1557598.530 5   3452097.301 1
  19815737.058   -17495357.630 6 -12820555.639 1
  19272017.472   -14881829.933 6   2449905.738 2
  18083037.722   -33373049.798 7      9506.122 2
  17872311.784   -32373761.764 7 -24655887.514 1
 90 10 15 14 31 14.9910000  0  5 02 12 06 13 09
  20980900.487     1577991.694 5   3467987.979 1
  19805132.487   -17551090.054 6 -12863983.512 1
  19277407.167   -14853512.901 6   2471970.903 2
  18083340.222   -33371460.505 7     10744.506 2
  17869896.948   -32386451.550 7 -24665775.677 1
 90 10 15 14 31 29.9910000  0  5 02 12 06 13 09
  20984788.511     1598433.787 5   3483916.780 1
  19794542.362   -17606741.903 6 -12907348.601 2
  19282816.308   -14825083.421 6   2494123.687 2
  18083659.315   -33369783.795 7     12051.006 2
  17867512.433   -32398981.340 7 -24675539.176 1
 90 10 15 14 31 44.9910000  0  5 02 12 06 13 09
  20988686.620     1618924.804 5   3499883.711 1
  19783967.526   -17662312.834 6 -12950650.643 2
  19288248.362   -14796541.764 6   2516363.886 2
  18083994.440   -33368019.913 7     13425.432 2
  17865159.019   -32411351.142 7 -24685178.004 1
 90 10 15 14 31 59.9910000  0  5 02 12 06 13 09
  20992595.558     1639464.728 5   3515888.745 1
  19773407.065   -17717802.263 6 -12993889.169 2
  19293701.034   -14767888.068 6   2538691.379 2
  18084346.987   -33366169.050 7     14867.638 2
  17862834.683   -32423560.966 7 -24694692.174 1
 90 10 15 14 32 14.9910000  0  5 02 12 06 13 09
  20996517.058     1660052.838 5   3531931.328 1
  19762862.745   -17773210.565 6 -13037064.488 2
  19299175.253   -14739123.338 6   2561105.398 2
  18084715.378   -33364232.528 7     16376.588 2
  17860542.761   -32435611.344 7 -24704082.099 1
 90 10 15 14 32 29.9910000  0  5 02 12 06 13 09
  21000441.847     1680689.528 5   3548011.770 1
  19752335.862   -17828537.002 6 -13080176.004 2
  19304668.355   -14710247.412 6   2583606.062 2
  18085100.659   -33362210.006 7     17952.553 2
  17858280.347   -32447501.629 7 -24713347.283 1
 90 10 15 14 32 44.9910000  0  5 02 12 06 13 09
  21004377.706     1701374.477 5   3564129.795 1
  19741823.503   -17883781.364 6 -13123223.566 2
  19310185.612   -14681260.843 6   2606192.940 2
  18085501.808   -33360102.050 7     19595.088 2
  17856047.042   -32459232.078 7 -24722487.913 1
 90 10 15 14 32 59.9910000  0  5 02 12 06 13 09
  21008327.245     1722107.198 5   3580285.061 1
  19731326.183   -17938944.013 6 -13166207.464 2
  19315721.284   -14652164.499 6   2628865.353 2
  18085918.573   -33357909.488 7     21303.547 2
  17853845.105   -32470803.171 7 -24731504.378 1
 90 10 15 14 33 14.9910000  0  5 02 12 06 13 09
  21012280.269     1742890.267 5   3596479.555 1
  19720844.565   -17994022.109 6 -13209125.476 2
  19321281.573   -14622956.080 6   2651625.099 2
  18086352.284   -33355630.266 7     23079.534 2
  17851674.495   -32482212.534 7 -24740394.812 1
 90 10 15 14 33 29.9910000  0  5 02 12 06 13 09
  21016243.097     1763720.324 5   3612710.670 1
  19710379.597   -18049018.369 6 -13251979.715 2
  19326859.558   -14593639.145 6   2674469.403 2
  18086802.800   -33353267.760 7     24920.422 2
  17849533.237   -32493463.220 7 -24749161.603 1
 90 10 15 14 33 44.9910000  0  5 02 12 06 13 09
  21020214.972     1784594.881 5   3628976.435 1
  19699929.433   -18103934.879 6 -13294771.809 2
  19332456.972   -14564216.364 6   2697396.185 2
  18087266.776   -33350824.745 7     26824.040 2
  17847422.159   -32504557.588 7 -24757806.584 1
 90 10 15 14 33 59.9910000  0  5 02 12 06 13 09
  21024197.589     1805520.780 5   3645282.236 1
  19689495.026   -18158764.532 6 -13337496.231 2
  19338078.894   -14534681.248 6   2720410.503 2
  18087748.542   -33348294.540 7     28795.599 2
  17845341.737   -32515488.836 7 -24766324.465 1
 90 10 15 14 34 14.9910000  0  5 02 12 06 13 09
  21028188.526     1826495.126 5   3661625.766 1
  19679077.230   -18213509.743 6 -13380154.852 2
  19343720.167   -14505036.857 6   2743509.961 2
  18088247.136   -33345680.440 7     30832.524 2
  17843292.198   -32526259.669 7 -24774717.342 1
 90 10 15 14 34 29.9910000  0  5 02 12 06 13 09
  21032186.886     1847516.358 5   3678005.852 1
  19668677.339   -18268171.726 7 -13422748.617 2
  19349379.597   -14475284.944 6   2766693.206 2
  18088760.120   -33342983.991 7     32933.626 2
  17841272.714   -32536871.485 7 -24782986.310 1
 90 10 15 14 34 44.9910000  0  5 02 12 06 13 09
  21036196.605     1868580.489 5   3694419.345 1
  19658289.370   -18322754.134 7 -13465280.376 2
  19355062.503   -14445429.906 6   2789956.808 2
  18089286.862   -33340209.562 7     35095.490 2
  17839283.753   -32547328.281 7 -24791134.485 1
 90 10 15 14 34 59.9910000  0  5 02 12 06 13 09
  21040216.933     1889693.663 5   3710871.063 1
  19647918.800   -18377250.568 6 -13507745.146 2
  19360765.011   -14415465.931 6   2813305.298 2
  18089830.690   -33337351.695 7     37322.373 2
  17837324.198   -32557624.221 7 -24799157.319 1
 90 10 15 14 35 14.9910000  0  5 02 12 06 13 09
  21044241.128     1910855.178 5   3727360.444 1
  19637565.581   -18431661.197 7 -13550143.054 2
  19366486.034   -14385393.928 6   2836737.963 2
  18090390.526   -33334411.039 7     39613.763 2
  17835395.417   -32567759.327 7 -24807054.829 1
 90 10 15 14 35 29.9910000  0  5 02 12 06 13 09
  21048280.003     1932064.362 5   3743886.969 1
  19627227.761   -18485986.408 7 -13592474.404 2
  19372230.909   -14355214.758 6   2860254.133 2
  18090965.292   -33331388.600 7     41968.884 2
  17833497.253   -32577734.468 7 -24814827.691 1
 90 10 15 14 35 44.9910000  0  5 02 12 06 13 09
  21052327.526     1953324.634 5   3760453.310 1
  19616905.612   -18540222.553 6 -13634736.342 2
  19377995.417   -14324925.286 6   2883856.258 2
  18091557.698   -33328281.133 7     44390.250 2
  17831630.456   -32587546.260 7 -24822473.268 1
 90 10 15 14 35 59.9910000  0  5 02 12 06 13 09
  21056378.855     1974634.588 5   3777058.362 1
  19606602.026   -18594370.457 7 -13676929.524 2
  19383778.042   -14294527.245 6   2907542.973 2
  18092164.331   -33325090.375 7     46876.535 2
  17829793.480   -32597195.973 7 -24829992.554 1
 90 10 15 14 36 14.9910000  0  5 02 12 06 13 09
  21060446.972     1995993.148 5   3793701.295 1
  19596314.105   -18648430.794 7 -13719054.482 2
  19389584.511   -14264021.889 6   2931313.320 2
  18092786.909   -33321817.492 7     49426.802 2
  17827988.159   -32606684.639 7 -24837386.341 1
 90 10 15 14 36 29.9910000  0  5 02 12 06 13 09
  21064516.308     2017397.012 5   3810379.527 1
  19586043.737   -18702406.539 6 -13761113.511 2
  19395409.261   -14233412.780 6   2955164.509 2
  18093425.870   -33318466.292 7     52038.098 2
  17826213.081   -32616015.510 7 -24844657.177 1
 90 10 15 14 36 44.9910000  0  5 02 12 06 13 09
  21068596.394     2038844.223 5   3827091.523 1
  19575788.339   -18756299.222 7 -13803107.818 2
  19401252.987   -14202702.116 6   2979094.827 2
  18094078.292   -33315038.774 7     54708.861 2
  17824466.831   -32625190.222 7 -24851806.326 1
 90 10 15 14 36 59.9910000  0  5 02 12 06 13 09
  21072692.144     2060340.182 5   3843841.522 1
  19565550.159   -18810103.107 7 -13845032.941 2
  19407116.206   -14171884.823 6   3003108.238 2
  18094745.636   -33311529.809 7     57443.091 2
  17822751.769   -32634203.710 7 -24858829.844 1
 90 10 15 14 37 14.9910000  0  5 02 12 06 13 09
  21076787.792     2081889.536 5   3860633.113 1
  19555329.081   -18863813.171 6 -13886884.945 2
  19413001.370   -14140956.576 6   3027208.106 2
  18095428.597   -33307935.159 7     60244.086 2
  17821067.511   -32643051.061 7 -24865723.910 1
 90 10 15 14 37 29.9910000  0  5 02 12 06 13 09
  21080897.487     2103481.880 5   3877458.188 1
  19545124.175   -18917439.534 7 -13928671.736 2
  19418905.542   -14109928.072 6   3051386.090 2
  18096127.159   -33304265.630 7     63103.429 2
  17819414.573   -32651742.727 7 -24872496.660 1
 90 10 15 14 37 44.9910000  0  5 02 12 06 13 09
  21085015.675     2125123.899 5   3894322.004 1
  19534938.159   -18970974.992 6 -13970387.684 2
  19424831.862   -14078792.838 6   3075647.250 2
  18096841.667   -33300514.456 7     66026.396 2
  17817789.808   -32660271.919 7 -24879142.807 1
 90 10 15 14 37 59.9910000  0  5 02 12 06 13 09
  21089145.761     2146814.580 5   3911223.714 1
  19524766.456   -19024420.317 7 -14012033.401 2
  19430776.839   -14047552.230 6   3099990.512 2
  18097570.651   -33296683.155 7     69011.797 2
  17816198.308   -32668639.602 7 -24885663.102 1
 90 10 15 14 38 14.9910000  0  5 02 12 06 13 09
  21093282.667     2168554.173 5   3928163.541 1
  19514613.315   -19077774.658 7 -14053608.223 2
  19436742.175   -14016206.169 6   3124415.952 2
  18098314.480   -33292771.755 7     72059.615 2
  17814637.011   -32676845.458 7 -24892057.296 1
 90 10 15 14 38 29.9910000  0  5 02 12 06 13 09
  21097426.433     2190341.017 5   3945140.190 1
  19504476.792   -19131039.371 6 -14095113.203 2
  19442727.222   -13984756.543 6   3148922.090 2
  18099074.581   -33288782.011 7     75168.475 2
  17813106.409   -32684891.087 7 -24898326.647 1
 90 10 15 14 38 44.9910000  0  5 02 12 06 13 09
  21101581.097     2212173.880 5   3962152.697 1
  19494358.198   -19184215.198 7 -14136548.923 2
  19448732.659   -13953204.709 6   3173507.868 1
  18099848.120   -33284715.308 7     78337.310 2
  17811605.948   -32692777.345 7 -24904471.809 1
 90 10 15 14 38 59.9910000  0  5 02 12 06 13 09
  21105747.940     2234055.619 5   3979203.284 1
  19484257.800   -19237299.133 7 -14177913.032 2
  19454756.089   -13921548.324 6   3198175.116 2
  18100637.198   -33280569.303 7     81567.937 2
  17810135.386   -32700501.789 7 -24910490.875 1
 90 10 15 14 39 14.9910000  0  5 02 12 06 13 09
  21109918.886     2255984.912 5   3996290.938 1
  19474173.120   -19290292.009 7 -14219206.194 2
  19460798.276   -13889788.909 6   3222922.646 2
  18101440.894   -33276345.402 7     84859.262 2
  17808697.175   -32708065.565 7 -24916384.749 2
 90 10 15 14 39 29.9910000  0  5 02 12 06 13 09
  21114099.753     2277959.622 5   4013413.974 1
  19464106.714   -19343195.733 7 -14260429.885 2
  19466861.323   -13857928.896 6   3247748.569 2
  18102258.433   -33272046.187 7     88209.275 2
  17807287.308   -32715470.718 7 -24922155.018 2
 90 10 15 14 39 44.9910000  0  5 02 12 06 13 09
  21118292.362     2299980.734 5   4030573.156 1
  19454055.886   -19396008.875 7 -14301582.988 2
  19472943.237   -13825967.698 6   3272653.333 2
  18103091.284   -33267670.984 7     91618.497 2
  17805908.151   -32722716.258 7 -24927800.914 1
 90 10 15 14 39 59.9910000  0  5 02 12 06 13 09
  21122492.206     2322048.271 5   4047768.521 1
  19444023.159   -19448731.102 7 -14342665.251 2
  19479046.183   -13793905.423 6   3297636.861 2
  18103938.065   -33263219.935 7     95086.816 2
  17804559.589   -32729802.380 7 -24933322.591 1
 90 10 15 14 40 14.9910000  0  5 02 12 06 13 09
  21126704.300     2344161.871 5   4064999.770 1
  19434008.792   -19501362.188 7 -14383676.498 2
  19485163.558   -13761742.669 6   3322698.681 2
  18104798.917   -33258693.510 7     98613.875 2
  17803241.737   -32736728.835 7 -24938719.856 2
 90 10 15 14 40 29.9910000  0  5 02 12 06 13 09
  21130917.042     2366323.243 5   4082268.260 1
  19424010.065   -19553900.199 7 -14424615.213 2
  19491306.792   -13729478.040 6   3347839.888 1
  18105676.003   -33254090.165 7    102200.873 2
  17801954.995   -32743494.377 7 -24943991.733 1
 90 10 15 14 40 44.9910000  0  5 02 12 06 13 09
  21135146.089     2388531.689 5   4099573.413 1
  19414029.909   -19606345.304 7 -14465481.532 2
  19497463.714   -13697112.412 6   3373059.791 2
  18106565.839   -33249410.961 7    105846.980 2
  17800697.050   -32750099.453 7 -24949138.565 2
 90 10 15 14 40 59.9910000  0  5 02 12 06 13 09
  21139380.222     2410785.795 5   4116914.164 1
  19404067.862   -19658698.494 7 -14506276.229 2
  19503643.316   -13664647.557 6   3398357.020 1
  18107470.558   -33244657.563 7    109550.903 2
  17799471.331   -32756545.245 7 -24954161.285 1
 90 10 15 14 41 14.9910000  0  5 02 12 06 13 09
  21143617.323     2433085.996 5   4134290.823 1
  19394122.925   -19710959.143 7 -14546998.821 2
  19509838.605   -13632083.391 6   3423731.630 1
  18108388.628   -33239830.006 7    113312.606 2
  17798275.089   -32762831.788 7 -24959059.913 1
 90 10 15 14 41 29.9910000  0  5 02 12 06 13 09
  21147872.159     2455431.198 5   4151702.557 1
  19384196.784   -19763127.831 7 -14587649.753 2
  19516053.972   -13599421.119 6   3449182.687 1
  18109321.644   -33234929.594 7    117131.082 2
  17797108.644   -32768959.659 7 -24963834.901 1
 90 10 15 14 41 44.9910000  0  5 02 12 06 13 09
  21152135.355     2477820.939 5   4169148.979 1
  19374285.964   -19815204.621 7 -14628229.077 2
  19522289.026   -13566661.505 6   3474709.590 2
  18110267.761   -33229957.070 7    121005.741 2
  17795973.190   -32774929.324 7 -24968486.614 1
 90 10 15 14 41 59.9910000  0  5 02 12 06 13 09
  21156406.105     2500259.002 5   4186633.056 1
  19364394.151   -19867185.456 7 -14668733.631 2
  19528541.167   -13533801.186 6   3500314.974 2
  18111228.855   -33224908.888 7    124939.364 2
  17794867.792   -32780737.216 7 -24973012.266 1
 90 10 15 14 42 14.9910000  0  5 02 12 06 13 09
  21160681.448     2522744.379 5   4204154.000 1
  19354521.370   -19919071.143 7 -14709164.050 2
  19534813.987   -13500841.560 6   3525997.737 1
  18112203.823   -33219786.403 7    128930.882 2
  17793792.815   -32786384.418 7 -24977412.712 2
 90 10 15 14 42 29.9910000  0  5 02 12 06 13 09
  21164975.019     2545277.002 5   4221711.764 1
  19344665.651   -19970861.193 7 -14749519.945 2
  19541104.589   -13467782.728 6   3551757.800 1
  18113192.745   -33214589.668 7    132980.259 2
  17792749.487   -32791870.623 7 -24981687.702 2
 90 10 15 14 42 44.9910000  0  5 02 12 06 13 09
  21169268.300     2567854.840 5   4239304.757 1
  19334828.003   -20022557.205 7 -14789802.560 2
  19547411.112   -13434627.025 6   3577593.347 1
  18114195.401   -33209320.953 7    137085.726 2
  17791734.245   -32797198.119 7 -24985839.021 2
 90 10 15 14 42 59.9910000  0  5 02 12 06 13 09
  21173573.698     2590475.661 5   4256931.250 1
  19325008.300   -20074161.131 7 -14830013.427 2
  19553739.448   -13401377.064 6   3603502.345 1
  18115211.464   -33203982.785 7    141245.307 2
  17790750.331   -32802368.990 7 -24989868.299 2
 90 10 15 14 43 14.9910000  0  5 02 12 06 13 09
  21177883.972     2613142.332 5   4274593.445 1
  19315206.503   -20125669.723 7 -14870150.004 2
  19560089.003   -13368030.176 6   3629486.873 1
  18116239.839   -33198572.676 7    145460.954 2
  17789797.776   -32807380.434 7 -24993773.350 2
 90 10 15 14 43 29.9910000  0  5 02 12 06 13 09
  21182212.526     2635858.430 5   4292294.182 1
  19305424.066   -20177078.911 7 -14910209.125 2
  19566450.206   -13334583.038 6   3655549.515 1
  18117284.151   -33193087.413 7    149735.156 2
  17788875.698   -32812228.579 7 -24997551.150 1
 90 10 15 14 43 44.9910000  0  5 02 12 06 13 09
  21186540.323     2658620.111 5   4310030.424 1
  19295659.066   -20228392.173 7 -14950193.497 2
  19572834.089   -13301039.876 6   3681686.978 1
  18118342.472   -33187530.995 7    154064.802 2
  17787982.120   -32816917.597 7 -25001204.962 2
 90 10 15 14 43 59.9910000  0  5 02 12 06 13 09
  21190880.503     2681424.047 5   4327799.591 1
  19285911.792   -20279612.422 7 -14990105.394 2
  19579234.425   -13267404.127 6   3707896.588 1
  18119411.737   -33181906.917 7    158447.169 2
  17787120.292   -32821450.572 7 -25004737.175 2
 90 10 15 14 44 14.9910000  0  5 02 12 06 13 09
  21195228.737     2704274.561 5   4345605.057 1
  19276183.097   -20330735.049 7 -15029941.223 2
  19585653.276   -13233671.776 6   3734181.474 1
  18120495.776   -33176210.883 7    162885.611 2
  17786288.370   -32825823.184 7 -25008144.435 2
 90 10 15 14 44 29.9910000  0  5 02 12 06 13 09
  21199583.292     2727171.635 5   4363446.809 1
  19266473.339   -20381759.665 7 -15069700.670 2
  19592091.011   -13199843.198 6   3760541.340 1
  18121592.730   -33170443.523 7    167379.626 2
  17785486.745   -32830035.331 7 -25011426.655 2
 90 10 15 14 44 44.9910000  0  5 02 12 06 13 09
  21203950.605     2750114.674 5   4381324.356 1
  19256782.651   -20432686.643 7 -15109384.046 2
  19598546.620   -13165919.393 6   3786975.408 1
  18122705.534   -33164605.687 7    171928.561 2
  17784714.730   -32834087.839 7 -25014584.483 2
 90 10 15 14 44 59.9910000  0  5 02 12 06 13 09
  21208326.753     2773102.574 5   4399236.876 1
  19247110.753   -20483516.439 7 -15148991.690 2
  19605023.253   -13131901.671 6   3813482.658 1
  18123827.589   -33158698.494 7    176531.536 2
  17783974.948   -32837981.802 7 -25017618.764 2
 90 10 15 14 45 14.9910000  0  5 02 12 06 13 09
  21212708.675     2796136.753 5   4417185.437 1
  19237457.378   -20534247.319 7 -15188522.252 2
  19611510.909   -13097788.810 6   3840064.041 1
  18124965.362   -33152721.053 7    181189.255 2
  17783264.120   -32841715.643 7 -25020528.276 2
 90 10 15 14 45 29.9910000  0  5 02 12 06 13 09
  21217101.409     2819218.884 5   4435171.377 1
  19227821.722   -20584877.104 7 -15227974.039 2
  19618023.011   -13063579.443 6   3866720.626 1
  18126117.667   -33146671.844 7    185902.893 2
  17782583.886   -32845287.505 7 -25023311.573 2
 90 10 15 14 45 44.9910000  0  5 02 12 06 13 09
  21221505.855     2842347.083 5   4453193.207 1
  19218207.519   -20635407.445 7 -15267348.338 2
  19624550.605   -13029275.603 6   3893450.823 1
  18127281.401   -33140552.839 7    190670.921 2
  17781935.308   -32848699.683 7 -25025970.438 2
 90 10 15 14 45 59.9910000  0  5 02 12 06 13 09
  21225910.769     2865518.601 4   4471248.798 1
  19208609.081   -20685840.631 7 -15306646.935 2
  19631094.667   -12994880.602 6   3920252.056 1
  18128458.612   -33134367.181 7    195490.878 2
  17781315.784   -32851954.757 7 -25028506.890 2
 90 10 15 14 46 14.9910000  0  5 02 12 06 13 09
  21230332.573     2888732.590 5   4489337.476 1
  19199030.651   -20736177.337 7 -15345870.349 2
  19637659.175   -12960395.538 6   3947123.471 1
  18129648.308   -33128116.051 7    200361.858 2
  17780725.870   -32855053.532 7 -25030921.550 2
 90 10 15 14 46 29.9910000  0  5 02 12 06 13 09
  21234759.690     2911992.462 5   4507461.912 1
  19189470.808   -20786413.645 7 -15385015.529 2
  19644238.386   -12925817.150 6   3974067.599 1
  18130850.003   -33121796.227 7    205286.365 2
  17780167.214   -32857992.727 7 -25033211.865 2
 90 10 15 14 46 44.9910000  0  5 02 12 06 13 09
  21239193.605     2935298.879 5   4525622.632 1
  19179931.222   -20836548.362 7 -15424081.552 2
  19650836.183   -12891145.008 6   4001084.789 1
  18132066.917   -33115407.061 7    210264.907 2
  17779638.120   -32860771.421 7 -25035377.109 2
 90 10 15 14 46 59.9910000  0  5 02 12 06 13 09
  21243637.034     2958648.894 4   4543817.294 1
  19170409.456   -20886584.299 7 -15463070.602 2
  19657452.323   -12856382.478 6   4028172.405 1
  18133295.136   -33108951.931 7    215294.848 2
  17779138.706   -32863392.685 7 -25037419.678 2
 90 10 15 14 47 14.9910000  0  5 02 12 06 13 09
  21248087.105     2982048.967 4   4562050.969 1
  19160907.855   -20936514.466 7 -15501977.228 2
  19664086.612   -12821523.313 6   4055335.323 1
  18134538.417   -33102424.627 7    220381.031 2
  17778671.355   -32865850.006 7 -25039334.502 2
 90 10 15 14 47 29.9910000  0  5 02 12 06 13 09
  21252551.597     3005492.119 4   4580318.227 1
  19151425.034   -20986345.488 7 -15540806.612 2
  19670735.425   -12786574.795 6   4082567.867 1
  18135791.362   -33095832.290 7    225517.884 2
  17778233.300   -32868150.452 7 -25041127.084 2
 90 10 15 14 47 44.9910000  0  5 02 12 06 13 09
  21257014.480     3028977.965 4   4598618.743 1
  19141961.315   -21036077.470 7 -15579558.811 2
  19677403.245   -12751537.653 6   4109869.468 1
  18137057.487   -33089175.774 7    230704.756 2
  17777826.261   -32870294.443 7 -25042797.755 2
 90 10 15 14 47 59.9910000  0  5 02 12 06 13 09
  21261497.753     3052505.378 4   4616951.646 1
  19132516.769   -21085710.926 7 -15618234.241 2
  19684087.495   -12716413.118 6   4137239.170 1
  18138337.948   -33082456.116 7    235940.827 2
  17777447.526   -32872282.931 7 -25044347.253 2
 90 10 15 14 48 14.9910000  0  5 02 12 06 13 09
  21265977.339     3076083.301 4   4635323.913 1
  19123092.120   -21135236.853 7 -15656825.883 2
  19690786.019   -12681192.711 6   4164683.569 1
  18139630.058   -33075664.938 7    241232.630 2
  17777100.019   -32874107.334 7 -25045768.896 2
 90 10 15 14 48 29.9910000  0  5 02 12 06 13 09
  21270480.105     3099705.248 4   4653730.466 1
  19113687.925   -21184661.062 7 -15695338.266 2
  19697509.933   -12645883.052 6   4192197.524 1
  18140933.909   -33068808.870 7    246574.999 2
  17776784.862   -32875773.651 7 -25047067.355 2
 90 10 15 14 48 44.9910000  0  5 02 12 06 13 09
  21274983.144     3123370.199 4   4672170.560 1
  19104301.089   -21233984.410 7 -15733772.051 2
  19704244.917   -12610485.624 6   4219779.868 1
  18142251.526   -33061889.238 7    251966.896 2
  17776494.940   -32877283.294 7 -25048243.725 2
 90 10 15 14 48 59.9910000  0  5 02 12 06 13 09
  21279494.198     3147082.214 4   4690647.307 1
  19094936.362   -21283202.161 7 -15772123.559 2
  19710995.636   -12574996.420 6   4247433.720 1
  18143581.440   -33054901.951 7    257411.520 2
  17776239.823   -32878631.965 7 -25049294.661 2
 90 10 15 14 49 14.9910000  0  5 02 12 06 13 09
  21284015.214     3170837.558 4   4709157.825 1
  19085588.917   -21332317.776 7 -15810395.475 2
  19717766.714   -12539419.521 6   4275155.909 1
  18144922.167   -33047851.014 7    262905.736 2
  17776014.026   -32879823.367 7 -25050223.049 2
 90 10 15 14 49 29.9910000  0  5 02 12 06 13 09
  21288548.948     3194636.954 5   4727702.693 1
  19076263.230   -21381330.190 7 -15848586.984 2
  19724554.558   -12503754.592 6   4302946.695 1
  18146276.620   -33040736.155 7    268449.759 2
  17775814.230   -32880857.106 7 -25051028.586 2
 90 10 15 14 49 44.9910000  0  5 02 12 06 13 09
  21293078.659     3218479.399 4   4746281.061 1
  19066954.144   -21430240.009 7 -15886698.549 2
  19731356.683   -12468002.976 6   4330805.019 1
  18147642.815   -33033558.524 7    274042.695 2
  17775648.847   -32881733.986 7 -25051711.899 2
 90 10 15 14 49 59.9910000  0  5 02 12 06 13 09
  21297619.722     3242366.030 4   4764893.897 1
  19057667.370   -21479045.735 7 -15924728.995 2
  19738177.550   -12432163.737 6   4358731.634 1
  18149020.534   -33026317.313 7    279685.174 2
  17775513.800   -32882453.051 7 -25052272.239 2
 90 10 15 14 50 14.9910000  0  5 02 12 06 13 09
  21302178.792     3266299.566 4   4783543.240 1
  19048401.222   -21527744.361 7 -15962675.995 2
  19745014.722   -12396234.499 6   4386728.365 1
  18150410.222   -33019010.189 7    285379.008 2
  17775406.355   -32883011.505 7 -25052707.423 2
 90 10 15 14 50 29.9910000  0  5 02 12 06 13 09
  21306745.261     3290277.101 4   4802226.917 1
  19039152.362   -21576338.506 7 -16000541.583 2
  19751867.433   -12360218.636 6   4414792.603 1
  18151812.878   -33011640.289 7    291121.766 2
  17775331.628   -32883412.282 7 -25053019.752 2
 90 10 15 14 50 44.9910000  0  5 02 12 06 13 09
  21311317.222     3314298.104 4   4820944.429 1
  19029926.269   -21624828.176 7 -16038325.751 2
  19758740.480   -12324116.680 6   4442923.926 1
  18153226.276   -33004208.121 7    296913.043 2
  17775285.519   -32883655.924 7
 90 10 15 14 50 59.9910000  0  5 02 12 06 13 09
  21315889.417     3338362.856 4   4839696.038 1
  19020719.308   -21673212.711 7 -16076028.010 2
  19765625.534   -12287928.642 6   4471122.326 1
  18154652.745   -32996713.697 7    302752.827 2
  17775264.987   -32883742.240 7
 90 10 15 14 51 14.9910000  0  5 02 12 06 13 09
  21320484.034     3362470.541 4   4858481.095 1
  19011531.315   -21721492.551 7 -16113648.682 2
  19772526.073   -12251655.667 6   4499386.906 1
  18156091.909   -32989158.168 7    308640.228 2
  17775281.714   -32883671.917 7
 90 10 15 14 51 29.9910000  0  5 02 12 06 13 09
  21325077.870     3386620.044 4   4877298.767 1
  19002363.995   -21769668.460 7 -16151188.363 2
  19779448.464   -12215299.259 6   4527716.504 1
  18157541.753   -32981542.726 7    314574.302 2
  17775324.151   -32883446.171 7
 90 10 15 14 51 44.9910000  0  5 02 12 06 13 09
  21329683.300     3410816.679 5   4896153.140 1
  18993217.815   -21817734.687 7 -16188642.578 2
  19786382.761   -12178854.340 6   4556115.068 1
  18159002.448   -32973862.389 7    320558.958 2
  17775398.870   -32883059.853 7
 90 10 15 14 51 59.9910000  0  5 02 12 06 13 09
  21334295.855     3435059.229 5   4915043.288 1
  18984091.620   -21865692.122 7 -16226012.024 2
  19793330.792   -12142322.496 6   4584581.367 1
  18160475.323   -32966118.721 7    326592.963 2
  17775502.347   -32882514.058 7        -0.49712
 90 10 15 14 52 14.9910000  0  5 02 12 06 13 09
  21338918.472     3459338.003 5   4933961.690 1
  18974984.792   -21913549.970 7 -16263303.861 2
  19800301.526   -12105713.442 6   4613107.827 1
  18161960.792   -32958321.517 7    332668.677 2
  17775631.112   -32881818.427 7       541.525 2
 90 10 15 14 52 29.9910000  0  5 02 12 06 13 09
  21343544.706     3483660.293 5   4952913.967 1
  18965898.105   -21961300.521 7 -16300512.093 2
  19807281.870   -12069020.360 6   4641699.763 1
  18163453.980   -32950463.753 7    338791.582 2
  17775797.956   -32880965.982 7      1205.739 2
 90 10 15 14 52 44.9910000  0  5 02 12 06 13 09
  21348181.034     3508030.821 5   4971903.867 1
  18956833.206   -22008938.636 7 -16337632.715 2
  19814281.776   -12032238.690 6   4670360.732 1
  18164963.355   -32942540.609 7    344965.432 2
  17775987.058   -32879951.677 7      1996.075 2
 90 10 15 14 52 59.9910000  0  5 02 12 06 13 09
  21352827.401     3532440.505 5   4990924.246 1
  18947787.120   -22056473.162 7 -16374672.614 2
  19821296.667   -11995377.819 6   4699083.416 1
  18166479.433   -32934561.671 7    351182.758 2
  17776211.636   -32878784.699 7      2905.386 2
 90 10 15 14 53 14.9910000  0  5 02 12 06 13 09
  21357479.714     3556894.036 5   5009978.826 1
  18938762.464   -22103899.130 7 -16411627.922 2
  19828324.644   -11958433.518 6   4727871.107 1
  18168011.128   -32926522.600 7    357446.929 2
  17776461.448   -32877460.526 7      3937.179 2
 90 10 15 14 53 29.9910000  0  5 02 12 06 13 09
  21362143.448     3581391.922 5   5029067.932 1
  18929758.620   -22151215.395 7 -16448497.738 2
  19835373.034   -11921405.504 6   4756724.025 1
  18169552.667   -32918422.980 7    363758.291 2
  17776743.651   -32875978.712 7      5091.809 2
 90 10 15 14 53 44.9910000  0  5 02 12 06 13 09
  21366809.925     3605932.476 5   5048190.319 1
  18920775.394   -22198423.295 7 -16485283.122 2
  19842433.308   -11884295.564 6   4785640.788 1
  18171104.136   -32910264.662 7    370115.393 2
  17777057.136   -32874340.785 7      6368.088 2
 90 10 15 14 53 59.9910000  0  5 02 12 06 13 09
  21371489.644     3630519.072 5   5067348.555 1
  18911813.222   -22245519.364 7 -16521981.360 2
  19849513.276   -11847100.953 6   4814623.529 1
  18172667.956   -32902044.734 7    376520.499 2
  17777400.065   -32872543.605 7      7768.458 2
 90 10 15 14 54 14.9910000  0  5 02 12 06 13 09
  21376177.144     3655149.308 5   5086540.779 1
  18902871.714   -22292505.404 7 -16558593.858 2
  19856607.401   -11809824.148 6   4843670.302 1
  18174244.300   -32893765.735 7    382971.641 2
  17777769.855   -32870589.535 7      9291.085 2
 90 10 15 14 54 29.9910000  0  5 02 12 06 13 09
  21380869.612     3679822.272 5   5105766.319 1
  18893950.183   -22339382.147 7 -16595121.194 2
  19863711.612   -11772466.455 6   4872780.116 1
  18175830.956   -32885428.907 7    389467.843 2
  17778171.651   -32868479.669 7     10935.110 2
 90 10 15 14 54 44.9910000  0  5 02 12 06 13 09
  21385579.714     3704537.682 5   5125024.929 1
  18885051.472   -22386149.407 7 -16631563.210 2
  19870842.409   -11735028.463 6   4901952.500 1
  18177427.745   -32877034.553 7    396008.862 2
  17778603.050   -32866214.066 7     12700.492 2
 90 10 15 14 54 59.9900000  0  5 02 12 06 13 09
  21390287.740     3729293.376 5   5144314.927 1
  18876173.654   -22432804.213 7 -16667917.600 2
  19877975.412   -11697513.260 6   4931185.044 1
  18179034.928   -32868584.040 7    402593.647 2
  17779064.537   -32863793.618 7     14586.528 2
 90 10 15 14 55 14.9900000  0  5 02 12 06 13 09
  21395005.006     3754092.265 5   5163638.598 1
  18867315.615   -22479352.613 7 -16704189.081 2
  19885132.834   -11659916.538 6   4960481.112 1
  18180653.803   -32860076.664 7    409222.745 2
  17779555.311   -32861218.345 7     16593.204 2
 90 10 15 14 55 29.9900000  0  5 02 12 06 13 09
  21399737.029     3778930.949 5   5182993.261 1
  18858478.756   -22525793.085 7 -16740376.459 2
  19892301.529   -11622243.051 6   4989836.990 1
  18182284.904   -32851515.274 7    415893.928 2
  17780072.506   -32858490.308 7     18718.922 2
 90 10 15 14 55 44.9900000  0  5 02 12 06 13 09
  21404468.178     3803811.792 5   5202380.789 1
  18849663.076   -22572122.773 7 -16776477.512 2
  19899484.193   -11584490.686 6   5019254.328 1
  18183925.076   -32842897.718 7    422608.875 2
  17780619.482   -32855607.174 7     20965.491 2
 90 10 15 14 55 59.9900000  0  5 02 12 06 13 09
  21409211.670     3828740.757 5   5221805.812 1
  18840868.412   -22618335.232 7 -16812487.221 2
  19906686.311   -11546653.687 6   5048737.629 1
  18185575.170   -32834218.225 7    429372.090 2
  17781202.037   -32852562.971 7     23337.568 2
 90 10 15 14 56 14.9900000  0  5 02 12 06 13 09
  21413968.631     3853718.179 5   5241268.583 1
  18832097.295   -22664429.877 7 -16848405.128 2
  19913903.295   -11508732.057 6   5078286.865 1
  18187239.811   -32825476.529 7    436183.772 2
  17781809.943   -32849357.571 7     25835.250 2
 90 10 15 14 56 29.9900000  0  5 02 12 06 13 09
  21418723.990     3878736.445 5   5260763.199 1
  18823346.561   -22710413.816 7 -16884236.773 2
  19921135.483   -11470733.538 6   5107896.013 1
  18188912.686   -32816680.446 7    443037.835 2
  17782448.772   -32845998.299 7     28452.834 2
 90 10 15 14 56 44.9900000  0  5 02 12 06 13 09
  21423494.272     3903794.900 5   5280289.112 1
  18814616.850   -22756287.517 7 -16919982.517 2
  19928377.912   -11432659.396 6   5137564.098 1
  18190598.295   -32807831.076 7    449933.416 2
  17783117.693   -32842486.248 7     31189.468 2
 90 10 15 14 56 59.9900000  0  5 02 12 06 13 09
  21428269.904     3928898.856 4   5299850.482 1
  18805909.701   -22802045.096 7 -16955637.778 2
  19935639.123   -11394504.377 6   5167295.195 1
  18192291.725   -32798923.153 7    456874.626 2
  17783818.209   -32838815.843 7     34049.493 2
 90 10 15 14 57 14.9900000  0  5 02 12 06 13 09
  21433055.647     3954049.064 5   5319447.906 1
  18797224.506   -22847685.659 7 -16991201.861 2
  19942915.959   -11356268.082 6   5197089.621 1
  18194000.897   -32789956.310 7    463861.736 2
  17784543.303   -32834986.628 7     37033.265 2
 90 10 15 14 57 29.9900000  0  5 02 12 06 13 09
  21437853.217     3979240.323 4   5339077.306 1
  18788560.717   -22893213.832 7 -17026678.369 2
  19950209.772   -11317956.165 6   5226942.977 1
  18195715.240   -32780935.961 7    470890.550 2
  17785303.576   -32831003.846 7     40136.701 2
 90 10 15 14 57 44.9900000  0  5 02 12 06 13 09
  21442656.701     4004472.422 4   5358738.534 1
  18779918.232   -22938629.472 7 -17062067.193 2
  19957511.342   -11279568.812 6   5256855.118 1
  18197441.178   -32771862.496 7    477960.746 2
  17786092.639   -32826867.628 7     43359.690 2
 90 10 15 14 57 59.9900000  0  5 02 12 06 13 09
  21447463.389     4029746.785 4   5378432.686 1
  18771298.139   -22983930.914 7 -17097367.034 2
  19964831.756   -11241105.106 6   5286826.744 1
  18199177.467   -32762734.822 7    485073.181 2
  17786908.600   -32822576.784 7     46703.173 2
 90 10 15 14 58 14.9900000  0  5 02 12 06 13 09
  21452285.490     4055065.527 4   5398161.431 1
  18762698.686   -23029115.687 7 -17132575.962 2
  19972164.186   -11202563.221 6   5316859.299 1
  18200925.342   -32753550.905 7    492229.441 2
  17787753.850   -32818129.174 7     50168.812 2
 90 10 15 14 58 29.9900000  0  5 02 12 06 13 09
  21457100.787     4080429.185 4   5417925.151 1
  18754123.482   -23074182.754 7 -17167693.172 2
  19979516.373   -11163942.823 6   5346953.027 1
  18202684.076   -32744310.433 7    499429.766 2
  17788629.967   -32813524.263 7     53757.028 2
 90 10 15 14 58 44.9900000  0  5 02 12 06 13 09
  21461940.295     4105839.479 4   5437725.246 1
  18745570.131   -23119130.141 7 -17202717.129 2
  19986877.764   -11125242.573 6   5377108.978 1
  18204452.936   -32735011.871 7    506675.358 2
  17789537.756   -32808760.621 7     57468.928 2
 90 10 15 14 58 59.9900000  0  5 02 12 06 13 09
  21466788.693     4131293.991 4   5457559.761 1
  18737038.772   -23163959.740 7 -17237649.303 2
  19994257.811   -11086465.070 6   5407325.132 1
  18206232.350   -32725657.429 7    513964.494 2
  17790474.951   -32803840.344 7     61302.880 2
 90 10 15 14 59 14.9900000  0  5 02 12 06 13 09
  21471640.498     4156791.675 4   5477427.927 1
  18728531.029   -23208672.190 7 -17272490.189 2
  20001653.404   -11047611.657 6   5437600.425 1
  18208024.428   -32716248.705 7    521295.923 2
  17791439.147   -32798764.780 7     65257.829 2
 90 10 15 14 59 29.9900000  0  5 02 12 06 13 09
  21476495.959     4182329.398 3   5497327.311 1
  18720044.670   -23253270.339 7 -17307242.012 2
  20009057.803   -11008685.875 6   5467932.114 1
  18209826.350   -32706789.212 7    528666.916 2
  17792432.584   -32793537.041 7     69331.356 2
 90 10 15 14 59 44.9900000  0  5 02 12 06 13 09
  21481365.232     4207908.410 3   5517258.861 1
  18711579.639   -23297752.414 7 -17341903.389 2
  20016480.389   -10969686.595 6   5498321.073 1
  18211634.154   -32697277.912 7    536078.274 2
  17793456.420   -32788155.952 7     73524.379 2
 90 10 15 14 59 59.9900000  0  5 02 12 06 13 09
  21486242.068     4233528.457 3   5537222.364 1
  18703137.232   -23342118.658 7 -17376474.502 2
  20023917.217   -10930614.570 6   5528766.715 1
  18213454.139   -32687715.514 7    543529.447 2
  17794512.826   -32782621.972 7     77836.535 2
 90 10 15 15  0 14.9900000  0  5 02 12 06 13 09
  21491128.365     4259189.505 3   5557217.832 1
  18694715.889   -23386368.417 7 -17410954.854 2
  20031365.061   -10891469.884 6   5559268.968 1
  18215285.451   -32678101.877 7    551020.552 2
  17795591.342   -32776934.939 7     82267.950 2
 90 10 15 15  0 29.9900000  0  5 02 12 06 13 09
  21496013.561     4284897.954 2   5577250.235 1
  18686320.131   -23430495.107 7 -17445339.300 2
  20038828.818   -10852246.592 6   5589832.489 1
  18217123.318   -32668431.179 7    558556.130 2
  17796706.631   -32771088.873 7     86823.289 2
 90 10 15 15  0 44.9900000  0  5 02 12 06 13 09
  21500923.022     4310648.278 3   5597315.252 1
  18677944.561   -23474503.999 7 -17479631.963 2
  20046305.303   -10812950.599 6   5620452.649 1
  18218974.834   -32658708.841 7    566131.936 2
  17797845.232   -32765089.352 7     91498.200 2
 90 10 15 15  0 59.9900000  0  5 02 12 06 13 09
  21505826.139     4336438.548 3   5617411.402 1
  18669593.076   -23518396.447 7 -17513833.886 2
  20053797.240   -10773584.086 6   5651127.757 1
  18220835.592   -32648937.036 7    573746.287 2
  17799017.311   -32758938.387 7     96291.127 2
 90 10 15 15  1 14.9900000  0  5 02 12 06 13 09
  21510737.576     4362266.930 3   5637537.254 1
  18661262.568   -23562173.905 7 -17547946.205 2
  20061303.772   -10734149.096 6   5681856.225 1
  18222701.967   -32639117.777 7    581397.617 2
  17800217.693   -32752637.610 7    101200.786 2
 90 10 15 15  1 29.9900000  0  5 02 12 06 13 09
  21515661.959     4388140.571 3   5657698.382 1
  18652955.029   -23605828.717 7 -17581962.954 2
  20068821.123   -10694638.636 6   5712643.494 1
  18224580.779   -32629244.016 7    589091.428 2
  17801446.279   -32746179.928 7    106232.716 2
 90 10 15 15  1 44.9900000  0  5 02 12 06 13 09
  21520598.764     4414054.022 3   5677890.511 1
  18644669.178   -23649366.265 7 -17615888.329 2
  20076350.006   -10655058.748 6   5743484.866 1
  18226470.498   -32619321.629 7    596823.127 2
  17802701.943   -32739571.106 7    111382.406 2
 90 10 15 15  1 59.9900000  0  5 02 12 06 13 09
  21525537.670     4440009.843 3   5698115.643 1
  18636408.412   -23692783.311 7 -17649719.802 2
  20083895.881   -10615406.904 6   5774382.314 1
  18228369.670   -32609347.977 7    604594.783 2
  17803986.990   -32732808.522 7    116651.918 2
 90 10 15 15  2 14.9900000  0  5 02 12 06 13 09
  21530482.647     4466013.510 3   5718378.079 1
  18628169.326   -23736074.237 7 -17683453.002 3
  20091459.357   -10575678.070 6   5805339.747 1
  18230278.100   -32599318.099 7    612410.244 2
  17805305.529   -32725886.853 7    122045.388 2
 90 10 15 15  2 29.9900000  0  5 02 12 06 13 09
  21535435.693     4492055.760 2   5738670.571 1
  18619954.592   -23779247.947 7 -17717094.860 2
  20099029.717   -10535881.777 6   5836349.746 1
  18232194.436   -32589241.360 7    620262.216 2
  17806650.920   -32718815.490 7    127555.512 2
 90 10 15 15  2 44.9900000  0  5 02 12 06 13 09
  21540397.967     4518140.687 3   5758996.306 1
  18611762.154   -23822299.765 7 -17750641.745 2
  20106618.631   -10496014.100 6   5867415.361 1
  18234121.209   -32579113.710 7    628153.856 2
  17808026.951   -32711590.368 7    133185.441 2
 90 10 15 15  2 59.9900000  0  5 02 12 06 13 09
  21545374.100     4544266.294 3   5779353.768 1
  18603592.420   -23865231.384 7 -17784094.971 2
  20114216.857   -10456077.350 6   5898534.820 1
  18236056.084   -32568937.488 7    636083.352 2
  17809433.678   -32704213.474 7    138933.635 2
 90 10 15 15  3 14.9900000  0  5 02 12 06 13 09
  21550350.459     4570433.257 3   5799743.449 1
  18595444.381   -23908042.023 7 -17817453.918 2
  20121831.865   -10416071.465 6   5929708.133 1
  18238003.678   -32558712.669 7    644050.716 2
  17810865.748   -32696684.626 7    144800.236 2
 90 10 15 15  3 29.9900000  0  5 02 12 06 13 09
  21555340.592     4596644.181 3   5820167.371 1
  18587322.482   -23950728.652 7 -17850716.236 2
  20129457.123   -10375993.969 6   5960937.244 1
  18239960.615   -32548436.382 7    652058.188 2
  17812324.170   -32689001.039 7    150787.411 2
 90 10 15 15  3 44.9900000  0  5 02 12 06 13 09
  21560334.873     4622898.085 3   5840624.789 1
  18579223.482   -23993291.816 7 -17883882.349 2
  20137099.279   -10335846.136 6   5992221.162 1
  18241922.436   -32538109.702 7    660104.928 2
  17813820.100   -32681163.831 7    156894.290 2
 90 10 15 15  3 59.9900000  0  5 02 12 06 13 09
  21565338.178     4649190.467 2   5861112.199 1
  18571146.209   -24035735.419 7 -17916955.300 3
  20144748.983   -10295632.592 6   6023556.291 1
  18243899.107   -32527737.468 7    668187.164 2
  17815336.881   -32673177.531 7    163117.342 2
 90 10 15 15  4 14.9900000  0  5 02 12 06 13 09
  21570349.475     4675526.981 3   5881633.979 1
  18563093.279   -24078053.616 7 -17949930.530 2
  20152416.522   -10255348.067 5   6054946.727 1
  18245880.436   -32517314.326 7    676309.062 2
  17816887.576   -32665036.562 7    169460.913 2
 90 10 15 15  4 29.9900000  0  5 02 12 06 13 09
  21575371.545     4701902.057 3   5902185.826 1
  18555064.936   -24120251.564 7 -17982812.057 3
  20160093.897   -10214998.443 6   6086387.884 1
  18247874.584   -32506845.805 7    684466.324 2
  17818461.772   -32656746.417 7    175920.732 2
 90 10 15 15  4 44.9900000  0  5 02 12 06 13 09
  21580396.576     4728318.971 3   5922770.283 1
  18547057.725   -24162325.673 7 -18015597.094 2
  20167785.678   -10174580.696 5   6117882.127 1
  18249873.811   -32496328.892 7    692661.294 2
  17820072.623   -32648304.224 7    182499.024 2
 90 10 15 15  4 59.9900000  0  5 02 12 06 13 09
  21585434.443     4754774.730 4   5943384.990 1
  18539073.982   -24204278.444 7 -18048287.580 2
  20175488.100   -10134098.050 5   6149426.935 1
  18251884.217   -32485766.692 7    700891.546 2
  17821706.154   -32639713.011 7    189193.437 2
 90 10 15 15  5 14.9900000  0  5 02 12 06 13 09
  21590474.725     4781272.171 4   5964032.206 1
  18531114.365   -24246106.881 7 -18080881.182 3
  20183204.373   -10093548.074 5   6181024.217 1
  18253905.162   -32475156.757 7    709158.996 2
  17823367.428   -32630969.941 7    196006.181 2
 90 10 15 15  5 29.9900000  0  5 02 12 06 13 09
  21595527.107     4807807.406 4   5984708.864 1
  18523176.615   -24287814.404 7 -18113380.567 3
  20190932.975   -10052934.819 5   6212670.794 1
  18255933.639   -32464503.037 7    717460.556 2
  17825059.654   -32622078.757 7    202934.340 2
